[[{"header":{"parameterUnit":"m.s-1","parameterCategory":1,"la1":31.0,"la2":29.5877,"lo1":-88.7671,"lo2":-86.6584,"dy":0.0162,"dx":0.0185,"nx":115,"ny":88,"refTime":"2024-09-11T00:00:00:Z","depth":0,"parameterNumber":2,"parameterNumberName":"U-component_of_WINDS"},"data":[0.0,0.0,0.0,0.0,0.0,0.0,0.0,0.0,0.0,0.0,0.0,0.0,0.0,0.0,0.0,0.0,0.0,0.0,0.0,0.0,0.0,0.0,0.0,0.0,0.0,0.0,0.0,0.0,0.0,0.0,0.0,0.0,0.0,0.0,0.0,0.0,0.0,0.0,0.0,0.0,0.0,0.0,0.0,0.0,0.0,0.0,0.0,0.0,0.0,0.0,0.0,0.0,0.0,0.0,0.0,0.0,0.0,0.0,0.0,0.0,0.0,0.0,0.0,0.0,0.0,0.0,0.0,0.0,0.0,0.0,0.0,0.0,0.0,0.0,0.0,0.0,0.0,0.0,0.0,0.0,0.0,0.0,0.0,0.0,0.0,0.0,0.0,0.0,0.0,0.0,0.0,0.0,0.0,0.0,0.0,0.0,0.0,0.0,0.0,0.0,0.0,0.0,0.0,0.0,0.0,0.0,0.0,0.0,0.0,0.0,0.0,0.0,0.0,0.0,0.0,0.0,0.0,0.0,0.0,0.0,0.0,0.0,0.0,0.0,0.0,0.0,0.0,0.0,0.0,0.0,0.0,0.0,0.0,0.0,0.0,0.0,0.0,0.0,0.0,0.0,0.0,0.0,0.0,0.0,0.0,0.0,0.0,0.0,0.0,0.0,0.0,0.0,0.0,0.0,0.0,0.0,0.0,0.0,0.0,0.0,0.0,0.0,0.0,0.0,0.0,0.0,0.0,0.0,0.0,0.0,0.0,0.0,0.0,0.0,0.0,0.0,0.0,0.0,0.0,0.0,0.0,0.0,0.0,0.0,0.0,0.0,0.0,0.0,0.0,0.0,0.0,0.0,0.0,0.0,0.0,0.0,0.0,0.0,0.0,0.0,0.0,0.0,0.0,0.0,0.0,0.0,0.0,0.0,0.0,0.0,0.0,0.0,0.0,0.0,0.0,0.0,0.0,0.0,0.0,0.0,0.0,0.0,0.0,0.0,0.0,0.0,0.0,0.0,0.0,0.0,0.0,0.0,0.0,0.0,0.0,0.0,0.0,0.0,0.0,0.0,0.0,0.0,0.0,0.0,0.0,0.0,0.0,0.0,0.0,0.0,0.0,0.0,0.0,0.0,0.0,0.0,0.0,0.0,0.0,0.0,0.0,0.0,0.0,0.0,0.0,0.0,0.0,0.0,0.0,0.0,0.0,0.0,0.0,0.0,0.0,0.0,0.0,0.0,0.0,0.0,0.0,0.0,0.0,0.0,0.0,0.0,0.0,0.0,0.0,0.0,0.0,0.0,0.0,0.0,0.0,0.0,0.0,0.0,0.0,0.0,0.0,0.0,0.0,0.0,0.0,0.0,0.0,0.0,0.0,0.0,0.0,0.0,0.0,0.0,0.0,0.0,0.0,0.0,0.0,0.0,0.0,0.0,0.0,0.0,0.0,0.0,0.0,0.0,0.0,0.0,0.0,0.0,0.0,0.0,0.0,0.0,0.0,0.0,0.0,0.0,0.0,0.0,0.0,0.0,0.0,0.0,0.0,0.0,0.0,0.0,0.0,0.0,0.0,0.0,0.0,0.0,0.0,0.0,0.0,0.0,0.0,0.0,0.0,0.0,0.0,0.0,0.0,0.0,0.0,0.0,0.0,0.0,0.0,0.0,0.0,0.0,0.0,0.0,0.0,0.0,0.0,0.0,0.0,0.0,0.0,0.0,0.0,0.0,0.0,0.0,0.0,0.0,0.0,0.0,0.0,0.0,0.0,0.0,0.0,0.0,0.0,0.0,0.0,0.0,0.0,0.0,0.0,0.0,0.0,0.0,0.0,0.0,0.0,0.0,0.0,0.0,0.0,0.0,0.0,0.0,0.0,0.0,0.0,0.0,0.0,0.0,0.0,0.0,0.0,0.0,0.0,0.0,0.0,0.0,0.0,0.0,0.0,0.0,0.0,0.0,0.0,0.0,0.0,0.0,0.0,0.0,0.0,0.0,0.0,0.0,0.0,0.0,0.0,0.0,0.0,0.0,0.0,0.0,0.0,0.0,0.0,0.0,0.0,0.0,0.0,0.0,0.0,0.0,0.0,0.0,0.0,0.0,0.0,0.0,0.0,0.0,0.0,0.0,0.0,0.0,0.0,0.0,0.0,0.0,0.0,0.0,0.0,0.0,0.0,0.0,0.0,0.0,0.0,0.0,0.0,0.0,0.0,0.0,0.0,0.0,0.0,0.0,0.0,0.0,0.0,0.0,0.0,0.0,0.0,0.0,0.0,0.0,0.0,0.0,0.0,0.0,0.0,0.0,0.0,0.0,0.0,0.0,0.0,0.0,0.0,0.0,0.0,0.0,0.0,0.0,0.0,0.0,0.0,0.0,0.0,0.0,0.0,0.0,0.0,0.0,0.0,0.0,0.0,0.0,0.0,0.0,0.0,0.0,0.0,0.0,0.0,0.0,0.0,0.0,0.0,0.0,0.0,0.0,0.0,0.0,0.0,0.0,0.0,0.0,0.0,0.0,0.0,0.0,0.0,0.0,0.0,0.0,0.0,0.0,0.0,0.0,0.0,0.0,0.0,0.0,0.0,0.0,0.0,0.0,0.0,0.0,0.0,0.0,0.0,0.0,0.0,0.0,0.0,0.0,0.0,0.0,0.0,0.0,0.0,0.0,0.0,0.0,0.0,0.0,0.0,0.0,0.0,0.0,0.0,0.0,0.0,0.0,0.0,0.0,0.0,0.0,0.0,0.0,0.0,0.0,0.0,0.0,0.0,0.0,0.0,0.0,0.0,0.0,0.0,0.0,0.0,0.0,0.0,0.0,0.0,0.0,0.0,0.0,0.0,0.0,0.0,0.0,0.0,0.0,0.0,0.0,0.0,0.0,0.0,0.0,0.0,0.0,0.0,0.0,0.0,0.0,0.0,0.0,0.0,0.0,0.0,0.0,0.0,0.0,0.0,0.0,0.0,0.0,0.0,0.0,0.0,0.0,0.0,0.0,0.0,0.0,0.0,0.0,0.0,0.0,0.0,0.0,0.0,0.0,0.0,0.0,0.0,0.0,0.0,0.0,0.0,0.0,0.0,0.0,0.0,0.0,0.0,0.0,0.0,0.0,0.0,0.0,0.0,0.0,0.0,0.0,0.0,0.0,0.0,0.0,0.0,0.0,0.0,0.0,0.0,0.0,0.0,0.0,0.0,0.0,0.0,0.0,0.0,0.0,0.0,0.0,0.0,0.0,0.0,0.0,0.0,0.0,0.0,0.0,0.0,0.0,0.0,0.0,0.0,0.0,0.0,0.0,0.0,0.0,0.0,0.0,0.0,0.0,0.0,0.0,0.0,0.0,0.0,0.0,0.0,0.0,0.0,0.0,0.0,0.0,0.0,0.0,0.0,0.0,0.0,0.0,0.0,0.0,0.0,0.0,0.0,0.0,0.0,0.0,0.0,0.0,0.0,0.0,0.0,0.0,0.0,0.0,0.0,0.0,0.0,0.0,0.0,0.0,0.0,0.0,0.0,0.0,0.0,0.0,0.0,0.0,0.0,0.0,0.0,0.0,0.0,0.0,0.0,0.0,0.0,0.0,0.0,0.0,0.0,0.0,0.0,0.0,0.0,0.0,0.0,0.0,0.0,0.0,0.0,0.0,0.0,0.0,0.0,0.0,0.0,0.0,0.0,0.0,0.0,0.0,0.0,0.0,0.0,0.0,0.0,0.0,0.0,0.0,0.0,0.0,0.0,0.0,0.0,0.0,0.0,0.0,0.0,0.0,0.0,0.0,0.0,0.0,0.0,0.0,0.0,0.0,0.0,0.0,0.0,0.0,0.0,0.0,0.0,0.0,0.0,0.0,0.0,0.0,0.0,0.0,0.0,0.0,0.0,0.0,0.0,0.0,0.0,0.0,0.0,0.0,0.0,0.0,0.0,0.0,0.0,0.0,0.0,0.0,0.0,0.0,0.0,0.0,0.0,0.0,0.0,0.0,0.0,0.0,0.0,0.0,0.0,0.0,0.0,0.0,0.0,0.0,0.0,0.0,0.0,0.0,0.0,0.0,0.0,0.0,0.0,0.0,0.0,0.0,0.0,0.0,0.0,0.0,0.0,0.0,0.0,0.0,0.0,0.0,0.0,0.0,0.0,0.0,0.0,0.0,0.0,0.0,0.0,0.0,0.0,0.0,0.0,0.0,0.0,0.0,0.0,0.0,0.0,0.0,0.0,0.0,0.0,0.0,0.0,0.0,0.0,0.0,0.0,0.0,0.0,0.0,0.0,0.0,0.0,0.0,0.0,0.0,1.4513,0.0,0.0,0.0,0.0,0.0,0.0,0.0,0.0,0.0,0.0,0.0,0.0,0.0,0.0,0.0,0.0,0.0,0.0,0.0,0.0,0.0,0.0,0.0,0.0,0.0,0.0,0.0,0.0,0.0,0.0,0.0,0.0,0.0,0.0,0.0,0.0,0.0,0.0,0.0,0.0,0.0,0.0,0.0,0.0,0.0,0.0,0.0,0.0,0.0,0.0,0.0,0.0,0.0,0.0,0.0,0.0,0.0,0.0,0.0,0.0,0.0,0.0,0.0,0.0,0.0,0.0,0.0,0.0,0.0,0.0,0.0,0.0,0.0,0.0,0.0,0.0,0.0,0.0,0.0,0.0,0.0,0.0,0.0,0.0,0.0,0.0,0.0,0.0,0.0,0.0,0.0,0.0,0.0,0.0,0.0,0.0,0.0,0.0,0.0,0.0,0.0,0.0,0.0,0.0,0.0,0.0,0.0,0.0,0.0,0.0,1.3901,1.388,1.4284,1.4488,1.4488,0.0,0.0,0.0,0.0,0.0,0.0,0.0,0.0,0.0,0.0,0.0,0.0,0.0,0.0,0.0,0.0,0.0,0.0,0.0,0.0,0.0,0.0,0.0,0.0,0.0,0.0,0.0,0.0,0.0,0.0,0.0,0.0,0.0,0.0,0.0,0.0,0.0,0.0,0.0,0.0,0.0,0.0,0.0,0.0,0.0,0.0,0.0,0.0,0.0,0.0,0.0,0.0,0.0,0.0,0.0,0.0,0.0,0.0,0.0,0.0,0.0,0.0,0.0,0.0,0.0,0.0,0.0,0.0,0.0,0.0,0.0,0.0,0.0,0.0,0.0,0.0,0.0,0.0,0.0,0.0,0.0,0.0,0.0,0.0,0.0,0.0,0.0,0.0,0.0,0.0,0.0,0.0,0.0,0.0,0.0,0.0,0.0,0.0,0.0,0.0,0.0,0.0,0.0,0.0,0.0,0.0,0.0,0.0,0.0,0.0,0.0,0.0,1.423,1.4356,1.4294,0.0,0.0,0.0,0.0,0.0,0.0,0.0,0.0,0.0,0.0,0.0,0.0,0.0,0.0,0.0,0.0,0.0,0.0,0.0,0.0,0.0,0.0,0.0,0.0,0.0,0.0,0.0,0.0,0.0,0.0,0.0,0.0,0.0,0.0,0.0,0.0,0.0,0.0,0.0,0.0,0.0,0.0,0.0,0.0,0.0,0.0,0.0,0.0,0.0,0.0,0.0,0.0,0.0,0.0,0.0,0.0,0.0,0.0,0.0,0.0,0.0,0.0,0.0,0.0,0.0,0.0,0.0,0.0,0.0,0.0,0.0,0.0,0.0,0.0,0.0,0.0,0.0,0.0,0.0,0.0,0.0,0.0,0.0,0.0,0.0,0.0,0.0,0.0,0.0,0.0,0.0,0.0,0.0,0.0,0.0,0.0,0.0,0.0,0.0,0.0,0.0,0.0,0.0,0.0,0.0,0.0,0.0,0.0,0.0,0.0,1.4446,1.444,1.4191,0.0,1.3708,0.0,0.0,0.0,0.0,0.0,0.0,0.0,0.0,0.0,0.0,0.0,0.0,0.0,0.0,0.0,0.0,0.0,0.0,0.0,0.0,0.0,0.0,0.0,0.0,0.0,0.0,0.0,0.0,0.0,0.0,0.0,0.0,0.0,0.0,0.0,0.0,0.0,0.0,0.0,0.0,0.0,0.0,0.0,0.0,0.0,0.0,0.0,0.0,0.0,0.0,0.0,0.0,0.0,0.0,0.0,0.0,0.0,0.0,0.0,0.0,0.0,0.0,0.0,0.0,0.0,0.0,0.0,0.0,0.0,0.0,0.0,0.0,0.0,0.0,0.0,0.0,0.0,0.0,0.0,0.0,0.0,0.0,0.0,0.0,0.0,0.0,0.0,0.0,0.0,0.0,0.0,0.0,0.0,0.0,0.0,0.0,0.0,0.0,0.0,0.0,0.0,0.0,0.0,0.0,0.0,0.0,0.0,0.0,0.0,0.0,1.4511,1.5133,1.4672,1.4281,0.0,0.0,0.0,0.0,0.0,0.0,0.0,0.0,0.0,0.0,0.0,0.0,0.0,0.0,0.0,0.0,0.0,0.0,0.0,0.0,0.0,0.0,0.0,0.0,0.0,0.0,0.0,0.0,0.0,0.0,0.0,0.0,0.0,0.0,0.0,0.0,0.0,0.0,0.0,0.0,0.0,0.0,0.0,0.0,0.0,0.0,0.0,0.0,0.0,0.0,0.0,0.0,0.0,0.0,0.0,0.0,0.0,0.0,0.0,0.0,0.0,0.0,0.0,0.0,0.0,0.0,0.0,0.0,0.0,0.0,0.0,0.0,0.0,0.0,0.0,0.0,0.0,0.0,0.0,0.0,0.0,0.0,0.0,0.0,0.0,0.0,0.0,0.0,0.0,0.0,0.0,0.0,0.0,0.0,0.0,0.0,0.0,0.0,0.0,0.0,0.0,0.0,0.0,0.0,0.0,0.0,0.0,0.0,0.0,0.0,1.439,1.4531,1.5212,1.5092,1.4637,1.3924,0.0,0.0,0.0,0.0,0.0,0.0,0.0,0.0,0.0,0.0,0.0,0.0,0.0,0.0,0.0,0.0,0.0,0.0,0.0,0.0,0.0,0.0,0.0,0.0,0.0,0.0,0.0,0.0,0.0,0.0,0.0,0.0,0.0,0.0,0.0,0.0,0.0,0.0,0.0,0.0,0.0,0.0,0.0,0.0,0.0,0.0,0.0,0.0,0.0,0.0,0.0,0.0,0.0,0.0,0.0,0.0,0.0,0.0,0.0,0.0,0.0,0.0,0.0,0.0,0.0,0.0,0.0,0.0,0.0,0.0,0.0,0.0,0.0,0.0,0.0,0.0,0.0,0.0,0.0,0.0,0.0,0.0,0.0,0.0,0.0,0.0,0.0,0.0,0.0,0.0,0.0,0.0,0.0,0.0,0.0,0.0,0.0,0.0,0.0,0.0,0.0,0.0,0.0,0.0,0.0,0.0,0.0,0.0,1.5324,1.4934,1.4631,1.4519,1.5238,1.4873,0.0,0.0,0.0,0.0,0.0,0.0,0.0,0.0,0.0,0.0,0.0,0.0,0.0,0.0,0.0,0.0,0.0,0.0,0.0,0.0,0.0,0.0,0.0,0.0,0.0,0.0,0.0,0.0,0.0,0.0,0.0,0.0,0.0,0.0,0.0,0.0,0.0,0.0,0.0,0.0,0.0,0.0,0.0,0.0,0.0,0.0,0.0,0.0,0.0,0.0,0.0,0.0,0.0,0.0,0.0,0.0,0.0,0.0,0.0,0.0,0.0,0.0,0.0,0.0,0.0,0.0,0.0,0.0,0.0,0.0,0.0,0.0,0.0,0.0,0.0,0.0,0.0,0.0,0.0,0.0,0.0,0.0,0.0,0.0,0.0,0.0,0.0,0.0,0.0,0.0,0.0,0.0,0.0,0.0,0.0,0.0,0.0,0.0,0.0,0.0,0.0,0.0,0.0,0.0,0.0,0.0,0.0,0.0,0.0,1.5857,1.67,1.6571,1.5424,1.5476,1.4721,0.0,0.0,0.0,0.0,0.0,0.0,0.0,0.0,0.0,0.0,0.0,0.0,0.0,0.0,0.0,0.0,0.0,0.0,0.0,0.0,0.0,0.0,0.0,0.0,0.0,0.0,0.0,0.0,0.0,0.0,0.0,0.0,0.0,0.0,0.0,0.0,0.0,0.0,0.0,0.0,0.0,0.0,0.0,0.0,0.0,0.0,0.0,0.0,0.0,0.0,0.0,0.0,0.0,0.0,0.0,0.0,0.0,0.0,0.0,0.0,0.0,0.0,0.0,0.0,0.0,0.0,0.0,0.0,0.0,0.0,0.0,0.0,0.0,0.0,0.0,0.0,0.0,0.0,0.0,0.0,0.0,0.0,0.0,0.0,0.0,0.0,0.0,0.0,0.0,0.0,0.0,0.0,0.0,0.0,0.0,0.0,0.0,0.0,0.0,0.0,0.0,0.0,0.0,0.0,0.0,0.0,0.0,0.0,0.0,1.5763,0.0,1.705,1.5718,1.5717,1.4908,0.0,0.0,0.0,0.0,0.0,0.0,0.0,0.0,0.0,0.0,0.0,0.0,0.0,0.0,0.0,0.0,0.0,0.0,0.0,0.0,0.0,0.0,0.0,0.0,0.0,0.0,0.0,0.0,0.0,0.0,0.0,0.0,0.0,0.0,0.0,0.0,0.0,0.0,0.0,0.0,0.0,0.0,0.0,0.0,0.0,0.0,0.0,0.0,0.0,0.0,0.0,0.0,0.0,0.0,0.0,0.0,0.0,0.0,0.0,0.0,0.0,0.0,0.0,0.0,0.0,0.0,0.0,0.0,0.0,0.0,0.0,0.0,0.0,0.0,0.0,0.0,0.0,0.0,0.0,0.0,0.0,0.0,0.0,0.0,0.0,0.0,0.0,0.0,0.0,0.0,0.0,0.0,0.0,0.0,0.0,0.0,0.0,0.0,0.0,0.0,0.0,0.0,0.0,0.0,0.0,0.0,0.0,0.0,1.547,1.5005,1.5753,1.5905,1.5177,1.5997,1.5437,0.0,0.0,0.0,0.0,0.0,0.0,0.0,0.0,0.0,0.0,0.0,0.0,0.0,0.0,0.0,0.0,0.0,0.0,0.0,0.0,0.0,0.0,0.0,0.0,0.0,0.0,0.0,0.0,0.0,0.0,0.0,0.0,0.0,0.0,0.0,0.0,0.0,0.0,0.0,0.0,0.0,0.0,0.0,0.0,0.0,0.0,0.0,0.0,0.0,0.0,0.0,0.0,0.0,0.0,0.0,0.0,0.0,0.0,0.0,0.0,0.0,0.0,0.0,0.0,0.0,0.0,0.0,0.0,0.0,0.0,0.0,0.0,0.0,0.0,0.0,0.0,0.0,0.0,0.0,0.0,0.0,0.0,0.0,0.0,0.0,0.0,0.0,0.0,0.0,0.0,0.0,0.0,0.0,0.0,0.0,0.0,0.0,0.0,0.0,0.0,0.0,0.0,0.0,0.0,0.0,0.0,0.0,0.0,0.0,1.6078,1.6455,1.6462,1.6081,1.5939,1.5277,0.0,0.0,0.0,0.0,0.0,0.0,0.0,0.0,0.0,0.0,0.0,0.0,0.0,0.0,0.0,0.0,0.0,0.0,0.0,0.0,0.0,0.0,0.0,0.0,0.0,0.0,0.0,0.0,0.0,0.0,0.0,0.0,0.0,0.0,0.0,0.0,0.0,0.0,0.0,0.0,0.0,0.0,0.0,0.0,0.0,0.0,0.0,0.0,0.0,0.0,0.0,0.0,0.0,0.0,0.0,0.0,0.0,0.0,0.0,0.0,0.0,0.0,0.0,0.0,0.0,0.0,0.0,0.0,0.0,0.0,0.0,0.0,0.0,0.0,0.0,0.0,0.0,0.0,0.0,0.0,0.0,0.0,0.0,0.0,0.0,0.0,0.0,0.0,0.0,0.0,0.0,0.0,0.0,0.0,0.0,0.0,0.0,0.0,0.0,0.0,0.0,0.0,0.0,0.0,0.0,0.0,0.0,0.0,0.0,1.6103,1.6226,1.624,1.6215,1.5881,1.5245,1.4226,0.0,0.0,0.0,0.0,0.0,0.0,0.0,0.0,0.0,0.0,0.0,0.0,0.0,0.0,0.0,0.0,0.0,0.0,0.0,0.0,0.0,0.0,0.0,0.0,0.0,0.0,0.0,0.0,0.0,0.0,0.0,0.0,0.0,0.0,0.0,0.0,0.0,0.0,0.0,0.0,0.0,0.0,0.0,0.0,0.0,0.0,0.0,0.0,0.0,0.0,0.0,0.0,0.0,0.0,0.0,0.0,0.0,0.0,0.0,0.0,0.0,0.0,0.0,0.0,0.0,0.0,0.0,0.0,0.0,0.0,0.0,0.0,0.0,0.0,0.0,0.0,0.0,0.0,0.0,0.0,0.0,0.0,0.0,0.0,0.0,0.0,0.0,0.0,0.0,0.0,0.0,0.0,0.0,0.0,0.0,0.0,0.0,0.0,0.0,0.0,0.0,0.0,0.0,0.0,0.0,0.0,0.0,0.0,1.5339,1.526,1.5377,1.5681,1.5794,1.5279,0.0,0.0,0.0,0.0,0.0,0.0,0.0,0.0,0.0,0.0,0.0,0.0,0.0,0.0,0.0,0.0,0.0,0.0,0.0,0.0,0.0,0.0,0.0,0.0,0.0,0.0,0.0,0.0,0.0,0.0,0.0,0.0,0.0,0.0,0.0,0.0,0.0,0.0,0.0,0.0,0.0,0.0,0.0,0.0,0.0,0.0,0.0,0.0,0.0,0.0,0.0,0.0,0.0,0.0,0.0,0.0,0.0,0.0,0.0,0.0,0.0,0.0,0.0,0.0,0.0,0.0,0.0,0.0,0.0,0.0,0.0,0.0,0.0,0.0,0.0,0.0,0.0,0.0,0.0,0.0,0.0,0.0,0.0,0.0,0.0,0.0,0.0,0.0,0.0,0.0,0.0,0.0,0.0,0.0,0.0,0.0,0.0,0.0,0.0,0.0,0.0,0.0,0.0,0.0,0.0,0.0,0.0,0.0,0.0,1.5797,1.5523,1.5401,1.5534,1.5357,1.5031,0.0,0.0,0.0,0.0,0.0,0.0,0.0,0.0,0.0,0.0,0.0,0.0,0.0,0.0,0.0,0.0,0.0,0.0,0.0,0.0,0.0,0.0,0.0,0.0,0.0,0.0,0.0,0.0,0.0,0.0,0.0,0.0,0.0,0.0,0.0,0.0,0.0,0.0,0.0,0.0,0.0,0.0,0.0,0.0,0.0,0.0,0.0,0.0,0.0,0.0,0.0,0.0,0.0,0.0,0.0,0.0,0.0,0.0,0.0,0.0,0.0,0.0,0.0,0.0,0.0,0.0,0.0,0.0,0.0,0.0,0.0,0.0,0.0,0.0,0.0,0.0,0.0,0.0,0.0,0.0,0.0,0.0,0.0,0.0,0.0,0.0,0.0,0.0,0.0,0.0,0.0,0.0,0.0,0.0,0.0,0.0,0.0,0.0,0.0,0.0,0.0,0.0,0.0,0.0,0.0,0.0,0.0,0.0,1.6047,1.6256,1.6188,1.6064,1.5835,1.5487,1.505,0.0,0.0,0.0,0.0,0.0,0.0,0.0,0.0,0.0,0.0,0.0,0.0,0.0,0.0,0.0,0.0,0.0,0.0,0.0,0.0,0.0,0.0,0.0,0.0,0.0,0.0,0.0,0.0,0.0,0.0,0.0,0.0,0.0,0.0,0.0,0.0,0.0,0.0,0.0,0.0,0.0,0.0,0.0,0.0,0.0,0.0,0.0,0.0,0.0,0.0,0.0,0.0,0.0,0.0,0.0,0.0,0.0,0.0,0.0,0.0,0.0,0.0,0.0,0.0,0.0,0.0,0.0,0.0,0.0,0.0,0.0,0.0,0.0,0.0,0.0,0.0,0.0,0.0,0.0,0.0,0.0,0.0,0.0,0.0,0.0,0.0,0.0,0.0,0.0,0.0,0.0,0.0,0.0,0.0,0.0,0.0,0.0,0.0,0.0,0.0,0.0,0.0,0.0,0.0,0.0,0.0,0.0,0.0,1.6313,1.6482,1.6762,1.6708,1.6261,1.5846,1.517,0.0,0.0,0.0,0.0,0.0,0.0,0.0,0.0,0.0,0.0,0.0,0.0,0.0,0.0,0.0,0.0,0.0,0.0,0.0,0.0,0.0,0.0,0.0,0.0,0.0,0.0,0.0,0.0,0.0,0.0,0.0,0.0,0.0,0.0,0.0,0.0,0.0,0.0,0.0,0.0,0.0,0.0,0.0,0.0,0.0,0.0,0.0,0.0,0.0,0.0,0.0,0.0,0.0,0.0,0.0,0.0,0.0,0.0,0.0,0.0,0.0,0.0,0.0,0.0,0.0,0.0,0.0,0.0,0.0,0.0,0.0,0.0,0.0,0.0,0.0,0.0,0.0,0.0,0.0,0.0,0.0,0.0,0.0,0.0,0.0,0.0,0.0,0.0,0.0,0.0,0.0,0.0,0.0,0.0,0.0,0.0,0.0,0.0,0.0,0.0,0.0,0.0,0.0,0.0,0.0,0.0,0.0,0.0,1.5738,1.5732,1.525,1.5261,1.5821,1.5382,1.4824,0.0,0.0,0.0,0.0,0.0,0.0,0.0,0.0,0.0,0.0,0.0,0.0,0.0,0.0,0.0,0.0,0.0,0.0,0.0,0.0,0.0,0.0,0.0,0.0,0.0,0.0,0.0,0.0,0.0,0.0,0.0,0.0,0.0,0.0,0.0,0.0,0.0,0.0,0.0,0.0,0.0,0.0,0.0,0.0,0.0,0.0,0.0,0.0,1.2919,0.0,0.0,0.0,0.0,0.0,0.0,0.0,0.0,0.0,0.0,0.0,0.0,0.0,0.0,0.0,0.0,0.0,0.0,0.0,0.0,0.0,0.0,0.0,0.0,0.0,0.0,0.0,0.0,0.0,0.0,0.0,0.0,0.0,0.0,0.0,0.0,0.0,0.0,0.0,0.0,0.0,0.0,0.0,0.0,0.0,0.0,0.0,0.0,0.0,0.0,0.0,0.0,0.0,0.0,0.0,0.0,0.0,0.0,0.0,1.628,1.606,1.5824,1.5636,1.5481,1.5125,1.4697,0.0,0.0,0.0,0.0,0.0,0.0,0.0,0.0,0.0,0.0,0.0,0.0,0.0,0.0,0.0,0.0,0.0,0.0,0.0,0.0,0.0,0.0,0.0,0.0,0.0,0.0,0.0,0.0,0.0,0.0,0.0,0.0,0.0,0.0,0.0,0.0,0.0,0.0,0.0,0.0,0.0,0.0,0.0,0.0,0.0,0.0,0.0,0.0,0.0,0.0,0.0,0.0,0.0,0.0,0.0,0.0,0.0,0.0,0.0,0.0,0.0,0.0,0.0,0.0,0.0,0.0,0.0,0.0,0.0,0.0,0.0,0.0,0.0,0.0,0.0,0.0,0.0,0.0,0.0,0.0,0.0,0.0,0.0,0.0,0.0,0.0,0.0,0.0,0.0,0.0,0.0,0.0,0.0,0.0,0.0,0.0,0.0,0.0,0.0,0.0,0.0,0.0,0.0,0.0,0.0,0.0,0.0,1.6802,1.6864,1.6529,1.6713,1.6245,1.5036,1.4724,1.4406,1.4071,0.0,0.0,0.0,0.0,0.0,0.0,0.0,0.0,0.0,0.0,0.0,0.0,0.0,0.0,0.0,0.0,0.0,0.0,0.0,0.0,0.0,0.0,0.0,0.0,0.0,0.0,0.0,0.0,0.0,0.0,0.0,0.0,0.0,0.0,0.0,0.0,0.0,0.0,1.2379,1.2844,0.0,0.0,0.0,0.0,0.0,0.0,0.0,0.0,1.3546,0.0,0.0,0.0,0.0,0.0,0.0,0.0,0.0,0.0,0.0,0.0,0.0,0.0,0.0,0.0,0.0,0.0,0.0,0.0,0.0,0.0,0.0,0.0,0.0,0.0,0.0,0.0,0.0,0.0,0.0,0.0,0.0,0.0,0.0,0.0,0.0,0.0,0.0,0.0,0.0,0.0,0.0,0.0,0.0,0.0,0.0,0.0,0.0,0.0,0.0,0.0,0.0,0.0,0.0,0.0,0.0,1.7001,1.6323,1.5824,1.554,1.5298,1.4844,1.4142,1.3472,1.3244,1.3424,0.0,0.0,0.0,0.0,0.0,0.0,0.0,0.0,0.0,0.0,0.0,0.0,0.0,0.0,0.0,0.0,0.0,0.0,0.0,0.0,0.0,0.0,0.0,0.0,0.0,0.0,0.0,0.0,0.0,0.0,0.0,0.0,0.0,0.0,0.0,0.0,0.0,0.0,0.0,1.3179,1.3645,0.0,0.0,0.0,0.0,0.0,0.0,0.0,0.0,1.4379,0.0,0.0,0.0,0.0,0.0,0.0,0.0,0.0,0.0,0.0,0.0,0.0,0.0,0.0,0.0,0.0,0.0,0.0,0.0,0.0,0.0,0.0,0.0,0.0,0.0,0.0,0.0,0.0,0.0,0.0,0.0,0.0,0.0,0.0,0.0,0.0,0.0,0.0,0.0,0.0,0.0,0.0,0.0,0.0,0.0,0.0,0.0,0.0,0.0,0.0,0.0,0.0,0.0,0.0,0.0,1.6742,1.6416,1.5874,1.5121,1.493,1.4525,1.3872,1.3557,1.3331,0.0,0.0,0.0,0.0,0.0,0.0,0.0,0.0,0.0,0.0,0.0,0.0,0.0,0.0,0.0,0.0,0.0,0.0,0.0,0.0,0.0,0.0,0.0,0.0,0.0,0.0,0.0,0.0,0.0,0.0,0.0,0.0,0.0,0.0,0.0,0.0,0.0,0.0,0.0,0.0,1.3093,1.3498,1.3616,0.0,0.0,0.0,0.0,0.0,0.0,1.3888,1.418,0.0,0.0,0.0,0.0,0.0,0.0,0.0,0.0,0.0,0.0,0.0,0.0,0.0,0.0,0.0,0.0,0.0,0.0,0.0,0.0,0.0,0.0,0.0,0.0,0.0,0.0,0.0,0.0,0.0,0.0,0.0,0.0,0.0,0.0,0.0,0.0,0.0,0.0,0.0,0.0,0.0,0.0,0.0,0.0,0.0,0.0,0.0,0.0,0.0,0.0,0.0,0.0,0.0,0.0,0.0,1.6494,1.6605,1.6162,1.5144,1.5147,1.4817,1.4092,1.402,1.377,0.0,0.0,0.0,0.0,0.0,0.0,0.0,0.0,0.0,0.0,0.0,0.0,0.0,0.0,0.0,0.0,0.0,0.0,0.0,0.0,0.0,0.0,0.0,0.0,0.0,0.0,0.0,0.0,0.0,0.0,0.0,0.0,0.0,0.0,0.0,0.0,0.0,0.0,0.0,0.0,0.0,1.354,1.3474,1.406,0.0,0.0,0.0,0.0,1.3698,1.3948,0.0,0.0,0.0,0.0,0.0,0.0,0.0,0.0,0.0,0.0,0.0,0.0,0.0,0.0,0.0,0.0,0.0,0.0,0.0,0.0,0.0,0.0,0.0,0.0,0.0,0.0,0.0,0.0,0.0,0.0,0.0,0.0,0.0,0.0,0.0,0.0,0.0,0.0,0.0,0.0,0.0,0.0,0.0,0.0,0.0,0.0,0.0,0.0,0.0,0.0,0.0,0.0,0.0,0.0,0.0,0.0,1.6733,1.6618,1.6246,1.5741,1.5929,1.5697,1.4971,1.4343,1.4051,0.0,0.0,0.0,0.0,0.0,0.0,0.0,0.0,0.0,0.0,0.0,0.0,0.0,0.0,0.0,0.0,0.0,0.0,0.0,0.0,0.0,0.0,0.0,0.0,0.0,0.0,0.0,0.0,0.0,0.0,0.0,0.0,0.0,0.0,0.0,0.0,0.0,0.0,0.0,0.0,0.0,1.4411,1.4069,1.4099,1.4226,0.0,0.0,1.4362,1.488,1.4786,0.0,0.0,0.0,0.0,0.0,0.0,0.0,0.0,0.0,0.0,0.0,0.0,0.0,0.0,0.0,0.0,0.0,0.0,0.0,0.0,0.0,0.0,0.0,0.0,0.0,0.0,0.0,0.0,0.0,0.0,0.0,0.0,0.0,0.0,0.0,0.0,0.0,0.0,0.0,0.0,0.0,0.0,0.0,0.0,0.0,0.0,0.0,0.0,0.0,0.0,0.0,0.0,0.0,0.0,0.0,1.6645,1.7481,1.6911,1.634,1.5812,1.5721,1.5391,1.4774,1.4407,1.4336,0.0,0.0,0.0,0.0,0.0,0.0,0.0,0.0,0.0,0.0,0.0,0.0,0.0,0.0,0.0,0.0,0.0,0.0,0.0,0.0,0.0,0.0,0.0,0.0,0.0,0.0,0.0,0.0,0.0,0.0,0.0,0.0,0.0,0.0,0.0,0.0,0.0,0.0,0.0,0.0,0.0,0.0,1.4469,1.4598,0.0,0.0,0.0,1.4778,1.4898,0.0,0.0,0.0,0.0,0.0,0.0,0.0,0.0,0.0,0.0,0.0,0.0,0.0,0.0,0.0,0.0,0.0,0.0,0.0,0.0,0.0,0.0,0.0,0.0,0.0,0.0,0.0,0.0,0.0,0.0,0.0,0.0,0.0,0.0,0.0,0.0,0.0,0.0,0.0,0.0,0.0,0.0,0.0,0.0,0.0,0.0,0.0,0.0,0.0,0.0,0.0,0.0,0.0,0.0,0.0,0.0,0.0,1.7867,1.7207,1.655,1.5906,1.5656,1.5298,1.4824,1.4621,0.0,0.0,0.0,0.0,0.0,0.0,0.0,0.0,0.0,0.0,0.0,0.0,0.0,0.0,0.0,0.0,0.0,0.0,0.0,0.0,0.0,0.0,0.0,0.0,0.0,0.0,0.0,1.0716,0.0,0.0,0.0,0.0,0.0,0.0,0.0,0.0,0.0,0.0,0.0,0.0,0.0,0.0,1.4923,1.4846,1.5129,1.5249,0.0,0.0,1.5018,1.4846,1.4752,1.453,0.0,0.0,0.0,0.0,0.0,0.0,0.0,0.0,0.0,0.0,0.0,0.0,0.0,0.0,0.0,0.0,0.0,0.0,0.0,0.0,0.0,0.0,0.0,0.0,0.0,0.0,0.0,0.0,0.0,0.0,0.0,0.0,0.0,0.0,0.0,0.0,0.0,0.0,0.0,0.0,0.0,0.0,0.0,0.0,0.0,0.0,0.0,0.0,0.0,0.0,0.0,0.0,0.0,0.0,1.6777,1.7316,1.7295,1.6909,1.6195,1.6155,1.5985,1.5613,1.5056,1.493,0.0,0.0,0.0,0.0,0.0,0.0,0.0,0.0,0.0,0.0,0.0,0.0,0.0,0.0,0.0,0.0,0.0,0.0,0.0,0.0,0.0,0.0,0.0,0.0,0.0,0.0,0.0,0.0,0.0,0.0,0.0,0.0,0.0,0.0,0.0,0.0,0.0,0.0,0.0,0.0,0.0,1.56,1.5206,1.5497,1.5754,0.0,1.5172,1.4821,1.5129,1.4914,1.4547,1.4146,0.0,0.0,0.0,0.0,0.0,0.0,0.0,0.0,0.0,0.0,0.0,0.0,0.0,0.0,0.0,0.0,0.0,0.0,0.0,0.0,0.0,0.0,0.0,0.0,0.0,0.0,0.0,0.0,0.0,0.0,0.0,0.0,0.0,0.0,0.0,0.0,0.0,0.0,0.0,0.0,0.0,0.0,0.0,0.0,0.0,0.0,0.0,0.0,0.0,0.0,0.0,0.0,0.0,1.6765,1.7294,1.7304,1.6933,1.6239,1.6207,1.606,1.5708,1.5116,1.5,0.0,0.0,0.0,0.0,0.0,0.0,0.0,0.0,0.0,0.0,0.0,0.0,0.0,0.0,0.0,0.0,0.0,0.0,0.0,0.0,0.0,0.0,0.0,0.0,0.0,0.0,0.0,0.0,1.0948,1.0976,1.1272,0.0,0.0,0.0,0.0,0.0,0.0,0.0,0.0,0.0,0.0,1.589,1.6207,1.6199,0.0,0.0,1.5891,1.5626,1.5249,1.5086,1.4881,1.4512,1.4272,0.0,0.0,0.0,0.0,0.0,0.0,0.0,0.0,0.0,0.0,0.0,0.0,0.0,0.0,0.0,0.0,0.0,0.0,0.0,0.0,0.0,0.0,0.0,0.0,0.0,0.0,0.0,0.0,0.0,0.0,0.0,0.0,0.0,0.0,0.0,0.0,0.0,0.0,0.0,0.0,0.0,0.0,0.0,0.0,0.0,0.0,0.0,0.0,0.0,0.0,0.0,0.0,1.6898,1.73,1.743,1.7142,1.641,1.6263,1.5967,1.547,1.5207,1.5125,0.0,0.0,0.0,0.0,0.0,0.0,0.0,0.0,0.0,0.0,0.0,0.0,0.0,0.0,0.0,0.0,0.0,0.0,0.0,0.0,0.0,0.0,0.0,0.0,0.0,0.0,0.0,0.0,1.0924,1.1099,1.1226,0.0,0.0,0.0,0.0,0.0,0.0,0.0,0.0,0.0,0.0,1.6267,1.666,1.6619,1.6492,1.6353,1.6166,1.5883,1.5437,1.5386,1.5274,1.4906,0.0,0.0,0.0,0.0,0.0,0.0,0.0,0.0,0.0,0.0,0.0,0.0,0.0,0.0,0.0,0.0,0.0,0.0,0.0,0.0,0.0,0.0,0.0,0.0,0.0,0.0,0.0,1.6487,0.0,0.0,1.6537,0.0,0.0,0.0,0.0,0.0,0.0,0.0,0.0,0.0,0.0,0.0,0.0,0.0,0.0,0.0,0.0,0.0,0.0,0.0,0.0,0.0,0.0,1.7173,1.7303,1.7743,1.7605,1.6886,1.6445,1.581,1.5028,1.5413,1.5352,1.4648,0.0,0.0,0.0,0.0,0.0,0.0,0.0,0.0,0.0,0.0,0.0,0.0,0.0,0.0,0.0,0.0,0.0,0.0,0.0,0.0,0.0,0.0,0.0,0.0,0.0,0.0,1.081,1.0861,1.0989,0.0,0.0,0.0,0.0,0.0,0.0,0.0,0.0,0.0,1.6253,1.6661,1.6745,1.6394,1.666,1.6798,1.6467,1.5789,1.5386,1.5754,1.5797,1.566,0.0,0.0,0.0,0.0,0.0,0.0,0.0,0.0,0.0,0.0,0.0,0.0,0.0,0.0,0.0,0.0,0.0,0.0,0.0,0.0,0.0,0.0,0.0,0.0,0.0,0.0,0.0,1.8836,1.8591,0.0,0.0,0.0,0.0,0.0,0.0,0.0,0.0,0.0,0.0,0.0,1.7712,1.8214,0.0,0.0,0.0,0.0,0.0,0.0,0.0,0.0,0.0,0.0,0.0,0.0,1.7663,1.7814,1.7854,1.7611,1.7107,1.6636,1.6306,1.6108,1.5966,1.5437,1.4499,0.0,0.0,0.0,0.0,0.0,0.0,0.0,0.0,0.0,0.0,0.0,0.0,0.0,0.0,0.0,0.0,0.0,0.0,0.0,0.0,0.0,0.0,0.0,0.0,0.0,1.0501,0.0,0.0,0.0,0.0,0.0,0.0,0.0,0.0,0.0,0.0,1.567,1.6174,1.667,1.7047,1.7329,1.743,1.7538,1.7507,0.0,0.0,0.0,0.0,0.0,0.0,0.0,0.0,0.0,0.0,0.0,0.0,0.0,0.0,1.8661,1.7173,1.6546,1.6323,1.6424,0.0,0.0,0.0,0.0,0.0,0.0,0.0,0.0,0.0,0.0,0.0,0.0,0.0,0.0,1.9815,1.9788,1.9342,0.0,0.0,0.0,0.0,0.0,0.0,0.0,0.0,1.8886,1.8996,1.9018,1.9541,1.9542,0.0,1.8999,1.8469,0.0,0.0,0.0,0.0,0.0,0.0,0.0,0.0,1.8105,1.8163,1.8289,1.8046,1.7451,1.7027,1.6605,1.6186,1.5843,1.5467,1.497,1.4415,1.4096,0.0,0.0,0.0,0.0,0.0,0.0,0.0,0.0,0.0,0.0,0.0,0.0,0.0,0.0,0.0,0.0,0.0,0.0,0.0,0.0,0.0,0.0,0.0,1.0425,0.0,0.0,0.0,0.0,0.0,0.0,0.0,0.0,0.0,1.5778,1.6372,1.7016,1.762,1.768,1.78,1.8157,0.0,0.0,0.0,0.0,0.0,0.0,0.0,1.774,1.7863,1.7803,1.7897,1.8348,1.9059,1.9492,1.9234,0.0,0.0,1.8357,1.7877,1.7749,1.7857,1.7766,1.7695,1.7684,1.7794,1.7865,0.0,0.0,0.0,0.0,1.924,0.0,0.0,0.0,2.0259,2.0393,0.0,2.0187,0.0,0.0,0.0,0.0,1.9762,2.0321,0.0,0.0,2.1171,2.1018,2.0062,2.0739,2.088,2.047,2.0736,2.0484,1.9765,1.8652,0.0,0.0,0.0,0.0,0.0,0.0,1.8561,1.8419,1.904,1.8913,1.7991,1.7627,1.677,1.5411,1.5204,1.5426,1.5946,1.5703,1.537,1.4953,1.4899,0.0,0.0,0.0,0.0,0.0,0.0,0.0,0.0,0.0,0.0,0.0,0.0,0.0,0.0,0.0,0.0,0.0,0.0,0.0,0.0,1.0343,0.0,0.0,0.0,0.0,0.0,0.0,0.0,0.0,0.0,1.7339,1.65,1.7063,1.7949,1.9029,0.0,0.0,0.0,0.0,1.8199,1.8566,1.8302,1.8225,1.8583,1.8934,1.9054,1.872,0.0,0.0,1.9367,1.9826,2.0043,1.9372,1.9843,2.0292,2.024,1.9637,1.929,1.9585,1.9097,1.8823,1.9123,1.9166,1.917,2.167,0.0,0.0,0.0,0.0,2.1202,2.1766,2.2729,2.1926,2.1886,2.2275,2.1655,0.0,0.0,0.0,0.0,0.0,0.0,2.0694,2.0908,2.104,2.1129,2.1201,2.1509,2.1595,2.1473,2.1199,2.0896,2.0576,1.9958,1.9219,1.838,0.0,0.0,0.0,0.0,1.9915,1.9599,1.9599,1.9404,1.8983,1.8453,1.7837,1.7055,1.616,1.5794,1.6052,1.5586,1.5352,1.5379,1.4994,0.0,0.0,0.0,0.0,0.0,0.0,0.0,0.0,0.0,0.0,0.0,0.0,0.0,0.0,0.0,0.0,0.0,0.0,0.0,1.0095,1.0186,1.0811,0.0,0.0,0.0,0.0,0.0,0.0,0.0,0.0,0.0,1.7671,1.8104,1.8613,0.0,0.0,1.8676,1.8969,1.9123,1.9153,1.9046,1.9389,0.0,1.9384,1.9273,1.9337,1.9735,2.0078,2.0215,2.0009,2.0169,2.0223,2.0023,2.0146,2.0292,2.0275,2.0129,2.0009,2.0095,1.9949,1.9838,1.9941,1.9997,1.998,2.3566,2.2976,2.2256,2.2297,2.288,2.285,2.3148,2.3636,2.3057,2.303,2.3366,2.2844,2.2324,2.1839,2.184,0.0,0.0,0.0,2.2444,2.2708,2.24,2.2195,2.2065,2.2235,2.2201,2.2003,2.1818,2.1727,2.1727,2.1547,2.0968,2.0005,0.0,1.9369,1.8633,1.9639,1.9874,1.9321,1.9288,1.9208,1.9026,1.8492,1.8056,1.7675,1.6875,1.645,1.6455,1.6237,1.6073,1.6003,1.5646,1.5261,0.0,0.0,0.0,0.0,0.0,0.0,0.0,0.0,0.0,0.0,0.0,1.5299,1.4403,0.0,0.0,0.0,1.1237,1.0656,1.0763,1.136,0.0,0.0,0.0,0.0,0.0,0.0,0.0,1.78,1.8139,1.8387,1.8646,1.9009,1.9294,1.9462,1.9077,1.8972,1.9484,0.0,1.9457,1.9325,1.9643,1.9769,1.9555,1.9431,1.9629,2.0198,2.0292,2.0292,2.0292,2.0292,2.0292,2.0292,2.0292,2.0292,2.0292,2.0292,2.0292,2.0292,2.0292,2.0292,2.0292,2.0292,2.0292,2.499,2.5508,2.4641,2.4163,2.4051,2.4718,2.4339,2.3285,2.3756,2.3956,2.3886,2.3872,2.3564,2.3098,2.3259,0.0,2.5381,2.5197,2.5138,2.5204,2.4637,2.3791,2.2787,2.2946,2.2788,2.2359,2.2679,2.2914,2.3019,2.3134,2.3034,2.2669,2.1246,1.9963,1.8976,1.9397,1.9175,1.8284,1.8707,1.8816,1.8607,1.8159,1.7835,1.7637,1.7442,1.7263,1.7104,1.7356,1.7255,1.6714,1.6649,1.6105,1.4948,0.0,0.0,0.0,0.0,0.0,0.0,0.0,0.0,0.0,0.0,0.0,0.0,0.0,0.0,1.2839,1.2104,0.0,1.1927,1.3317,0.0,0.0,0.0,1.572,1.6289,1.676,1.7166,1.7424,0.0,0.0,1.9421,1.9695,1.9874,1.9886,1.9306,1.9138,1.9935,1.9544,1.9277,1.944,1.932,1.9209,1.9252,1.9487,1.9768,2.0146,2.0275,2.0292,2.0292,2.0292,2.0292,2.0292,2.0292,2.0292,2.0292,2.0292,2.0292,2.0292,2.0292,2.0292,2.0292,2.0314,2.036,2.5855,2.6441,2.602,2.5737,2.5512,2.5254,2.5185,2.5166,2.4881,2.4975,2.5379,2.5263,2.5307,2.5483,2.5513,2.572,2.6077,2.6166,2.5961,2.5506,2.5156,2.4642,2.4055,2.4218,2.3989,2.3555,2.3928,2.3892,2.3387,2.3256,2.311,2.291,2.2491,2.1776,2.0823,2.1376,2.1282,2.0455,2.0544,2.0216,1.9452,1.915,1.8901,1.864,1.7959,1.7662,1.7759,1.7681,1.7534,1.7288,1.7138,1.6838,1.6319,1.5537,0.0,0.0,0.0,0.0,0.0,0.0,0.0,0.0,0.0,1.7134,1.5105,0.0,1.5087,0.0,1.2744,1.2398,1.3044,1.336,0.0,0.0,1.5636,1.6236,1.8212,1.8038,1.8241,1.9432,1.9527,1.9569,1.9756,1.9718,1.9677,1.9714,1.9475,1.9346,1.9592,1.9402,1.92,1.926,1.92,1.92,1.9209,1.9474,1.973,1.9811,2.0095,2.0292,2.0292,2.0292,2.0292,2.0292,2.0292,2.0292,2.0292,2.0292,2.0292,2.0292,2.0292,2.0292,2.0292,2.0442,2.06,2.6021,2.6385,2.6232,2.6244,2.6293,2.6095,2.6007,2.5961,2.5861,2.589,2.5974,2.5901,2.6167,2.6614,2.6822,2.7093,2.737,2.6979,2.6733,2.6583,2.5686,2.5284,2.5291,2.5155,2.4813,2.4334,2.5135,2.4991,2.4025,2.4314,2.4224,2.3677,2.3543,2.3035,2.2186,2.1957,2.1422,2.055,2.0683,2.0473,1.9961,2.0021,1.9829,1.9276,1.9112,1.8794,1.8284,1.8369,1.8283,1.7931,1.7796,1.7554,1.7129,1.6683,1.6238,0.0,0.0,0.0,0.0,0.0,0.0,0.0,0.0,0.0,0.0,0.0,1.6179,1.4497,1.402,1.3961,1.4316,1.4755,1.5544,1.6738,1.6915,1.7469,1.8878,1.8736,1.8855,1.9712,1.9708,1.9685,1.986,1.9914,1.9825,1.9651,1.9435,1.932,1.9351,1.9188,1.9009,1.8866,1.8757,1.8733,1.89,1.9085,1.9268,1.9487,1.9773,2.003,2.003,2.0189,2.0292,2.0292,2.0292,2.0292,2.0292,2.0292,2.0292,2.0314,2.0405,2.0428,2.0314,2.0388,2.0432,2.6006,2.6034,2.6118,2.6386,2.6774,2.6975,2.6688,2.614,2.6489,2.6494,2.6271,2.6326,2.6711,2.727,2.76,2.813,2.8714,2.7545,2.7356,2.7878,2.6359,2.598,2.6528,2.6146,2.5693,2.5227,2.6342,2.6175,2.4803,2.5679,2.5581,2.4598,2.4381,2.3948,2.3238,2.2103,2.1,1.9965,2.0244,2.035,2.0262,2.0689,2.0527,1.9826,2.023,1.9965,1.8869,1.9173,1.9104,1.8561,1.8626,1.8414,1.781,1.7978,1.7834,0.0,1.7459,0.0,0.0,0.0,0.0,0.0,0.0,0.0,0.0,1.8354,1.7129,1.526,1.5576,1.5805,1.5618,1.6566,1.7334,1.7644,1.8317,1.8781,1.885,1.905,1.9211,1.9279,1.9509,1.9714,1.9928,2.0155,2.0099,1.9622,1.9367,1.9216,1.9082,1.89,1.8663,1.8377,1.8161,1.8199,1.8459,1.8592,1.8754,1.908,1.9418,1.964,1.9708,1.9987,2.0246,2.0275,2.0292,2.0292,2.0292,2.0337,2.036,2.0374,2.0512,2.0549,2.033,2.0287,2.0175,2.6624,2.6666,2.7214,2.7495,2.7548,2.7382,2.6902,2.6163,2.5869,2.6251,2.7092,2.759,2.8126,2.8646,2.8166,2.8255,2.8737,2.759,2.7588,2.8434,2.7419,2.7248,2.7841,2.7916,2.7627,2.7155,2.7803,2.743,2.6049,2.6074,2.5721,2.4998,2.479,2.4484,2.4048,0.0,0.0,0.0,2.1389,2.1148,2.063,2.08,2.0812,2.0637,1.9727,0.0,1.9853,1.9425,1.9188,1.9239,1.9842,0.0,0.0,0.0,0.0,0.0,0.0,0.0,0.0,0.0,0.0,0.0,1.989,2.0018,2.0035,1.9725,1.8777,1.6964,1.6839,1.6842,1.6647,1.6973,1.7424,1.7934,1.8342,1.8704,1.9073,1.9188,1.9325,1.9723,1.9814,1.9951,2.0178,2.0269,2.009,1.9591,1.9452,1.9186,1.8623,1.8363,1.8166,1.8069,1.8031,1.8017,1.8105,1.8391,1.8592,1.8763,1.9046,1.9367,1.9606,1.9725,1.9953,2.0206,2.0292,2.0283,2.0314,2.0473,2.0609,2.0631,2.0544,2.0391,2.0201,2.0439,2.058,2.7102,2.6821,2.7172,2.713,0.0,2.6673,2.6358,2.5906,2.6186,2.6497,2.6888,2.7245,2.7725,2.8236,2.7774,2.8064,2.8881,2.7394,2.727,2.8247,2.7651,2.7666,2.8252,2.8349,2.8288,2.8053,2.834,2.7779,2.6459,2.6654,2.6173,2.4975,2.4832,2.4613,2.426,2.3654,2.2901,2.1949,2.1855,2.1635,2.131,2.1362,2.1261,2.0998,2.0702,0.0,0.0,0.0,0.0,0.0,0.0,0.0,0.0,0.0,0.0,2.0096,2.0107,1.9996,1.9731,2.0036,2.061,2.1372,2.2361,2.239,2.1153,2.0905,2.0073,1.8273,1.7948,1.799,1.831,1.8532,1.914,2.0186,2.0088,2.0233,2.1038,2.0864,2.07,2.0863,2.0943,2.0817,2.0351,2.0292,2.0028,1.9471,1.9354,1.9086,1.8374,1.8201,1.8152,1.8011,1.8011,1.8011,1.8028,1.8148,1.8314,1.8357,1.8631,1.8922,1.9136,1.9311,1.9559,1.9901,1.9995,2.0083,2.0439,2.0609,2.0722,2.0813,2.0718,2.0489,2.0221,2.0196,2.0147,2.765,2.7158,2.7256,2.6947,2.6385,2.62,2.593,2.569,2.6498,0.0,0.0,2.6763,2.7043,2.7405,2.7256,2.7827,2.8792,2.701,2.6883,2.8176,2.7666,2.7802,2.8481,2.8384,2.8409,2.8495,2.8514,2.7782,2.6473,2.7158,2.6624,2.5028,2.4837,2.4533,2.4071,2.3624,2.31,2.2529,2.2129,2.194,2.1952,2.1973,2.1834,2.1453,2.1904,2.1814,2.1076,2.138,2.1419,2.1048,2.1056,2.1307,2.1843,2.2056,2.2166,2.2115,2.2495,2.2499,2.1896,2.2379,2.2903,2.3351,2.4506,2.4349,2.2302,2.2211,2.1489,1.9748,1.9218,1.9223,1.9813,2.0162,2.0824,2.2042,2.1696,2.1782,2.2599,2.2202,2.1565,2.1701,2.1574,2.136,2.0442,2.0292,2.0074,1.9453,1.9329,1.8999,1.8323,1.8224,1.8213,1.804,1.8011,1.8011,1.8,1.8008,1.8011,1.8054,1.8285,1.8494,1.8634,1.8874,1.9243,1.9665,1.97,1.9995,2.0536,2.0744,2.0826,2.1019,2.0876,2.0645,2.031,1.9873,1.9575,2.8522,2.8493,2.8983,2.8872,2.8265,2.7624,2.6756,2.5782,2.5814,2.6398,2.7441,2.7577,2.7572,2.7482,2.7436,2.7815,2.8279,2.6457,2.6817,2.8867,2.7983,2.8179,2.9182,2.8712,2.8472,2.8504,2.8508,2.7788,2.6619,2.716,2.6714,2.5365,2.4939,2.4382,2.3622,2.3938,2.4008,2.3729,2.2706,2.2166,2.2166,2.2329,2.2515,2.2711,2.227,2.2254,2.2654,2.2468,2.2448,2.2654,2.2772,2.2751,2.2561,2.232,2.198,2.1754,2.2501,2.2915,2.2834,2.3676,2.4377,2.4834,2.5086,2.4709,2.3648,2.3921,2.3567,2.2051,2.1125,2.0589,2.0333,2.0697,2.0833,2.0439,2.1093,2.147,2.1154,2.0931,2.0815,2.0773,2.0555,2.0614,2.0374,2.0292,2.0138,1.9747,1.9542,1.9337,1.8682,1.8257,1.8057,1.8011,1.8011,1.8011,1.8011,1.8011,1.8028,1.8011,1.8068,1.8305,1.8629,1.8729,1.9007,1.958,1.9722,1.9978,2.0567,2.0848,2.1028,2.1226,2.0973,2.0562,2.0446,1.9871,1.9379,2.8984,2.8747,2.8984,2.8759,2.8181,2.7776,2.729,2.6759,2.6373,2.6292,2.6543,2.7042,2.735,2.7492,2.7533,2.8088,2.8931,2.7308,2.7371,2.8684,2.8295,2.8373,2.8823,2.8247,2.8152,2.8464,2.8122,2.7406,2.6526,2.7146,2.6646,2.5123,2.4861,2.4583,2.4213,2.4323,2.4325,2.4145,2.333,2.3103,2.349,2.3663,2.3652,2.3433,2.3478,2.3466,2.3445,2.3273,2.3257,2.3428,2.348,2.371,2.4071,2.3933,2.3943,2.4134,2.4329,2.438,2.4152,2.4592,2.5065,2.5545,2.5588,2.5408,2.4985,2.4451,2.3664,2.2526,2.1912,2.1823,2.2294,2.2689,2.3054,2.3523,2.3735,2.3726,2.3631,2.3333,2.2777,2.1976,2.1879,2.1561,2.0419,2.0292,2.0155,1.9768,1.9576,1.9281,1.8986,1.8789,1.8494,1.8114,1.8011,1.8011,1.802,1.8011,1.8146,1.8457,1.841,1.8556,1.8958,1.9002,1.9157,1.9585,1.9722,2.0023,2.0711,2.0826,2.1051,2.1409,2.1073,2.0692,2.0449,1.985,1.9356,2.932,2.8914,2.89,2.8564,2.7985,2.7739,2.7646,2.7605,2.7139,2.6608,2.6206,2.6748,2.7198,2.7502,2.7694,2.8381,2.9079,2.8065,2.795,2.868,2.8572,2.8572,2.8645,2.7954,2.7921,2.8371,2.7888,2.7164,2.6564,2.7149,2.6573,2.4998,2.4943,2.4877,2.4598,2.4684,2.464,2.4456,2.4036,2.3956,2.4275,2.4641,2.4529,2.4008,2.4534,2.4674,2.4172,2.4143,2.4186,2.4307,2.4234,2.459,2.5433,2.5391,2.5558,2.601,2.5827,2.5574,2.532,2.5323,2.5502,2.5863,2.5895,2.5895,2.5812,2.4914,2.3993,2.3274,2.2894,2.3065,2.3932,2.4419,2.5029,2.5855,2.5624,2.5154,2.5486,2.5193,2.4458,2.3236,2.3022,2.2306,2.1042,2.0428,2.018,1.9893,1.9607,1.944,1.9354,1.9299,1.9007,1.849,1.8208,1.8165,1.8148,1.8157,1.8387,1.8929,1.8912,1.9029,1.9335,1.9388,1.9488,1.9764,1.9876,2.0253,2.0886,2.0983,2.1127,2.1503,2.1242,2.0807,2.0513,2.0069,1.9503,2.9574,2.9532,2.9489,2.9181,2.8591,2.8054,2.7827,2.7785,2.7702,2.7594,2.743,2.7634,2.7626,2.7598,2.8147,2.8534,2.8618,2.7851,2.8225,2.9308,2.8807,2.8855,2.9331,2.8355,2.809,2.8384,2.8018,2.7304,2.6476,2.7087,2.6569,2.5052,2.5412,2.5115,2.4237,2.4917,2.5228,2.4927,2.4767,2.4231,2.3438,2.441,2.4753,2.4288,2.4898,2.5238,2.5131,2.518,2.5396,2.5811,2.552,2.5621,2.6078,2.5712,2.5451,2.5557,2.5557,2.559,2.5803,2.584,2.5862,2.5895,2.5895,2.5895,2.5895,2.5791,2.5664,2.5356,2.4775,2.4408,2.4573,2.4902,2.469,2.3872,2.4398,2.4332,2.3556,2.3001,2.2971,2.3118,2.2606,2.1784,2.165,2.1033,2.0447,2.0392,2.0328,2.01,1.9722,1.964,1.9573,1.9136,1.8814,1.8592,1.8545,1.8557,1.8718,1.8995,1.9251,1.9469,1.9634,1.9788,1.9892,2.0118,2.0272,2.0642,2.106,2.1325,2.136,2.1539,2.1335,2.0946,2.0631,2.0381,2.0079,2.9602,2.9602,2.9602,2.946,2.9195,2.8956,2.8662,2.8324,2.8325,2.83,2.8255,2.8303,2.824,2.8149,2.8837,2.9153,2.9121,2.8865,2.901,2.9556,2.9277,2.9322,2.9455,2.8434,2.7993,2.8091,2.7726,2.7119,2.6451,2.6207,2.5757,2.508,2.5063,2.4857,2.4547,2.4875,2.496,2.4706,2.4926,2.4626,2.4043,2.4896,2.5239,2.4925,2.5735,2.6091,2.5853,2.6063,2.6333,2.6556,2.6412,2.6576,2.7088,2.6772,2.6777,2.7168,2.7024,2.6705,2.6279,2.6249,2.6156,2.5916,2.5895,2.5895,2.5895,2.5895,2.5895,2.5853,2.5564,2.5372,2.5361,2.5379,2.5126,2.472,2.5143,2.5113,2.4143,2.4585,2.4733,2.3836,2.3586,2.3347,2.3011,2.2629,2.2066,2.153,2.1315,2.1056,2.0271,2.0047,2.0009,1.9838,1.9513,1.9166,1.8999,1.8952,1.9152,1.9531,1.9769,1.99,2.0294,2.0443,2.0576,2.0607,2.0709,2.0927,2.1293,2.1262,2.1253,2.1458,2.1398,2.1022,2.0875,2.0656,2.0335,2.9602,2.9602,2.9602,2.9602,2.9602,2.9602,2.935,2.8984,2.8956,2.8942,2.8927,2.8956,2.8891,2.8891,2.9355,2.9602,2.9602,2.9602,2.9602,2.9587,2.957,2.954,2.9439,2.8565,2.8023,2.7885,2.753,2.7011,2.635,2.5655,2.528,2.5268,2.5173,2.5073,2.5028,2.5082,2.5041,2.4863,2.5119,2.5014,2.4759,2.5372,2.5559,2.5277,2.6233,2.6639,2.6279,2.6663,2.697,2.7102,2.7114,2.7354,2.7878,2.7738,2.7806,2.8131,2.7849,2.729,2.6549,2.6404,2.6186,2.5958,2.5895,2.5895,2.5895,2.5895,2.5895,2.5895,2.5895,2.5884,2.5884,2.5775,2.5706,2.5755,2.594,2.5808,2.5289,2.5998,2.5948,2.4936,2.4765,2.4617,2.3997,2.3728,2.3436,2.2761,2.262,2.2211,2.1217,2.0993,2.097,2.0419,2.0124,1.9885,1.9462,1.9333,1.9604,1.9948,2.0188,2.0501,2.0944,2.1047,2.1132,2.1047,2.1127,2.1221,2.1441,2.1351,2.1253,2.1498,2.1449,2.126,2.1269,2.1004,2.0894,2.9602,2.9602,2.9602,2.9602,2.9602,2.9602,2.9588,2.9504,2.9532,2.9546,2.9518,2.9532,2.9559,2.9509,2.9613,2.9631,2.9631,2.9659,2.9687,2.9699,2.9546,2.9457,2.9378,2.8752,2.8322,2.8078,2.7674,2.714,2.656,2.5854,2.5515,2.5597,2.6085,2.6065,2.5479,2.5729,2.5887,2.557,2.5413,2.5389,2.5562,2.5658,2.558,2.5382,2.612,2.6612,2.6605,2.6791,2.7138,2.7649,2.7673,2.7914,2.835,2.8251,2.7971,2.7603,2.7208,2.688,2.6549,2.6228,2.6,2.5927,2.5927,2.5895,2.5895,2.5874,2.5874,2.5895,2.5895,2.5895,2.5958,2.5983,2.5888,2.5595,2.588,2.5964,2.5759,2.6015,2.6269,2.6218,2.5784,2.5189,2.4137,2.3965,2.4244,2.4127,2.417,2.3764,2.2622,2.2607,2.2085,2.1064,2.0674,2.0636,1.9914,1.9696,1.9815,2.0095,2.0513,2.0899,2.1105,2.1275,2.1374,2.1472,2.1486,2.1553,2.1629,2.1651,2.162,2.1668,2.1668,2.1568,2.1504,2.1614,2.1526,2.9927,2.9896,2.9665,2.9602,2.9602,2.9602,2.9602,2.9602,2.9602,2.9602,2.9602,2.9617,2.9602,2.9615,3.0008,3.0177,3.0161,3.0177,3.0401,3.0752,3.0632,3.055,3.0477,2.9935,2.9286,2.8674,2.8269,2.7473,2.6364,2.6008,2.5737,2.5509,2.5689,2.5698,2.5676,2.5763,2.579,2.5719,2.5588,2.5607,2.5754,2.6045,2.6142,2.605,2.6485,2.6831,2.7109,2.752,2.7892,2.8202,2.8202,2.8227,2.8275,2.8111,2.7869,2.7563,2.7644,2.7502,2.7031,2.694,2.6757,2.6375,2.6063,2.5895,2.5874,2.5791,2.5686,2.5738,2.5843,2.5979,2.6152,2.5994,2.5687,2.5604,2.586,2.6058,2.5961,2.6337,2.6835,2.6887,2.6834,2.6764,2.6391,2.6474,2.6214,2.5546,2.5451,2.4904,2.3915,2.3404,2.2921,2.2227,2.1704,2.1351,2.1109,2.0409,2.0162,2.0337,2.0598,2.0813,2.1019,2.141,2.1575,2.1495,2.1584,2.1674,2.1696,2.1696,2.1687,2.1687,2.1687,2.1687,2.1687,2.1687,2.1687,3.008,3.0065,2.9865,2.9757,2.9757,2.9648,2.9793,3.004,3.0022,3.0152,3.04,3.0349,3.0286,3.0326,3.0672,3.0949,3.1059,3.0856,3.0998,3.144,3.1154,3.1023,3.1008,3.0579,2.9892,2.9111,2.8623,2.7642,2.6425,2.647,2.6311,2.5787,2.5847,2.5939,2.6026,2.599,2.6009,2.6139,2.604,2.602,2.6196,2.6551,2.6746,2.6734,2.6855,2.7082,2.7427,2.7929,2.8219,2.8323,2.8371,2.8311,2.8099,2.7982,2.7809,2.7676,2.7765,2.7693,2.7267,2.7217,2.7024,2.6644,2.6167,2.5948,2.6084,2.5853,2.577,2.5917,2.6218,2.645,2.6437,2.6249,2.6073,2.6102,2.6358,2.6482,2.6345,2.6975,2.7342,2.7425,2.7609,2.7817,2.7901,2.7921,2.7563,2.683,2.6821,2.6408,2.5304,2.4766,2.3931,2.326,2.2711,2.2201,2.1734,2.1092,2.0868,2.0998,2.1074,2.1132,2.1118,2.153,2.1696,2.1562,2.1562,2.1651,2.1687,2.1687,2.1687,2.1687,2.1687,2.1687,2.1687,2.1687,2.1687,3.0139,3.0241,3.0124,3.0223,3.0235,3.0018,3.0276,3.0981,3.0897,3.1277,3.1856,3.1754,3.1476,3.1603,3.1497,3.1794,3.2075,3.1598,3.1431,3.1584,3.1074,3.0924,3.1037,3.077,3.0187,2.9399,2.8586,2.7658,2.6678,2.7105,2.7042,2.6623,2.6758,2.6701,2.6464,2.6478,2.6717,2.691,2.668,2.6696,2.7126,2.7121,2.713,2.7133,2.7153,2.7232,2.7487,2.7914,2.8091,2.7982,2.8111,2.8099,2.7921,2.7861,2.7861,2.7748,2.7482,2.7267,2.7185,2.691,2.6809,2.6623,2.622,2.6125,2.6364,2.619,2.614,2.6499,2.6958,2.7144,2.6893,2.7073,2.7157,2.7183,2.7145,2.7233,2.7389,2.7681,2.7901,2.7874,2.793,2.7933,2.7962,2.8091,2.8067,2.8047,2.8087,2.7802,2.6739,2.6504,2.5777,2.4222,2.3607,2.3487,2.2589,2.1731,2.1731,2.1744,2.1789,2.183,2.1597,2.1776,2.1785,2.1696,2.1629,2.1687,2.1687,2.1687,2.1687,2.1687,2.1687,2.1687,2.1687,2.1687,2.1687,3.1153,3.1714,3.1664,3.1604,3.1618,3.1605,3.1814,3.2052,3.1905,3.202,3.2195,3.1885,3.1772,3.1933,3.2027,3.2298,3.258,3.2461,3.2465,3.242,3.2159,3.1956,3.1864,3.171,3.1208,3.0293,2.9024,2.8068,2.7449,2.7103,2.6578,2.6247,2.6539,2.6642,2.662,2.6818,2.7076,2.717,2.7056,2.7056,2.719,2.719,2.719,2.719,2.7056,2.7097,2.7301,2.7574,2.7777,2.7861,2.7962,2.7869,2.7655,2.7505,2.7415,2.7435,2.7421,2.7339,2.7228,2.7217,2.7126,2.6942,2.6571,2.6415,2.6542,2.6612,2.6705,2.6941,2.7471,2.7866,2.8033,2.8143,2.7861,2.6898,2.6962,2.7265,2.7461,2.7844,2.8059,2.8119,2.8219,2.8291,2.8335,2.8427,2.8487,2.8463,2.8531,2.8279,2.797,2.7496,2.7112,2.6048,2.5589,2.4766,2.3855,2.3137,2.2918,2.2599,2.2419,2.2252,2.2074,2.1985,2.1963,2.183,2.1763,2.1687,2.1687,2.1687,2.1687,2.1687,2.1664,2.1664,2.1687,2.1642,2.1597,3.1975,3.2465,3.2417,3.2384,3.2368,3.234,3.2548,3.2817,3.2701,3.2829,3.305,3.2782,3.2668,3.2754,3.2755,3.2804,3.293,3.2989,3.2917,3.2793,3.2668,3.2507,3.2381,3.2264,3.1726,3.0983,3.0209,2.9225,2.8111,2.8108,2.7726,2.7112,2.7426,2.7738,2.7658,2.7672,2.7765,2.8007,2.7534,2.7374,2.7554,2.7374,2.719,2.717,2.7076,2.7088,2.721,2.731,2.7464,2.7598,2.765,2.7557,2.7391,2.726,2.719,2.7231,2.7301,2.7322,2.7231,2.7281,2.733,2.7138,2.6766,2.6723,2.6933,2.7176,2.7184,2.7657,2.8236,2.8647,2.8693,2.8907,2.8457,2.7527,2.7712,2.7865,2.805,2.8372,2.8633,2.8722,2.8862,2.8937,2.8957,2.9059,2.9079,2.9088,2.9088,2.8955,2.8794,2.8355,2.7915,2.74,2.6629,2.583,2.5105,2.4595,2.4198,2.3604,2.3025,2.2684,2.2384,2.2384,2.2384,2.2008,2.183,2.1709,2.1687,2.1687,2.1687,2.1664,2.1553,2.1486,2.1441,2.1387,2.132,3.2584,3.2613,3.2629,3.2716,3.2684,3.2459,3.2858,3.3472,3.3399,3.3771,3.4374,3.404,3.3979,3.3934,3.3495,3.3318,3.3315,3.3185,3.2917,3.265,3.2543,3.2556,3.2377,3.2259,3.1813,3.1275,3.1542,3.0714,2.8971,2.9756,3.0082,2.8648,2.905,2.9607,2.9284,2.8885,2.8858,2.917,2.8159,2.7878,2.8351,2.7745,2.7251,2.721,2.717,2.7138,2.721,2.7231,2.721,2.721,2.7251,2.7251,2.721,2.719,2.719,2.717,2.717,2.7149,2.717,2.717,2.7215,2.7232,2.6996,2.6994,2.7763,2.78,2.794,2.8584,2.9141,2.9311,2.9079,2.9251,2.9218,2.8939,2.8858,2.9046,2.9291,2.9265,2.9181,2.9282,2.9525,2.9649,2.9552,2.9732,2.987,2.9911,2.9896,2.9689,2.9416,2.8995,2.8556,2.8041,2.7519,2.6826,2.607,2.5221,2.4787,2.4048,2.3452,2.2947,2.2662,2.2671,2.2583,2.223,2.1941,2.1807,2.1709,2.1709,2.1575,2.1396,2.1307,2.1217,2.1186,2.1163,2.1154,3.3499,3.3906,3.4053,3.4118,3.412,3.4122,3.4246,3.4503,3.4353,3.4407,3.4582,3.4264,3.4196,3.4261,3.3934,3.3796,3.3782,3.3695,3.3368,3.2952,3.3174,3.2838,3.2354,3.2223,3.2082,3.1813,3.1511,3.0914,3.0291,3.0209,2.9884,2.9413,2.9665,2.9762,2.9626,2.953,2.9493,2.9651,2.9351,2.8794,2.853,2.8342,2.7825,2.7231,2.7097,2.7117,2.719,2.719,2.719,2.719,2.719,2.719,2.719,2.719,2.7149,2.7035,2.6974,2.6923,2.683,2.6935,2.7124,2.7463,2.7518,2.7883,2.8449,2.8764,2.8993,2.9366,2.9734,2.9963,2.9848,2.9917,2.9906,2.9768,2.9348,2.902,2.8996,2.9013,2.911,2.9143,2.9382,2.9524,2.9612,2.977,2.9907,2.9949,3.0076,3.0131,2.9905,2.9617,2.9174,2.8937,2.8434,2.774,2.6958,2.6038,2.5242,2.4445,2.3767,2.3091,2.2904,2.2816,2.264,2.2375,2.2185,2.2021,2.183,2.1718,2.1463,2.1351,2.1195,2.1172,2.1096,2.1064,2.1064,3.4348,3.4397,3.4515,3.458,3.4582,3.4652,3.4685,3.4683,3.4616,3.458,3.4515,3.4346,3.4295,3.4363,3.4023,3.3902,3.3957,3.383,3.3521,3.3182,3.3157,3.2892,3.2462,3.2296,3.2187,3.215,3.169,3.1275,3.0964,3.0739,3.0564,3.0342,3.0595,3.0746,3.0803,3.0361,3.0425,3.0541,3.0151,2.9568,2.9495,2.917,2.8558,2.801,2.7874,2.8055,2.7805,2.7745,2.7595,2.7301,2.719,2.719,2.719,2.719,2.7138,2.7015,2.6953,2.683,2.6813,2.6999,2.7311,2.7625,2.7977,2.8528,2.8941,2.9343,2.9527,2.9814,3.0044,3.0181,3.0216,3.0216,3.0216,3.0101,2.9688,2.9332,2.9332,2.9488,2.9497,2.9563,2.9728,2.9915,2.9915,3.0152,3.0326,3.046,3.0726,3.0665,3.0468,3.0131,2.983,2.9589,2.94,2.8813,2.7965,2.7019,2.5924,2.5091,2.3976,2.3322,2.2969,2.2882,2.2772,2.2552,2.2397,2.223,2.203,2.1874,2.1807,2.1642,2.1351,2.1217,2.123,2.1118,2.1087,3.5054,3.4501,3.4416,3.4448,3.4549,3.4517,3.4618,3.4534,3.4585,3.4568,3.4551,3.4465,3.4467,3.4481,3.4165,3.3925,3.4014,3.3902,3.3646,3.3353,3.3076,3.2757,3.2686,3.2336,3.2205,3.2169,3.2187,3.1776,3.1437,3.1795,3.169,3.1326,3.1772,3.2078,3.1795,3.1349,3.1505,3.1646,3.082,3.0393,3.0462,3.0082,2.942,2.8823,2.9101,2.9113,2.8759,2.8569,2.8263,2.7383,2.726,2.719,2.719,2.719,2.7227,2.7232,2.7133,2.703,2.7099,2.7473,2.7742,2.7955,2.8468,2.901,2.9447,2.9642,2.978,3.0067,3.0204,3.0216,3.0216,3.0216,3.0216,3.0193,3.0158,3.0193,3.0216,3.0216,3.0216,3.0216,3.0419,3.0521,3.069,3.0915,3.1169,3.0792,3.1049,3.1071,3.0918,3.0672,3.0419,3.0191,3.0062,2.9959,2.8988,2.7998,2.6832,2.5753,2.4405,2.3496,2.2945,2.2816,2.2816,2.2737,2.253,2.2375,2.223,2.2141,2.2052,2.183,2.1463,2.1508,2.1575,2.1387,2.1275,3.5318,3.5137,3.4635,3.4721,3.5154,3.5187,3.5187,3.5172,3.5187,3.5187,3.5072,3.4637,3.4721,3.5121,3.4572,3.4536,3.4791,3.4433,3.4128,3.3857,3.3217,3.297,3.281,3.2449,3.2237,3.22,3.2187,3.2078,3.2009,3.2009,3.21,3.1991,3.2023,3.2187,3.2132,3.1991,3.1973,3.2109,3.1752,3.1307,3.0963,3.0796,3.0292,2.9626,2.9684,2.9658,2.951,2.944,2.9042,2.8295,2.7655,2.7403,2.7301,2.7254,2.7353,2.7542,2.7531,2.7554,2.783,2.8063,2.8422,2.8749,2.9074,2.9538,2.9998,3.0032,3.0089,3.0193,3.0216,3.0216,3.0216,3.0216,3.0216,3.0216,3.0216,3.0216,3.0216,3.0216,3.0216,3.0216,3.0261,3.0284,3.0306,3.0578,3.0859,3.1028,3.1227,3.1402,3.1287,3.1088,3.0874,3.0604,3.0374,3.0205,2.9722,2.8595,2.7293,2.6191,2.4885,2.4014,2.3469,2.2837,2.2882,2.2796,2.2618,2.2463,2.2296,2.2185,2.2052,2.1807,2.1674,2.1785,2.182,2.162,2.1544,3.615,3.5834,3.548,3.553,3.585,3.5882,3.5866,3.5882,3.585,3.5866,3.5722,3.517,3.5103,3.5351,3.5023,3.494,3.4822,3.4601,3.4295,3.4008,3.351,3.3245,3.3055,3.2664,3.2386,3.2241,3.2187,3.2187,3.2187,3.2187,3.2187,3.2187,3.2187,3.2187,3.2187,3.2187,3.2169,3.2187,3.2187,3.1951,3.158,3.1496,3.1368,3.0809,3.0507,3.0266,3.0253,3.0272,2.9826,2.9167,2.8621,2.8187,2.7827,2.7684,2.7826,2.824,2.807,2.8048,2.8245,2.8572,2.8886,2.9193,2.9576,2.9895,3.0158,3.0216,3.0216,3.0216,3.0216,3.0216,3.0216,3.0216,3.0216,3.0216,3.0216,3.0216,3.0216,3.0216,3.0216,3.0216,3.0216,3.0216,3.0284,3.0442,3.0578,3.0814,3.1162,3.1315,3.125,3.109,3.1077,3.0866,3.059,3.0375,3.0141,2.9163,2.7635,2.6498,2.5341,2.4756,2.4351,2.3632,2.2966,2.2827,2.2656,2.2429,2.2252,2.2141,2.2228,2.2248,2.2226,2.2195,2.2182,2.2219,2.2124,3.7101,3.66,3.6508,3.6507,3.6615,3.6631,3.66,3.6554,3.6554,3.6554,3.643,3.5834,3.5673,3.5721,3.5625,3.5203,3.4837,3.4517,3.4419,3.4167,3.3747,3.3417,3.3174,3.286,3.2592,3.2296,3.2259,3.2259,3.2296,3.2205,3.215,3.215,3.2187,3.215,3.215,3.2187,3.2164,3.2128,3.2119,3.2064,3.1964,3.1955,3.1886,3.1716,3.132,3.0977,3.0959,3.0902,3.0588,2.9858,2.98,2.9502,2.9058,2.8471,2.8452,2.9166,2.8805,2.8712,2.8885,2.9124,2.9374,2.9363,2.9828,3.0079,3.0102,3.0114,3.0136,3.0159,3.0182,3.0216,3.0216,3.0216,3.0216,3.0216,3.0216,3.0216,3.0216,3.0216,3.0216,3.0216,3.0216,3.0216,3.0261,3.034,3.0487,3.0645,3.0971,3.1172,3.1107,3.1072,3.1034,3.0977,3.0711,3.0429,3.0205,2.9956,2.8433,2.7319,2.6106,2.5513,2.5121,2.4251,2.3491,2.2913,2.2666,2.2501,2.2485,2.257,2.2655,2.2761,2.2783,2.2692,2.2735,2.2812,2.2831,3.7575,3.7515,3.6964,3.7054,3.7529,3.7559,3.7443,3.7252,3.7252,3.7237,3.7148,3.6554,3.6523,3.6738,3.643,3.6102,3.5705,3.5219,3.4743,3.4491,3.3994,3.3539,3.3283,3.3055,3.286,3.2614,3.2485,3.2467,3.2467,3.2336,3.2132,3.2036,3.2091,3.2109,3.2036,3.2091,3.2073,3.1945,3.1946,3.1873,3.178,3.1753,3.1795,3.183,3.1622,3.1612,3.1562,3.1493,3.1104,3.033,3.0203,3.0541,3.0639,2.9849,2.9529,2.9611,2.9558,2.9569,2.9835,2.9918,2.9943,2.992,3.0023,2.9966,2.9817,2.9794,2.992,3.0,3.0114,3.0227,3.0216,3.0331,3.0273,3.0262,3.0285,3.0285,3.0273,3.0227,3.0227,3.0216,3.0216,3.0216,3.0261,3.0272,3.0374,3.0487,3.0713,3.0881,3.0871,3.0905,3.0971,3.0892,3.0757,3.0509,3.026,3.0101,2.941,2.8453,2.7354,2.6329,2.5735,2.4789,2.4055,2.3469,2.3038,2.2834,2.2871,2.2922,2.3009,2.3025,2.3098,2.318,2.33,2.3461,2.3948,3.8367,3.8379,3.8149,3.8234,3.8477,3.8365,3.824,3.8114,3.7988,3.7902,3.7713,3.7193,3.6982,3.7118,3.6875,3.6615,3.6368,3.5785,3.5385,3.5124,3.4507,3.4048,3.3725,3.3409,3.3213,3.309,3.2881,3.2618,3.2543,3.2395,3.2169,3.1959,3.1908,3.183,3.1793,3.1817,3.1867,3.1762,3.1753,3.1703,3.1622,3.1587,3.1693,3.1912,3.2241,3.245,3.2735,3.3052,3.2984,3.2651,3.2548,3.2659,3.2516,3.2202,3.1623,3.145,3.0931,3.0643,3.0744,3.0566,3.0148,3.0091,3.008,2.9966,2.976,2.9714,2.9759,2.9828,3.0204,3.0399,3.0422,3.0755,3.0996,3.0962,3.0778,3.0618,3.0537,3.0354,3.0308,3.0319,3.0296,3.0296,3.0216,3.0238,3.0261,3.0374,3.051,3.0589,3.0646,3.0713,3.0781,3.0668,3.0544,3.0454,3.025,3.0182,3.0079,2.9308,2.8528,2.752,2.6625,2.5785,2.482,2.3999,2.3638,2.3371,2.2989,2.2949,2.3135,2.3289,2.3294,2.342,2.38,2.4164,2.4598,3.9053,3.9121,3.9209,3.9289,3.9246,3.9074,3.8928,3.8805,3.86,3.849,3.8391,3.7801,3.7462,3.7387,3.7222,3.7042,3.6981,3.6321,3.5992,3.5785,3.5155,3.4745,3.4526,3.4051,3.3684,3.3999,3.3336,3.2925,3.271,3.2533,3.2286,3.2119,3.1872,3.178,3.1822,3.1968,3.1798,3.1757,3.1736,3.1736,3.1701,3.1725,3.1934,3.234,3.287,3.3245,3.359,3.3943,3.4149,3.412,3.4202,3.4309,3.431,3.4326,3.4253,3.3868,3.2691,3.1938,3.127,3.0846,3.0385,3.0272,2.9977,2.9806,2.9736,2.9654,2.9812,2.9949,3.0429,3.0877,3.0993,3.1408,3.1686,3.1652,3.1352,3.1146,3.1077,3.0939,3.0778,3.0698,3.0491,3.0411,3.0399,3.0216,3.0238,3.0238,3.0374,3.0374,3.042,3.0454,3.0476,3.0363,3.0284,3.0284,3.0216,3.0216,3.0159,2.9897,2.9329,2.8623,2.7764,2.6937,2.5962,2.501,2.438,2.4083,2.3544,2.3226,2.3546,2.3716,2.3556,2.3895,2.4679,2.4858,2.4979,3.9175,3.9448,3.9458,3.952,3.9625,3.9586,3.9332,3.8966,3.8914,3.886,3.8711,3.8403,3.8191,3.8076,3.7713,3.7596,3.7329,3.6815,3.6414,3.6321,3.5689,3.5335,3.5221,3.4531,3.4469,3.4637,3.3971,3.3467,3.3139,3.2855,3.2561,3.2359,3.2359,3.2449,3.216,3.2232,3.2471,3.2327,3.2276,3.2197,3.2095,3.2068,3.2426,3.2879,3.3207,3.3554,3.4114,3.4399,3.4448,3.435,3.4238,3.4465,3.4907,3.5069,3.5509,3.5224,3.4152,3.2311,3.1512,3.1058,3.0835,3.0599,3.0045,2.9439,2.9387,2.9849,3.0362,3.1166,3.1413,3.1519,3.1507,3.1742,3.1824,3.1858,3.1824,3.1697,3.1628,3.147,3.1308,3.124,3.1125,3.0836,3.0651,3.0422,3.0216,3.0216,3.0216,3.0238,3.0227,3.0306,3.0329,3.0238,3.0216,3.0216,3.0216,3.0216,3.0216,3.0216,2.9909,2.944,2.855,2.7683,2.718,2.6314,2.5593,2.5,2.4673,2.4445,2.4371,2.4272,2.4264,2.499,2.5936,2.5837,2.5429,3.9299,3.9531,3.9577,3.9638,3.9677,3.9534,3.9379,3.9161,3.8969,3.8843,3.8777,3.8614,3.849,3.8335,3.7976,3.7815,3.7698,3.7239,3.7044,3.6861,3.6337,3.5991,3.5817,3.5253,3.505,3.4798,3.4547,3.4213,3.3772,3.3202,3.2739,3.2498,3.2417,3.2273,3.2422,3.2341,3.2291,3.2223,3.2227,3.2403,3.2594,3.2721,3.303,3.3765,3.4193,3.4585,3.4956,3.5529,3.5665,3.5698,3.5698,3.5848,3.6128,3.6153,3.6121,3.5211,3.5067,3.4144,3.3096,3.2159,3.1711,3.1291,3.0656,2.9862,2.9549,2.9991,3.0513,3.0652,3.1207,3.1585,3.1931,3.2173,3.2458,3.2533,3.2269,3.2092,3.2002,3.1955,3.1831,3.1797,3.1809,3.1691,3.1445,3.1077,3.08,3.0524,3.0455,3.0398,3.0307,3.0238,3.0238,3.0216,3.0216,3.0216,3.0216,3.0216,3.0216,3.0216,3.0216,2.968,2.8979,2.8269,2.8023,2.7417,2.6602,2.6109,2.5866,2.523,2.473,2.481,2.5019,2.5574,2.6059,2.6079,2.5888,3.9455,3.9458,3.9586,3.9664,3.9677,3.9484,3.9392,3.9312,3.9091,3.8985,3.8873,3.8736,3.8572,3.8377,3.8103,3.7943,3.7913,3.767,3.7568,3.7329,3.7044,3.6739,3.6461,3.599,3.5469,3.4949,3.4996,3.4873,3.4517,3.3952,3.3431,3.2973,3.3171,3.2953,3.2798,3.28,3.2812,3.2855,3.2814,3.3115,3.3554,3.3669,3.4068,3.4644,3.5228,3.569,3.6003,3.6378,3.6708,3.6674,3.6685,3.6671,3.6747,3.6719,3.6391,3.5749,3.5602,3.5399,3.4387,3.3513,3.2864,3.2305,3.1629,3.0744,3.0893,3.1036,3.1229,3.1323,3.205,3.2355,3.2358,3.2828,3.29,3.2931,3.2744,3.2493,3.243,3.2812,3.2924,3.2818,3.2899,3.3028,3.2663,3.2017,3.1505,3.0994,3.0752,3.0626,3.0523,3.0431,3.0431,3.0488,3.051,3.0454,3.0352,3.0329,3.0284,3.0216,3.0216,3.0057,2.9428,2.9352,2.9365,2.8604,2.7778,2.7854,2.8008,2.6466,2.5067,2.5297,2.5499,2.5609,2.5865,2.5976,2.6195,3.9692,3.9325,3.9445,3.959,3.969,3.969,3.9573,3.9445,3.9448,3.9325,3.9175,3.8942,3.8683,3.8432,3.8258,3.8114,3.8085,3.7816,3.7685,3.7612,3.7494,3.7315,3.7058,3.6723,3.6414,3.643,3.5882,3.5531,3.55,3.4999,3.469,3.4539,3.4266,3.445,3.4277,3.3872,3.3815,3.384,3.3862,3.425,3.472,3.4957,3.5194,3.5536,3.5753,3.5956,3.632,3.6482,3.6569,3.6555,3.6727,3.6805,3.6864,3.6909,3.6567,3.6344,3.5991,3.581,3.5175,3.4387,3.3809,3.3329,3.2761,3.2115,3.25,3.2697,3.285,3.291,3.3399,3.3793,3.3727,3.3631,3.3607,3.3685,3.3643,3.3448,3.3637,3.4306,3.4341,3.4005,3.4029,3.4291,3.4387,3.3868,3.2534,3.1922,3.1308,3.117,3.0985,3.0893,3.086,3.0872,3.0894,3.0815,3.0612,3.0532,3.0442,3.0306,3.0261,3.0238,3.0034,3.0136,3.0075,3.0185,2.9582,2.9856,2.9749,2.8208,2.692,2.6225,2.5985,2.604,2.6141,2.6315,2.6416,4.0028,3.9718,3.9481,3.9405,3.9458,3.9441,3.9432,3.9379,3.9365,3.9369,3.9315,3.9178,3.9053,3.889,3.8653,3.8469,3.8371,3.8087,3.7889,3.773,3.7643,3.7568,3.736,3.7134,3.6813,3.6643,3.6167,3.5854,3.5686,3.5725,3.582,3.5635,3.5222,3.4901,3.4718,3.4726,3.4669,3.4663,3.474,3.5048,3.5597,3.5756,3.5928,3.6309,3.6353,3.6339,3.6423,3.653,3.6563,3.6609,3.6766,3.6825,3.6825,3.685,3.6727,3.6563,3.6232,3.5978,3.569,3.495,3.4441,3.4081,3.3878,3.384,3.3894,3.3813,3.4148,3.4372,3.439,3.4582,3.4715,3.4544,3.4532,3.469,3.4654,3.4484,3.4764,3.5437,3.5447,3.4938,3.5335,3.5784,3.586,3.5817,3.4271,3.2875,3.2257,3.1712,3.148,3.1263,3.1196,3.1141,3.1141,3.1074,3.0871,3.0724,3.0566,3.0476,3.0352,3.0397,3.042,3.0216,3.0285,3.0705,3.1224,3.1169,3.0714,2.9736,2.8759,2.7904,2.7039,2.6416,2.6527,2.6609,2.6618,4.0489,4.0061,3.9653,3.9428,3.9312,3.9315,3.9315,3.9315,3.9315,3.9315,3.9315,3.9315,3.9315,3.9218,3.8942,3.8733,3.8556,3.8288,3.8062,3.7876,3.77,3.7753,3.7698,3.7456,3.7044,3.6767,3.6553,3.6384,3.6044,3.6337,3.6314,3.6082,3.5764,3.5483,3.5335,3.519,3.5167,3.5226,3.5299,3.5581,3.6174,3.6344,3.6344,3.6631,3.6615,3.6528,3.647,3.6504,3.6563,3.6642,3.6766,3.6889,3.685,3.6752,3.6589,3.6425,3.6206,3.5978,3.5703,3.5507,3.5282,3.5337,3.5021,3.4874,3.479,3.4856,3.5112,3.5351,3.5118,3.5163,3.5789,3.5819,3.5736,3.5866,3.5783,3.5663,3.59,3.638,3.6129,3.5836,3.6515,3.7245,3.6952,3.6877,3.5826,3.4255,3.3194,3.2505,3.1878,3.1663,3.1441,3.1374,3.1296,3.1218,3.1107,3.0994,3.0915,3.0892,3.0802,3.0802,3.0758,3.059,3.0984,3.1868,3.225,3.2292,3.1989,3.1502,3.0514,2.9437,2.8406,2.7221,2.6572,2.6618,2.6618,4.1195,4.0307,4.0057,3.9731,3.9405,3.9312,3.9309,3.9315,3.9315,3.9285,3.9272,3.9285,3.9272,3.9205,3.8928,3.8805,3.8716,3.8456,3.8307,3.821,3.817,3.8255,3.8214,3.7987,3.7556,3.7855,3.7312,3.6646,3.6414,3.6445,3.6475,3.6475,3.6255,3.6187,3.6209,3.586,3.5724,3.5779,3.5783,3.6153,3.6493,3.6685,3.6687,3.6708,3.6685,3.6571,3.653,3.6504,3.6544,3.6549,3.6727,3.6825,3.6786,3.6721,3.6583,3.6391,3.6172,3.5958,3.573,3.5918,3.6123,3.6402,3.5881,3.5666,3.6116,3.6165,3.597,3.6226,3.6547,3.7121,3.7355,3.7294,3.7106,3.7083,3.7034,3.7104,3.7357,3.7723,3.7624,3.7096,3.7895,3.8632,3.8211,3.7755,3.7025,3.5822,3.4436,3.3379,3.2535,3.1972,3.1685,3.1596,3.1518,3.1429,3.134,3.1296,3.1239,3.1239,3.1172,3.1061,3.1188,3.126,3.1905,3.2907,3.3078,3.2886,3.3257,3.354,3.218,3.0777,2.9242,2.8079,2.7251,2.6618,2.6618,4.1852,4.1257,4.0513,4.0149,4.0007,3.9833,3.9592,3.9339,3.9285,3.9232,3.9161,3.9232,3.9164,3.9013,3.8942,3.8851,3.8756,3.9204,3.9133,3.8904,3.8989,3.9406,3.9331,3.8674,3.8194,3.801,3.7389,3.6739,3.6476,3.6507,3.6492,3.6492,3.6507,3.6475,3.6408,3.6271,3.6276,3.6317,3.6332,3.6465,3.6681,3.6731,3.6783,3.679,3.675,3.6671,3.6679,3.6688,3.6589,3.6609,3.6786,3.687,3.6811,3.6727,3.6484,3.6312,3.6078,3.5804,3.571,3.5817,3.6006,3.6258,3.6394,3.6225,3.6599,3.6694,3.6811,3.7038,3.73,3.7744,3.789,3.8345,3.8447,3.868,3.8725,3.8792,3.905,3.9505,3.9556,3.8643,3.8773,3.9248,3.9179,3.8688,3.7987,3.6903,3.547,3.402,3.3021,3.2325,3.1884,3.1839,3.1761,3.1661,3.1572,3.1461,3.1417,3.1395,3.1273,3.1095,3.1313,3.1678,3.2146,3.2798,3.3165,3.3492,3.3731,3.3794,3.3195,3.1988,3.0416,2.9147,2.8346,2.7403,2.6618,4.2376,4.1909,4.1188,4.0727,4.0439,3.9982,3.954,3.9228,3.9188,3.9094,3.8983,3.9067,3.9026,3.886,3.8821,3.9053,3.9009,3.9359,3.9852,3.9637,3.9938,4.01,3.9832,3.9221,3.8643,3.8241,3.7542,3.6862,3.6708,3.6554,3.6507,3.6492,3.6492,3.6491,3.6476,3.6475,3.6473,3.649,3.6502,3.6524,3.6617,3.669,3.6882,3.7027,3.7011,3.6859,3.7042,3.7007,3.6811,3.687,3.6934,3.6998,3.6895,3.6674,3.6445,3.6272,3.5998,3.575,3.571,3.571,3.5851,3.5952,3.6325,3.6544,3.6648,3.674,3.7199,3.7476,3.7606,3.8116,3.8628,3.9204,3.9467,3.966,3.9875,3.9932,4.002,4.0423,4.0396,3.9558,3.91,3.9592,3.9778,3.9557,3.8984,3.7748,3.6513,3.5093,3.3666,3.2841,3.2279,3.221,3.1959,3.1739,3.1639,3.1572,3.1528,3.1562,3.1451,3.1296,3.1574,3.1958,3.2313,3.2625,3.2973,3.3377,3.3898,3.3885,3.3618,3.2828,3.1491,3.0374,2.9478,2.8585,2.7618,4.2806,4.2334,4.2093,4.1512,4.0709,3.9944,3.9372,3.9074,3.9061,3.8996,3.8805,3.8846,3.8819,3.878,3.8704,3.9042,3.9615,3.9661,3.9991,4.0275,4.0368,4.0414,4.0017,3.928,3.8903,3.8466,3.78,3.7029,3.6954,3.6631,3.6507,3.6492,3.6492,3.6492,3.6492,3.6491,3.6491,3.652,3.6519,3.6532,3.6555,3.671,3.7099,3.7359,3.7449,3.7612,3.7745,3.7677,3.7313,3.7178,3.7173,3.7095,3.6915,3.6634,3.651,3.6272,3.5938,3.5784,3.571,3.571,3.571,3.5804,3.5958,3.6272,3.6563,3.6721,3.7096,3.7523,3.7755,3.8606,3.934,3.9655,3.9935,4.0215,4.0509,4.0559,4.0559,4.0652,4.061,4.0167,3.969,3.9633,3.9355,3.919,3.9277,3.8741,3.762,3.6697,3.5189,3.3354,3.289,3.2708,3.2373,3.1793,3.1661,3.1617,3.1639,3.1639,3.1739,3.1717,3.1969,3.2113,3.2365,3.2599,3.2834,3.3281,3.3955,3.4306,3.4362,3.3436,3.2462,3.1604,3.071,3.0167,2.9377,4.305,4.2825,4.2402,4.2101,4.1807,4.1036,4.0341,3.9761,3.9701,3.9401,3.8791,3.8901,3.8764,3.8565,3.9111,3.9377,3.9872,4.0379,4.0591,4.0727,4.0748,4.0744,4.0279,3.9594,3.9218,3.8629,3.7933,3.721,3.6968,3.6677,3.6523,3.6492,3.6476,3.6476,3.6476,3.6492,3.6492,3.6492,3.6492,3.6492,3.6677,3.6947,3.7395,3.7664,3.8142,3.8395,3.8557,3.8502,3.8182,3.7905,3.8238,3.8111,3.6993,3.7178,3.7222,3.6232,3.5898,3.571,3.571,3.571,3.571,3.571,3.5784,3.6038,3.6351,3.665,3.6878,3.7273,3.7667,3.8341,3.9064,3.95,3.9992,4.0449,4.0674,4.0702,4.0688,4.0561,4.0463,3.9823,3.9374,3.9057,3.8807,3.9087,3.9168,3.9085,3.8642,3.7745,3.648,3.4552,3.3248,3.3052,3.2469,3.1793,3.1705,3.1661,3.1705,3.1749,3.1827,3.1871,3.1937,3.2094,3.2321,3.2688,3.3105,3.362,3.4192,3.4462,3.4714,3.442,3.3559,3.2775,3.2022,3.1451,3.0798,4.3132,4.3067,4.275,4.2518,4.2259,4.1899,4.1258,4.0487,4.0086,3.9581,3.9125,3.8914,3.8697,3.8567,3.8943,3.9385,4.0008,4.0235,4.0592,4.1175,4.1046,4.0561,4.0106,3.9687,3.9213,3.8643,3.8105,3.752,3.7272,3.6892,3.6677,3.6492,3.646,3.6398,3.6383,3.6367,3.6367,3.6398,3.643,3.6492,3.6785,3.7217,3.7671,3.8115,3.8739,3.9098,3.9394,3.9326,3.8957,3.8694,3.9033,3.88,3.7933,3.8088,3.7706,3.6803,3.6395,3.6296,3.6217,3.5837,3.577,3.571,3.571,3.5978,3.6232,3.6504,3.6761,3.7055,3.7408,3.7869,3.8572,3.9261,3.9936,4.0589,4.0645,4.0702,4.0589,4.0435,3.9894,3.9163,3.8727,3.8404,3.8436,3.8813,3.898,3.8766,3.8582,3.8129,3.6852,3.5198,3.3824,3.3113,3.2426,3.1705,3.1705,3.1705,3.1705,3.1727,3.1727,3.1805,3.1871,3.2038,3.2262,3.285,3.3541,3.3968,3.4315,3.4738,3.4957,3.4616,3.4236,3.3459,3.2887,3.2737,3.2033,4.3086,4.3095,4.3095,4.2786,4.2338,4.2368,4.1962,4.1167,4.0361,3.9766,3.9503,3.8928,3.8658,3.8639,3.8827,3.9403,3.9846,4.009,4.043,4.1385,4.0657,4.0108,3.9739,3.9431,3.9248,3.8656,3.8277,3.8167,3.7866,3.7446,3.6971,3.6584,3.632,3.6227,3.6211,3.6195,3.6211,3.6289,3.6367,3.6445,3.6754,3.7342,3.8134,3.8656,3.9167,3.9604,3.9945,3.9834,3.9412,3.9394,3.9466,3.9502,3.9251,3.8815,3.8177,3.7644,3.713,3.6839,3.6598,3.6177,3.581,3.571,3.571,3.5958,3.6192,3.6391,3.6615,3.6895,3.7259,3.7667,3.8319,3.8671,3.9205,3.9781,4.0048,4.0076,4.002,3.9711,3.9086,3.8474,3.808,3.7827,3.7982,3.8344,3.875,3.8484,3.8243,3.8083,3.7099,3.5578,3.4538,3.3386,3.2392,3.1771,3.1705,3.1705,3.1705,3.1705,3.1705,3.1705,3.1783,3.1959,3.2169,3.2803,3.3491,3.396,3.437,3.4851,3.5078,3.4726,3.4322,3.3879,3.3631,3.3496,3.3122,4.3021,4.3095,4.3095,4.3049,4.2929,4.2785,4.2591,4.2285,4.115,4.0324,3.9749,3.9192,3.8821,3.876,3.906,3.9542,3.9709,3.9862,4.009,4.0139,3.9831,3.9677,3.9348,3.9285,3.934,3.9485,3.9289,3.8884,3.8527,3.7982,3.7498,3.7185,3.6765,3.6425,3.6223,3.6223,3.6409,3.655,3.6597,3.6722,3.6924,3.7679,3.8464,3.8992,3.9494,4.0356,4.0696,4.073,4.0424,4.0322,4.0667,4.0566,4.0237,3.9412,3.8906,3.852,3.7847,3.7491,3.7019,3.652,3.6051,3.577,3.5743,3.5918,3.6092,3.6272,3.6516,3.6817,3.7133,3.7555,3.7934,3.8173,3.8468,3.8959,3.9381,3.9395,3.9381,3.8827,3.8279,3.7858,3.747,3.7504,3.7611,3.7926,3.8297,3.8325,3.8108,3.7755,3.6961,3.577,3.5167,3.4019,3.2522,3.1903,3.1771,3.1705,3.1705,3.1705,3.1705,3.1705,3.1705,3.1893,3.215,3.2732,3.3326,3.3886,3.4504,3.511,3.5184,3.4909,3.4628,3.4273,3.3928,3.3744,3.3582,4.2956,4.3021,4.3003,4.3059,4.3123,4.2993,4.2936,4.2765,4.1916,4.1161,4.0422,3.9555,3.9077,3.9023,3.9263,3.9607,3.9665,3.9545,3.9617,3.9458,3.9217,3.9181,3.9125,3.923,3.9527,3.9777,3.975,3.9454,3.8999,3.8795,3.8372,3.7727,3.7182,3.7042,3.6775,3.6915,3.7196,3.74,3.7324,3.7497,3.7623,3.8318,3.8789,3.927,4.0068,4.0873,4.1068,4.1152,4.1138,4.0989,4.1174,4.0735,4.0359,3.9977,3.9674,3.9265,3.8727,3.8175,3.7606,3.6981,3.633,3.5991,3.571,3.5858,3.6092,3.6272,3.6484,3.6772,3.6973,3.733,3.7765,3.806,3.8302,3.8696,3.8795,3.8768,3.8524,3.8084,3.763,3.7278,3.7086,3.7189,3.7386,3.7737,3.7996,3.7777,3.7611,3.7647,3.6819,3.6117,3.5507,3.4725,3.3305,3.2133,3.1749,3.1705,3.1705,3.1705,3.1705,3.1705,3.1739,3.1893,3.2177,3.2617,3.3205,3.3958,3.456,3.5126,3.5444,3.5319,3.5054,3.4738,3.4384,3.4089,3.3953,4.291,4.291,4.291,4.2975,4.3058,4.3058,4.3058,4.2937,4.248,4.201,4.142,3.9994,3.971,3.9519,3.9269,3.9605,3.9668,3.9271,3.917,3.9005,3.8699,3.8906,3.9144,3.9329,3.9725,4.0066,4.0228,3.9691,3.9124,3.9172,3.9014,3.8178,3.8145,3.833,3.7984,3.8141,3.8487,3.849,3.8586,3.9045,3.9138,3.9135,3.9248,3.9772,4.0428,4.0986,4.1069,4.1187,4.1339,4.1456,4.1406,4.0972,4.0663,4.0491,4.0353,3.9988,3.9603,3.9019,3.8399,3.7548,3.6766,3.6163,3.5877,3.5824,3.6058,3.6232,3.6445,3.6648,3.6836,3.7119,3.7555,3.7802,3.8038,3.8106,3.8072,3.8025,3.7665,3.7387,3.7099,3.6763,3.6873,3.7001,3.733,3.7667,3.7583,3.7349,3.7231,3.7226,3.7049,3.6469,3.5878,3.5244,3.4254,3.3189,3.2186,3.2001,3.2098,3.1705,3.1705,3.1705,3.1739,3.1827,3.2018,3.2357,3.3002,3.3819,3.4435,3.4984,3.526,3.5542,3.5159,3.4836,3.4957,3.4653,3.4457,4.291,4.291,4.291,4.2919,4.2938,4.2938,4.2909,4.2775,4.233,4.2108,4.1941,4.1235,4.0554,4.0015,3.9752,3.9772,3.9644,3.9134,3.8741,3.8545,3.8602,3.8843,3.9213,3.9658,4.0068,4.0436,4.0753,4.0768,3.9945,3.9991,3.9972,3.9492,3.8817,3.8736,3.8465,3.8718,3.8972,3.9069,3.9246,3.9485,3.9892,3.9857,3.9786,4.009,4.039,4.0673,4.0816,4.0867,4.1188,4.144,4.1555,4.1256,4.1037,4.0916,4.0813,4.0608,4.0218,3.9659,3.8928,3.813,3.7328,3.6565,3.6243,3.581,3.5998,3.6052,3.6286,3.6484,3.6674,3.6934,3.7259,3.7259,3.7391,3.7181,3.7069,3.6989,3.6776,3.6827,3.6787,3.6761,3.6884,3.7164,3.754,3.7723,3.7709,3.7546,3.7532,3.745,3.6971,3.6563,3.6217,3.5662,3.5032,3.4095,3.3079,3.2791,3.2683,3.2142,3.1749,3.1825,3.1825,3.1705,3.193,3.2211,3.285,3.3676,3.4266,3.463,3.5165,3.5368,3.5062,3.4876,3.5112,3.5223,3.5017]},{"header":{"parameterUnit":"m.s-1","parameterCategory":1,"la1":31.0,"la2":29.5877,"lo1":-88.7671,"lo2":-86.6584,"dy":0.0162,"dx":0.0185,"nx":115,"ny":88,"refTime":"2024-09-11T00:00:00:Z","depth":0,"parameterNumber":3,"parameterNumberName":"V-component_of_WINDS"},"data":[0.0,0.0,0.0,0.0,0.0,0.0,0.0,0.0,0.0,0.0,0.0,0.0,0.0,0.0,0.0,0.0,0.0,0.0,0.0,0.0,0.0,0.0,0.0,0.0,0.0,0.0,0.0,0.0,0.0,0.0,0.0,0.0,0.0,0.0,0.0,0.0,0.0,0.0,0.0,0.0,0.0,0.0,0.0,0.0,0.0,0.0,0.0,0.0,0.0,0.0,0.0,0.0,0.0,0.0,0.0,0.0,0.0,0.0,0.0,0.0,0.0,0.0,0.0,0.0,0.0,0.0,0.0,0.0,0.0,0.0,0.0,0.0,0.0,0.0,0.0,0.0,0.0,0.0,0.0,0.0,0.0,0.0,0.0,0.0,0.0,0.0,0.0,0.0,0.0,0.0,0.0,0.0,0.0,0.0,0.0,0.0,0.0,0.0,0.0,0.0,0.0,0.0,0.0,0.0,0.0,0.0,0.0,0.0,0.0,0.0,0.0,0.0,0.0,0.0,0.0,0.0,0.0,0.0,0.0,0.0,0.0,0.0,0.0,0.0,0.0,0.0,0.0,0.0,0.0,0.0,0.0,0.0,0.0,0.0,0.0,0.0,0.0,0.0,0.0,0.0,0.0,0.0,0.0,0.0,0.0,0.0,0.0,0.0,0.0,0.0,0.0,0.0,0.0,0.0,0.0,0.0,0.0,0.0,0.0,0.0,0.0,0.0,0.0,0.0,0.0,0.0,0.0,0.0,0.0,0.0,0.0,0.0,0.0,0.0,0.0,0.0,0.0,0.0,0.0,0.0,0.0,0.0,0.0,0.0,0.0,0.0,0.0,0.0,0.0,0.0,0.0,0.0,0.0,0.0,0.0,0.0,0.0,0.0,0.0,0.0,0.0,0.0,0.0,0.0,0.0,0.0,0.0,0.0,0.0,0.0,0.0,0.0,0.0,0.0,0.0,0.0,0.0,0.0,0.0,0.0,0.0,0.0,0.0,0.0,0.0,0.0,0.0,0.0,0.0,0.0,0.0,0.0,0.0,0.0,0.0,0.0,0.0,0.0,0.0,0.0,0.0,0.0,0.0,0.0,0.0,0.0,0.0,0.0,0.0,0.0,0.0,0.0,0.0,0.0,0.0,0.0,0.0,0.0,0.0,0.0,0.0,0.0,0.0,0.0,0.0,0.0,0.0,0.0,0.0,0.0,0.0,0.0,0.0,0.0,0.0,0.0,0.0,0.0,0.0,0.0,0.0,0.0,0.0,0.0,0.0,0.0,0.0,0.0,0.0,0.0,0.0,0.0,0.0,0.0,0.0,0.0,0.0,0.0,0.0,0.0,0.0,0.0,0.0,0.0,0.0,0.0,0.0,0.0,0.0,0.0,0.0,0.0,0.0,0.0,0.0,0.0,0.0,0.0,0.0,0.0,0.0,0.0,0.0,0.0,0.0,0.0,0.0,0.0,0.0,0.0,0.0,0.0,0.0,0.0,0.0,0.0,0.0,0.0,0.0,0.0,0.0,0.0,0.0,0.0,0.0,0.0,0.0,0.0,0.0,0.0,0.0,0.0,0.0,0.0,0.0,0.0,0.0,0.0,0.0,0.0,0.0,0.0,0.0,0.0,0.0,0.0,0.0,0.0,0.0,0.0,0.0,0.0,0.0,0.0,0.0,0.0,0.0,0.0,0.0,0.0,0.0,0.0,0.0,0.0,0.0,0.0,0.0,0.0,0.0,0.0,0.0,0.0,0.0,0.0,0.0,0.0,0.0,0.0,0.0,0.0,0.0,0.0,0.0,0.0,0.0,0.0,0.0,0.0,0.0,0.0,0.0,0.0,0.0,0.0,0.0,0.0,0.0,0.0,0.0,0.0,0.0,0.0,0.0,0.0,0.0,0.0,0.0,0.0,0.0,0.0,0.0,0.0,0.0,0.0,0.0,0.0,0.0,0.0,0.0,0.0,0.0,0.0,0.0,0.0,0.0,0.0,0.0,0.0,0.0,0.0,0.0,0.0,0.0,0.0,0.0,0.0,0.0,0.0,0.0,0.0,0.0,0.0,0.0,0.0,0.0,0.0,0.0,0.0,0.0,0.0,0.0,0.0,0.0,0.0,0.0,0.0,0.0,0.0,0.0,0.0,0.0,0.0,0.0,0.0,0.0,0.0,0.0,0.0,0.0,0.0,0.0,0.0,0.0,0.0,0.0,0.0,0.0,0.0,0.0,0.0,0.0,0.0,0.0,0.0,0.0,0.0,0.0,0.0,0.0,0.0,0.0,0.0,0.0,0.0,0.0,0.0,0.0,0.0,0.0,0.0,0.0,0.0,0.0,0.0,0.0,0.0,0.0,0.0,0.0,0.0,0.0,0.0,0.0,0.0,0.0,0.0,0.0,0.0,0.0,0.0,0.0,0.0,0.0,0.0,0.0,0.0,0.0,0.0,0.0,0.0,0.0,0.0,0.0,0.0,0.0,0.0,0.0,0.0,0.0,0.0,0.0,0.0,0.0,0.0,0.0,0.0,0.0,0.0,0.0,0.0,0.0,0.0,0.0,0.0,0.0,0.0,0.0,0.0,0.0,0.0,0.0,0.0,0.0,0.0,0.0,0.0,0.0,0.0,0.0,0.0,0.0,0.0,0.0,0.0,0.0,0.0,0.0,0.0,0.0,0.0,0.0,0.0,0.0,0.0,0.0,0.0,0.0,0.0,0.0,0.0,0.0,0.0,0.0,0.0,0.0,0.0,0.0,0.0,0.0,0.0,0.0,0.0,0.0,0.0,0.0,0.0,0.0,0.0,0.0,0.0,0.0,0.0,0.0,0.0,0.0,0.0,0.0,0.0,0.0,0.0,0.0,0.0,0.0,0.0,0.0,0.0,0.0,0.0,0.0,0.0,0.0,0.0,0.0,0.0,0.0,0.0,0.0,0.0,0.0,0.0,0.0,0.0,0.0,0.0,0.0,0.0,0.0,0.0,0.0,0.0,0.0,0.0,0.0,0.0,0.0,0.0,0.0,0.0,0.0,0.0,0.0,0.0,0.0,0.0,0.0,0.0,0.0,0.0,0.0,0.0,0.0,0.0,0.0,0.0,0.0,0.0,0.0,0.0,0.0,0.0,0.0,0.0,0.0,0.0,0.0,0.0,0.0,0.0,0.0,0.0,0.0,0.0,0.0,0.0,0.0,0.0,0.0,0.0,0.0,0.0,0.0,0.0,0.0,0.0,0.0,0.0,0.0,0.0,0.0,0.0,0.0,0.0,0.0,0.0,0.0,0.0,0.0,0.0,0.0,0.0,0.0,0.0,0.0,0.0,0.0,0.0,0.0,0.0,0.0,0.0,0.0,0.0,0.0,0.0,0.0,0.0,0.0,0.0,0.0,0.0,0.0,0.0,0.0,0.0,0.0,0.0,0.0,0.0,0.0,0.0,0.0,0.0,0.0,0.0,0.0,0.0,0.0,0.0,0.0,0.0,0.0,0.0,0.0,0.0,0.0,0.0,0.0,0.0,0.0,0.0,0.0,0.0,0.0,0.0,0.0,0.0,0.0,0.0,0.0,0.0,0.0,0.0,0.0,0.0,0.0,0.0,0.0,0.0,0.0,0.0,0.0,0.0,0.0,0.0,0.0,0.0,0.0,0.0,0.0,0.0,0.0,0.0,0.0,0.0,0.0,0.0,0.0,0.0,0.0,0.0,0.0,0.0,0.0,0.0,0.0,0.0,0.0,0.0,0.0,0.0,0.0,0.0,0.0,0.0,0.0,0.0,0.0,0.0,0.0,0.0,0.0,0.0,0.0,0.0,0.0,0.0,0.0,0.0,0.0,0.0,0.0,0.0,0.0,0.0,0.0,0.0,0.0,0.0,0.0,0.0,0.0,0.0,0.0,0.0,0.0,0.0,0.0,0.0,0.0,0.0,0.0,0.0,0.0,0.0,0.0,0.0,0.0,0.0,0.0,0.0,0.0,0.0,0.0,0.0,0.0,0.0,0.0,0.0,0.0,0.0,0.0,0.0,0.0,0.0,0.0,0.0,0.0,0.0,0.0,0.0,0.0,0.0,0.0,0.0,0.0,0.0,0.0,0.0,0.0,0.0,0.0,0.0,0.0,0.0,0.0,0.0,0.0,0.0,0.0,0.0,0.0,0.0,0.0,0.0,0.0,0.0,0.0,0.0,0.0,0.0,0.0,0.0,0.0,0.0,0.0,0.0,0.0,0.0,0.0,0.0,0.0,0.0,0.0,0.0,0.0,0.0,0.0,0.0,0.0,0.0,0.0,0.0,0.0,0.0,0.0,0.0,2.2781,0.0,0.0,0.0,0.0,0.0,0.0,0.0,0.0,0.0,0.0,0.0,0.0,0.0,0.0,0.0,0.0,0.0,0.0,0.0,0.0,0.0,0.0,0.0,0.0,0.0,0.0,0.0,0.0,0.0,0.0,0.0,0.0,0.0,0.0,0.0,0.0,0.0,0.0,0.0,0.0,0.0,0.0,0.0,0.0,0.0,0.0,0.0,0.0,0.0,0.0,0.0,0.0,0.0,0.0,0.0,0.0,0.0,0.0,0.0,0.0,0.0,0.0,0.0,0.0,0.0,0.0,0.0,0.0,0.0,0.0,0.0,0.0,0.0,0.0,0.0,0.0,0.0,0.0,0.0,0.0,0.0,0.0,0.0,0.0,0.0,0.0,0.0,0.0,0.0,0.0,0.0,0.0,0.0,0.0,0.0,0.0,0.0,0.0,0.0,0.0,0.0,0.0,0.0,0.0,0.0,0.0,0.0,0.0,0.0,0.0,2.1689,2.1656,2.2395,2.2797,2.2797,0.0,0.0,0.0,0.0,0.0,0.0,0.0,0.0,0.0,0.0,0.0,0.0,0.0,0.0,0.0,0.0,0.0,0.0,0.0,0.0,0.0,0.0,0.0,0.0,0.0,0.0,0.0,0.0,0.0,0.0,0.0,0.0,0.0,0.0,0.0,0.0,0.0,0.0,0.0,0.0,0.0,0.0,0.0,0.0,0.0,0.0,0.0,0.0,0.0,0.0,0.0,0.0,0.0,0.0,0.0,0.0,0.0,0.0,0.0,0.0,0.0,0.0,0.0,0.0,0.0,0.0,0.0,0.0,0.0,0.0,0.0,0.0,0.0,0.0,0.0,0.0,0.0,0.0,0.0,0.0,0.0,0.0,0.0,0.0,0.0,0.0,0.0,0.0,0.0,0.0,0.0,0.0,0.0,0.0,0.0,0.0,0.0,0.0,0.0,0.0,0.0,0.0,0.0,0.0,0.0,0.0,0.0,0.0,0.0,0.0,0.0,0.0,2.2337,2.2534,2.2573,0.0,0.0,0.0,0.0,0.0,0.0,0.0,0.0,0.0,0.0,0.0,0.0,0.0,0.0,0.0,0.0,0.0,0.0,0.0,0.0,0.0,0.0,0.0,0.0,0.0,0.0,0.0,0.0,0.0,0.0,0.0,0.0,0.0,0.0,0.0,0.0,0.0,0.0,0.0,0.0,0.0,0.0,0.0,0.0,0.0,0.0,0.0,0.0,0.0,0.0,0.0,0.0,0.0,0.0,0.0,0.0,0.0,0.0,0.0,0.0,0.0,0.0,0.0,0.0,0.0,0.0,0.0,0.0,0.0,0.0,0.0,0.0,0.0,0.0,0.0,0.0,0.0,0.0,0.0,0.0,0.0,0.0,0.0,0.0,0.0,0.0,0.0,0.0,0.0,0.0,0.0,0.0,0.0,0.0,0.0,0.0,0.0,0.0,0.0,0.0,0.0,0.0,0.0,0.0,0.0,0.0,0.0,0.0,0.0,0.0,2.2034,2.2666,2.2037,0.0,2.1858,0.0,0.0,0.0,0.0,0.0,0.0,0.0,0.0,0.0,0.0,0.0,0.0,0.0,0.0,0.0,0.0,0.0,0.0,0.0,0.0,0.0,0.0,0.0,0.0,0.0,0.0,0.0,0.0,0.0,0.0,0.0,0.0,0.0,0.0,0.0,0.0,0.0,0.0,0.0,0.0,0.0,0.0,0.0,0.0,0.0,0.0,0.0,0.0,0.0,0.0,0.0,0.0,0.0,0.0,0.0,0.0,0.0,0.0,0.0,0.0,0.0,0.0,0.0,0.0,0.0,0.0,0.0,0.0,0.0,0.0,0.0,0.0,0.0,0.0,0.0,0.0,0.0,0.0,0.0,0.0,0.0,0.0,0.0,0.0,0.0,0.0,0.0,0.0,0.0,0.0,0.0,0.0,0.0,0.0,0.0,0.0,0.0,0.0,0.0,0.0,0.0,0.0,0.0,0.0,0.0,0.0,0.0,0.0,0.0,0.0,2.1898,2.2304,2.1625,2.1347,0.0,0.0,0.0,0.0,0.0,0.0,0.0,0.0,0.0,0.0,0.0,0.0,0.0,0.0,0.0,0.0,0.0,0.0,0.0,0.0,0.0,0.0,0.0,0.0,0.0,0.0,0.0,0.0,0.0,0.0,0.0,0.0,0.0,0.0,0.0,0.0,0.0,0.0,0.0,0.0,0.0,0.0,0.0,0.0,0.0,0.0,0.0,0.0,0.0,0.0,0.0,0.0,0.0,0.0,0.0,0.0,0.0,0.0,0.0,0.0,0.0,0.0,0.0,0.0,0.0,0.0,0.0,0.0,0.0,0.0,0.0,0.0,0.0,0.0,0.0,0.0,0.0,0.0,0.0,0.0,0.0,0.0,0.0,0.0,0.0,0.0,0.0,0.0,0.0,0.0,0.0,0.0,0.0,0.0,0.0,0.0,0.0,0.0,0.0,0.0,0.0,0.0,0.0,0.0,0.0,0.0,0.0,0.0,0.0,0.0,2.2211,2.1697,2.1775,2.1454,2.1223,2.1162,0.0,0.0,0.0,0.0,0.0,0.0,0.0,0.0,0.0,0.0,0.0,0.0,0.0,0.0,0.0,0.0,0.0,0.0,0.0,0.0,0.0,0.0,0.0,0.0,0.0,0.0,0.0,0.0,0.0,0.0,0.0,0.0,0.0,0.0,0.0,0.0,0.0,0.0,0.0,0.0,0.0,0.0,0.0,0.0,0.0,0.0,0.0,0.0,0.0,0.0,0.0,0.0,0.0,0.0,0.0,0.0,0.0,0.0,0.0,0.0,0.0,0.0,0.0,0.0,0.0,0.0,0.0,0.0,0.0,0.0,0.0,0.0,0.0,0.0,0.0,0.0,0.0,0.0,0.0,0.0,0.0,0.0,0.0,0.0,0.0,0.0,0.0,0.0,0.0,0.0,0.0,0.0,0.0,0.0,0.0,0.0,0.0,0.0,0.0,0.0,0.0,0.0,0.0,0.0,0.0,0.0,0.0,0.0,2.3653,2.2297,2.1464,2.1375,2.1661,2.1464,0.0,0.0,0.0,0.0,0.0,0.0,0.0,0.0,0.0,0.0,0.0,0.0,0.0,0.0,0.0,0.0,0.0,0.0,0.0,0.0,0.0,0.0,0.0,0.0,0.0,0.0,0.0,0.0,0.0,0.0,0.0,0.0,0.0,0.0,0.0,0.0,0.0,0.0,0.0,0.0,0.0,0.0,0.0,0.0,0.0,0.0,0.0,0.0,0.0,0.0,0.0,0.0,0.0,0.0,0.0,0.0,0.0,0.0,0.0,0.0,0.0,0.0,0.0,0.0,0.0,0.0,0.0,0.0,0.0,0.0,0.0,0.0,0.0,0.0,0.0,0.0,0.0,0.0,0.0,0.0,0.0,0.0,0.0,0.0,0.0,0.0,0.0,0.0,0.0,0.0,0.0,0.0,0.0,0.0,0.0,0.0,0.0,0.0,0.0,0.0,0.0,0.0,0.0,0.0,0.0,0.0,0.0,0.0,0.0,2.3371,2.2776,2.2191,2.1649,2.1227,2.0591,0.0,0.0,0.0,0.0,0.0,0.0,0.0,0.0,0.0,0.0,0.0,0.0,0.0,0.0,0.0,0.0,0.0,0.0,0.0,0.0,0.0,0.0,0.0,0.0,0.0,0.0,0.0,0.0,0.0,0.0,0.0,0.0,0.0,0.0,0.0,0.0,0.0,0.0,0.0,0.0,0.0,0.0,0.0,0.0,0.0,0.0,0.0,0.0,0.0,0.0,0.0,0.0,0.0,0.0,0.0,0.0,0.0,0.0,0.0,0.0,0.0,0.0,0.0,0.0,0.0,0.0,0.0,0.0,0.0,0.0,0.0,0.0,0.0,0.0,0.0,0.0,0.0,0.0,0.0,0.0,0.0,0.0,0.0,0.0,0.0,0.0,0.0,0.0,0.0,0.0,0.0,0.0,0.0,0.0,0.0,0.0,0.0,0.0,0.0,0.0,0.0,0.0,0.0,0.0,0.0,0.0,0.0,0.0,0.0,2.2486,0.0,2.2195,2.151,2.1024,2.0263,0.0,0.0,0.0,0.0,0.0,0.0,0.0,0.0,0.0,0.0,0.0,0.0,0.0,0.0,0.0,0.0,0.0,0.0,0.0,0.0,0.0,0.0,0.0,0.0,0.0,0.0,0.0,0.0,0.0,0.0,0.0,0.0,0.0,0.0,0.0,0.0,0.0,0.0,0.0,0.0,0.0,0.0,0.0,0.0,0.0,0.0,0.0,0.0,0.0,0.0,0.0,0.0,0.0,0.0,0.0,0.0,0.0,0.0,0.0,0.0,0.0,0.0,0.0,0.0,0.0,0.0,0.0,0.0,0.0,0.0,0.0,0.0,0.0,0.0,0.0,0.0,0.0,0.0,0.0,0.0,0.0,0.0,0.0,0.0,0.0,0.0,0.0,0.0,0.0,0.0,0.0,0.0,0.0,0.0,0.0,0.0,0.0,0.0,0.0,0.0,0.0,0.0,0.0,0.0,0.0,0.0,0.0,0.0,2.2641,2.1037,2.1411,2.1469,2.0865,2.1181,2.0649,0.0,0.0,0.0,0.0,0.0,0.0,0.0,0.0,0.0,0.0,0.0,0.0,0.0,0.0,0.0,0.0,0.0,0.0,0.0,0.0,0.0,0.0,0.0,0.0,0.0,0.0,0.0,0.0,0.0,0.0,0.0,0.0,0.0,0.0,0.0,0.0,0.0,0.0,0.0,0.0,0.0,0.0,0.0,0.0,0.0,0.0,0.0,0.0,0.0,0.0,0.0,0.0,0.0,0.0,0.0,0.0,0.0,0.0,0.0,0.0,0.0,0.0,0.0,0.0,0.0,0.0,0.0,0.0,0.0,0.0,0.0,0.0,0.0,0.0,0.0,0.0,0.0,0.0,0.0,0.0,0.0,0.0,0.0,0.0,0.0,0.0,0.0,0.0,0.0,0.0,0.0,0.0,0.0,0.0,0.0,0.0,0.0,0.0,0.0,0.0,0.0,0.0,0.0,0.0,0.0,0.0,0.0,0.0,0.0,2.1144,2.1887,2.2272,2.2236,2.1249,2.067,0.0,0.0,0.0,0.0,0.0,0.0,0.0,0.0,0.0,0.0,0.0,0.0,0.0,0.0,0.0,0.0,0.0,0.0,0.0,0.0,0.0,0.0,0.0,0.0,0.0,0.0,0.0,0.0,0.0,0.0,0.0,0.0,0.0,0.0,0.0,0.0,0.0,0.0,0.0,0.0,0.0,0.0,0.0,0.0,0.0,0.0,0.0,0.0,0.0,0.0,0.0,0.0,0.0,0.0,0.0,0.0,0.0,0.0,0.0,0.0,0.0,0.0,0.0,0.0,0.0,0.0,0.0,0.0,0.0,0.0,0.0,0.0,0.0,0.0,0.0,0.0,0.0,0.0,0.0,0.0,0.0,0.0,0.0,0.0,0.0,0.0,0.0,0.0,0.0,0.0,0.0,0.0,0.0,0.0,0.0,0.0,0.0,0.0,0.0,0.0,0.0,0.0,0.0,0.0,0.0,0.0,0.0,0.0,0.0,2.1541,2.2155,2.2507,2.2524,2.1462,2.0839,2.0747,0.0,0.0,0.0,0.0,0.0,0.0,0.0,0.0,0.0,0.0,0.0,0.0,0.0,0.0,0.0,0.0,0.0,0.0,0.0,0.0,0.0,0.0,0.0,0.0,0.0,0.0,0.0,0.0,0.0,0.0,0.0,0.0,0.0,0.0,0.0,0.0,0.0,0.0,0.0,0.0,0.0,0.0,0.0,0.0,0.0,0.0,0.0,0.0,0.0,0.0,0.0,0.0,0.0,0.0,0.0,0.0,0.0,0.0,0.0,0.0,0.0,0.0,0.0,0.0,0.0,0.0,0.0,0.0,0.0,0.0,0.0,0.0,0.0,0.0,0.0,0.0,0.0,0.0,0.0,0.0,0.0,0.0,0.0,0.0,0.0,0.0,0.0,0.0,0.0,0.0,0.0,0.0,0.0,0.0,0.0,0.0,0.0,0.0,0.0,0.0,0.0,0.0,0.0,0.0,0.0,0.0,0.0,0.0,2.2163,2.2359,2.2374,2.2137,2.1889,2.1225,0.0,0.0,0.0,0.0,0.0,0.0,0.0,0.0,0.0,0.0,0.0,0.0,0.0,0.0,0.0,0.0,0.0,0.0,0.0,0.0,0.0,0.0,0.0,0.0,0.0,0.0,0.0,0.0,0.0,0.0,0.0,0.0,0.0,0.0,0.0,0.0,0.0,0.0,0.0,0.0,0.0,0.0,0.0,0.0,0.0,0.0,0.0,0.0,0.0,0.0,0.0,0.0,0.0,0.0,0.0,0.0,0.0,0.0,0.0,0.0,0.0,0.0,0.0,0.0,0.0,0.0,0.0,0.0,0.0,0.0,0.0,0.0,0.0,0.0,0.0,0.0,0.0,0.0,0.0,0.0,0.0,0.0,0.0,0.0,0.0,0.0,0.0,0.0,0.0,0.0,0.0,0.0,0.0,0.0,0.0,0.0,0.0,0.0,0.0,0.0,0.0,0.0,0.0,0.0,0.0,0.0,0.0,0.0,0.0,2.2985,2.399,2.4439,2.4238,2.293,2.2443,0.0,0.0,0.0,0.0,0.0,0.0,0.0,0.0,0.0,0.0,0.0,0.0,0.0,0.0,0.0,0.0,0.0,0.0,0.0,0.0,0.0,0.0,0.0,0.0,0.0,0.0,0.0,0.0,0.0,0.0,0.0,0.0,0.0,0.0,0.0,0.0,0.0,0.0,0.0,0.0,0.0,0.0,0.0,0.0,0.0,0.0,0.0,0.0,0.0,0.0,0.0,0.0,0.0,0.0,0.0,0.0,0.0,0.0,0.0,0.0,0.0,0.0,0.0,0.0,0.0,0.0,0.0,0.0,0.0,0.0,0.0,0.0,0.0,0.0,0.0,0.0,0.0,0.0,0.0,0.0,0.0,0.0,0.0,0.0,0.0,0.0,0.0,0.0,0.0,0.0,0.0,0.0,0.0,0.0,0.0,0.0,0.0,0.0,0.0,0.0,0.0,0.0,0.0,0.0,0.0,0.0,0.0,0.0,2.2812,2.3736,2.4839,2.5429,2.5526,2.4222,2.3482,0.0,0.0,0.0,0.0,0.0,0.0,0.0,0.0,0.0,0.0,0.0,0.0,0.0,0.0,0.0,0.0,0.0,0.0,0.0,0.0,0.0,0.0,0.0,0.0,0.0,0.0,0.0,0.0,0.0,0.0,0.0,0.0,0.0,0.0,0.0,0.0,0.0,0.0,0.0,0.0,0.0,0.0,0.0,0.0,0.0,0.0,0.0,0.0,0.0,0.0,0.0,0.0,0.0,0.0,0.0,0.0,0.0,0.0,0.0,0.0,0.0,0.0,0.0,0.0,0.0,0.0,0.0,0.0,0.0,0.0,0.0,0.0,0.0,0.0,0.0,0.0,0.0,0.0,0.0,0.0,0.0,0.0,0.0,0.0,0.0,0.0,0.0,0.0,0.0,0.0,0.0,0.0,0.0,0.0,0.0,0.0,0.0,0.0,0.0,0.0,0.0,0.0,0.0,0.0,0.0,0.0,0.0,0.0,2.346,2.4292,2.5116,2.5666,2.5928,2.5266,2.4307,0.0,0.0,0.0,0.0,0.0,0.0,0.0,0.0,0.0,0.0,0.0,0.0,0.0,0.0,0.0,0.0,0.0,0.0,0.0,0.0,0.0,0.0,0.0,0.0,0.0,0.0,0.0,0.0,0.0,0.0,0.0,0.0,0.0,0.0,0.0,0.0,0.0,0.0,0.0,0.0,0.0,0.0,0.0,0.0,0.0,0.0,0.0,0.0,0.0,0.0,0.0,0.0,0.0,0.0,0.0,0.0,0.0,0.0,0.0,0.0,0.0,0.0,0.0,0.0,0.0,0.0,0.0,0.0,0.0,0.0,0.0,0.0,0.0,0.0,0.0,0.0,0.0,0.0,0.0,0.0,0.0,0.0,0.0,0.0,0.0,0.0,0.0,0.0,0.0,0.0,0.0,0.0,0.0,0.0,0.0,0.0,0.0,0.0,0.0,0.0,0.0,0.0,0.0,0.0,0.0,0.0,0.0,0.0,2.3498,2.3713,2.5038,2.5556,2.5166,2.4497,2.4131,0.0,0.0,0.0,0.0,0.0,0.0,0.0,0.0,0.0,0.0,0.0,0.0,0.0,0.0,0.0,0.0,0.0,0.0,0.0,0.0,0.0,0.0,0.0,0.0,0.0,0.0,0.0,0.0,0.0,0.0,0.0,0.0,0.0,0.0,0.0,0.0,0.0,0.0,0.0,0.0,0.0,0.0,0.0,0.0,0.0,0.0,0.0,0.0,2.4718,0.0,0.0,0.0,0.0,0.0,0.0,0.0,0.0,0.0,0.0,0.0,0.0,0.0,0.0,0.0,0.0,0.0,0.0,0.0,0.0,0.0,0.0,0.0,0.0,0.0,0.0,0.0,0.0,0.0,0.0,0.0,0.0,0.0,0.0,0.0,0.0,0.0,0.0,0.0,0.0,0.0,0.0,0.0,0.0,0.0,0.0,0.0,0.0,0.0,0.0,0.0,0.0,0.0,0.0,0.0,0.0,0.0,0.0,0.0,2.3744,2.3893,2.5049,2.5236,2.4388,2.4059,2.4071,0.0,0.0,0.0,0.0,0.0,0.0,0.0,0.0,0.0,0.0,0.0,0.0,0.0,0.0,0.0,0.0,0.0,0.0,0.0,0.0,0.0,0.0,0.0,0.0,0.0,0.0,0.0,0.0,0.0,0.0,0.0,0.0,0.0,0.0,0.0,0.0,0.0,0.0,0.0,0.0,0.0,0.0,0.0,0.0,0.0,0.0,0.0,0.0,0.0,0.0,0.0,0.0,0.0,0.0,0.0,0.0,0.0,0.0,0.0,0.0,0.0,0.0,0.0,0.0,0.0,0.0,0.0,0.0,0.0,0.0,0.0,0.0,0.0,0.0,0.0,0.0,0.0,0.0,0.0,0.0,0.0,0.0,0.0,0.0,0.0,0.0,0.0,0.0,0.0,0.0,0.0,0.0,0.0,0.0,0.0,0.0,0.0,0.0,0.0,0.0,0.0,0.0,0.0,0.0,0.0,0.0,0.0,2.3665,2.4028,2.4448,2.4984,2.4895,2.4091,2.394,2.4064,2.4465,0.0,0.0,0.0,0.0,0.0,0.0,0.0,0.0,0.0,0.0,0.0,0.0,0.0,0.0,0.0,0.0,0.0,0.0,0.0,0.0,0.0,0.0,0.0,0.0,0.0,0.0,0.0,0.0,0.0,0.0,0.0,0.0,0.0,0.0,0.0,0.0,0.0,0.0,2.2948,2.4316,0.0,0.0,0.0,0.0,0.0,0.0,0.0,0.0,2.6658,0.0,0.0,0.0,0.0,0.0,0.0,0.0,0.0,0.0,0.0,0.0,0.0,0.0,0.0,0.0,0.0,0.0,0.0,0.0,0.0,0.0,0.0,0.0,0.0,0.0,0.0,0.0,0.0,0.0,0.0,0.0,0.0,0.0,0.0,0.0,0.0,0.0,0.0,0.0,0.0,0.0,0.0,0.0,0.0,0.0,0.0,0.0,0.0,0.0,0.0,0.0,0.0,0.0,0.0,0.0,0.0,2.3835,2.3667,2.405,2.502,2.4572,2.4735,2.5546,2.4399,2.4078,2.4692,0.0,0.0,0.0,0.0,0.0,0.0,0.0,0.0,0.0,0.0,0.0,0.0,0.0,0.0,0.0,0.0,0.0,0.0,0.0,0.0,0.0,0.0,0.0,0.0,0.0,0.0,0.0,0.0,0.0,0.0,0.0,0.0,0.0,0.0,0.0,0.0,0.0,0.0,0.0,2.5486,2.6388,0.0,0.0,0.0,0.0,0.0,0.0,0.0,0.0,2.7547,0.0,0.0,0.0,0.0,0.0,0.0,0.0,0.0,0.0,0.0,0.0,0.0,0.0,0.0,0.0,0.0,0.0,0.0,0.0,0.0,0.0,0.0,0.0,0.0,0.0,0.0,0.0,0.0,0.0,0.0,0.0,0.0,0.0,0.0,0.0,0.0,0.0,0.0,0.0,0.0,0.0,0.0,0.0,0.0,0.0,0.0,0.0,0.0,0.0,0.0,0.0,0.0,0.0,0.0,0.0,2.4161,2.4053,2.4414,2.5321,2.5002,2.472,2.4488,2.424,2.3896,0.0,0.0,0.0,0.0,0.0,0.0,0.0,0.0,0.0,0.0,0.0,0.0,0.0,0.0,0.0,0.0,0.0,0.0,0.0,0.0,0.0,0.0,0.0,0.0,0.0,0.0,0.0,0.0,0.0,0.0,0.0,0.0,0.0,0.0,0.0,0.0,0.0,0.0,0.0,0.0,2.6296,2.7185,2.7649,0.0,0.0,0.0,0.0,0.0,0.0,2.7667,2.8132,0.0,0.0,0.0,0.0,0.0,0.0,0.0,0.0,0.0,0.0,0.0,0.0,0.0,0.0,0.0,0.0,0.0,0.0,0.0,0.0,0.0,0.0,0.0,0.0,0.0,0.0,0.0,0.0,0.0,0.0,0.0,0.0,0.0,0.0,0.0,0.0,0.0,0.0,0.0,0.0,0.0,0.0,0.0,0.0,0.0,0.0,0.0,0.0,0.0,0.0,0.0,0.0,0.0,0.0,0.0,2.4425,2.4444,2.4739,2.533,2.5146,2.4569,2.3569,2.3771,2.3465,0.0,0.0,0.0,0.0,0.0,0.0,0.0,0.0,0.0,0.0,0.0,0.0,0.0,0.0,0.0,0.0,0.0,0.0,0.0,0.0,0.0,0.0,0.0,0.0,0.0,0.0,0.0,0.0,0.0,0.0,0.0,0.0,0.0,0.0,0.0,0.0,0.0,0.0,0.0,0.0,0.0,2.8229,2.8131,2.8432,0.0,0.0,0.0,0.0,2.7587,2.84,0.0,0.0,0.0,0.0,0.0,0.0,0.0,0.0,0.0,0.0,0.0,0.0,0.0,0.0,0.0,0.0,0.0,0.0,0.0,0.0,0.0,0.0,0.0,0.0,0.0,0.0,0.0,0.0,0.0,0.0,0.0,0.0,0.0,0.0,0.0,0.0,0.0,0.0,0.0,0.0,0.0,0.0,0.0,0.0,0.0,0.0,0.0,0.0,0.0,0.0,0.0,0.0,0.0,0.0,0.0,0.0,2.4262,2.4435,2.4661,2.4917,2.3981,2.397,2.4978,2.2981,2.2542,0.0,0.0,0.0,0.0,0.0,0.0,0.0,0.0,0.0,0.0,0.0,0.0,0.0,0.0,0.0,0.0,0.0,0.0,0.0,0.0,0.0,0.0,0.0,0.0,0.0,0.0,0.0,0.0,0.0,0.0,0.0,0.0,0.0,0.0,0.0,0.0,0.0,0.0,0.0,0.0,0.0,2.9587,2.8885,2.8827,2.9047,0.0,0.0,2.9285,3.0467,3.0274,0.0,0.0,0.0,0.0,0.0,0.0,0.0,0.0,0.0,0.0,0.0,0.0,0.0,0.0,0.0,0.0,0.0,0.0,0.0,0.0,0.0,0.0,0.0,0.0,0.0,0.0,0.0,0.0,0.0,0.0,0.0,0.0,0.0,0.0,0.0,0.0,0.0,0.0,0.0,0.0,0.0,0.0,0.0,0.0,0.0,0.0,0.0,0.0,0.0,0.0,0.0,0.0,0.0,0.0,0.0,2.3201,2.4621,2.4519,2.4599,2.4849,2.3978,2.3587,2.3817,2.2779,2.2315,0.0,0.0,0.0,0.0,0.0,0.0,0.0,0.0,0.0,0.0,0.0,0.0,0.0,0.0,0.0,0.0,0.0,0.0,0.0,0.0,0.0,0.0,0.0,0.0,0.0,0.0,0.0,0.0,0.0,0.0,0.0,0.0,0.0,0.0,0.0,0.0,0.0,0.0,0.0,0.0,0.0,0.0,2.9624,2.993,0.0,0.0,0.0,3.0299,3.0545,0.0,0.0,0.0,0.0,0.0,0.0,0.0,0.0,0.0,0.0,0.0,0.0,0.0,0.0,0.0,0.0,0.0,0.0,0.0,0.0,0.0,0.0,0.0,0.0,0.0,0.0,0.0,0.0,0.0,0.0,0.0,0.0,0.0,0.0,0.0,0.0,0.0,0.0,0.0,0.0,0.0,0.0,0.0,0.0,0.0,0.0,0.0,0.0,0.0,0.0,0.0,0.0,0.0,0.0,0.0,0.0,0.0,2.4705,2.4718,2.4623,2.4463,2.388,2.325,2.2557,2.2433,0.0,0.0,0.0,0.0,0.0,0.0,0.0,0.0,0.0,0.0,0.0,0.0,0.0,0.0,0.0,0.0,0.0,0.0,0.0,0.0,0.0,0.0,0.0,0.0,0.0,0.0,0.0,2.1261,0.0,0.0,0.0,0.0,0.0,0.0,0.0,0.0,0.0,0.0,0.0,0.0,0.0,0.0,3.0598,3.0396,3.1019,3.1308,0.0,0.0,3.0791,3.044,3.0203,2.9833,0.0,0.0,0.0,0.0,0.0,0.0,0.0,0.0,0.0,0.0,0.0,0.0,0.0,0.0,0.0,0.0,0.0,0.0,0.0,0.0,0.0,0.0,0.0,0.0,0.0,0.0,0.0,0.0,0.0,0.0,0.0,0.0,0.0,0.0,0.0,0.0,0.0,0.0,0.0,0.0,0.0,0.0,0.0,0.0,0.0,0.0,0.0,0.0,0.0,0.0,0.0,0.0,0.0,0.0,2.3251,2.397,2.4989,2.4805,2.3399,2.326,2.2855,2.2066,2.1503,2.1496,0.0,0.0,0.0,0.0,0.0,0.0,0.0,0.0,0.0,0.0,0.0,0.0,0.0,0.0,0.0,0.0,0.0,0.0,0.0,0.0,0.0,0.0,0.0,0.0,0.0,0.0,0.0,0.0,0.0,0.0,0.0,0.0,0.0,0.0,0.0,0.0,0.0,0.0,0.0,0.0,0.0,3.1984,3.122,3.1817,3.23,0.0,3.1063,3.0387,3.1019,3.0537,2.9825,2.9043,0.0,0.0,0.0,0.0,0.0,0.0,0.0,0.0,0.0,0.0,0.0,0.0,0.0,0.0,0.0,0.0,0.0,0.0,0.0,0.0,0.0,0.0,0.0,0.0,0.0,0.0,0.0,0.0,0.0,0.0,0.0,0.0,0.0,0.0,0.0,0.0,0.0,0.0,0.0,0.0,0.0,0.0,0.0,0.0,0.0,0.0,0.0,0.0,0.0,0.0,0.0,0.0,0.0,2.3235,2.3913,2.5031,2.4811,2.3273,2.32,2.2803,2.2022,2.1413,2.1423,0.0,0.0,0.0,0.0,0.0,0.0,0.0,0.0,0.0,0.0,0.0,0.0,0.0,0.0,0.0,0.0,0.0,0.0,0.0,0.0,0.0,0.0,0.0,0.0,0.0,0.0,0.0,0.0,2.2952,2.2852,2.3078,0.0,0.0,0.0,0.0,0.0,0.0,0.0,0.0,0.0,0.0,3.2625,3.3275,3.3213,0.0,0.0,3.2581,3.195,3.1308,3.0974,3.051,2.9755,2.9221,0.0,0.0,0.0,0.0,0.0,0.0,0.0,0.0,0.0,0.0,0.0,0.0,0.0,0.0,0.0,0.0,0.0,0.0,0.0,0.0,0.0,0.0,0.0,0.0,0.0,0.0,0.0,0.0,0.0,0.0,0.0,0.0,0.0,0.0,0.0,0.0,0.0,0.0,0.0,0.0,0.0,0.0,0.0,0.0,0.0,0.0,0.0,0.0,0.0,0.0,0.0,0.0,2.3284,2.3353,2.5038,2.5118,2.3464,2.328,2.2725,2.1713,2.1468,2.1526,0.0,0.0,0.0,0.0,0.0,0.0,0.0,0.0,0.0,0.0,0.0,0.0,0.0,0.0,0.0,0.0,0.0,0.0,0.0,0.0,0.0,0.0,0.0,0.0,0.0,0.0,0.0,0.0,2.346,2.3205,2.3144,0.0,0.0,0.0,0.0,0.0,0.0,0.0,0.0,0.0,0.0,3.3398,3.4205,3.4073,3.3766,3.3529,3.3099,3.252,3.1694,3.1545,3.1317,3.0562,0.0,0.0,0.0,0.0,0.0,0.0,0.0,0.0,0.0,0.0,0.0,0.0,0.0,0.0,0.0,0.0,0.0,0.0,0.0,0.0,0.0,0.0,0.0,0.0,0.0,0.0,0.0,1.8032,0.0,0.0,1.8067,0.0,0.0,0.0,0.0,0.0,0.0,0.0,0.0,0.0,0.0,0.0,0.0,0.0,0.0,0.0,0.0,0.0,0.0,0.0,0.0,0.0,0.0,2.3421,2.2123,2.5105,2.5796,2.406,2.3487,2.2501,2.1092,2.1633,2.1748,2.1239,0.0,0.0,0.0,0.0,0.0,0.0,0.0,0.0,0.0,0.0,0.0,0.0,0.0,0.0,0.0,0.0,0.0,0.0,0.0,0.0,0.0,0.0,0.0,0.0,0.0,0.0,2.4605,2.3833,2.33,0.0,0.0,0.0,0.0,0.0,0.0,0.0,0.0,0.0,3.3231,3.4161,3.4381,3.3705,3.4205,3.4442,3.3669,3.2327,3.1589,3.23,3.2388,3.2107,0.0,0.0,0.0,0.0,0.0,0.0,0.0,0.0,0.0,0.0,0.0,0.0,0.0,0.0,0.0,0.0,0.0,0.0,0.0,0.0,0.0,0.0,0.0,0.0,0.0,0.0,0.0,1.9741,1.9569,0.0,0.0,0.0,0.0,0.0,0.0,0.0,0.0,0.0,0.0,0.0,2.2696,2.4034,0.0,0.0,0.0,0.0,0.0,0.0,0.0,0.0,0.0,0.0,0.0,0.0,2.42,2.3111,2.5528,2.6357,2.5213,2.4234,2.356,2.3246,2.2988,2.2356,2.1294,0.0,0.0,0.0,0.0,0.0,0.0,0.0,0.0,0.0,0.0,0.0,0.0,0.0,0.0,0.0,0.0,0.0,0.0,0.0,0.0,0.0,0.0,0.0,0.0,0.0,2.3973,0.0,0.0,0.0,0.0,0.0,0.0,0.0,0.0,0.0,0.0,3.1907,3.3117,3.4179,3.4951,3.553,3.5786,3.6059,3.5944,0.0,0.0,0.0,0.0,0.0,0.0,0.0,0.0,0.0,0.0,0.0,0.0,0.0,0.0,3.8314,3.5259,3.4065,3.3653,3.3908,0.0,0.0,0.0,0.0,0.0,0.0,0.0,0.0,0.0,0.0,0.0,0.0,0.0,0.0,2.0858,2.083,2.0472,0.0,0.0,0.0,0.0,0.0,0.0,0.0,0.0,2.3585,2.4369,2.4451,2.538,2.5699,0.0,2.5155,2.4233,0.0,0.0,0.0,0.0,0.0,0.0,0.0,0.0,2.5207,2.4658,2.6487,2.6912,2.5782,2.5008,2.4302,2.369,2.3214,2.269,2.2013,2.1727,2.1423,0.0,0.0,0.0,0.0,0.0,0.0,0.0,0.0,0.0,0.0,0.0,0.0,0.0,0.0,0.0,0.0,0.0,0.0,0.0,0.0,0.0,0.0,0.0,2.4155,0.0,0.0,0.0,0.0,0.0,0.0,0.0,0.0,0.0,3.244,3.352,3.4792,3.6127,3.625,3.6496,3.7278,0.0,0.0,0.0,0.0,0.0,0.0,0.0,3.6373,3.6574,3.6451,3.6644,3.7619,3.9076,3.9908,3.9382,0.0,0.0,3.7637,3.6654,3.6391,3.6664,3.673,3.6634,3.6357,3.6738,3.6986,0.0,0.0,0.0,0.0,2.102,0.0,0.0,0.0,2.1325,2.1655,0.0,2.1767,0.0,0.0,0.0,0.0,2.0666,2.3172,0.0,0.0,2.512,2.5955,2.6775,2.6278,2.6191,2.6587,2.7269,2.6847,2.5355,2.4117,0.0,0.0,0.0,0.0,0.0,0.0,2.6416,2.6706,2.7866,2.7551,2.5814,2.5828,2.4804,2.2634,2.2515,2.2789,2.331,2.3474,2.325,2.2565,2.2484,0.0,0.0,0.0,0.0,0.0,0.0,0.0,0.0,0.0,0.0,0.0,0.0,0.0,0.0,0.0,0.0,0.0,0.0,0.0,0.0,2.4932,0.0,0.0,0.0,0.0,0.0,0.0,0.0,0.0,0.0,3.6609,3.5234,3.5573,3.6749,3.8961,0.0,0.0,0.0,0.0,3.7366,3.8013,3.7577,3.7419,3.8048,3.8768,3.9013,3.8329,0.0,0.0,3.9599,4.0593,4.1095,3.9663,4.0628,4.1604,4.1499,4.0207,3.955,4.0211,3.921,3.8539,3.9154,3.9241,3.9305,2.2489,0.0,0.0,0.0,0.0,2.2099,2.2613,2.3665,2.3055,2.3012,2.3397,2.3096,0.0,0.0,0.0,0.0,0.0,0.0,2.3728,2.4292,2.5382,2.6268,2.6984,2.7561,2.789,2.7984,2.7752,2.7417,2.6998,2.6069,2.4962,2.3685,0.0,0.0,0.0,0.0,2.7442,2.7572,2.8785,2.887,2.7621,2.765,2.6981,2.5554,2.4648,2.4233,2.4368,2.3972,2.3612,2.3291,2.2843,0.0,0.0,0.0,0.0,0.0,0.0,0.0,0.0,0.0,0.0,0.0,0.0,0.0,0.0,0.0,0.0,0.0,0.0,0.0,2.4907,2.4975,2.5901,0.0,0.0,0.0,0.0,0.0,0.0,0.0,0.0,0.0,3.8222,3.8386,3.8642,0.0,0.0,3.8828,3.8946,3.9262,3.9378,3.8996,3.9698,0.0,3.9852,3.9515,3.9592,4.0463,4.1165,4.1446,4.1025,4.1295,4.1464,4.0996,4.1306,4.1604,4.1569,4.1271,4.1025,4.12,4.0902,4.0674,4.0884,4.0944,4.0909,2.4297,2.3535,2.3711,2.3859,2.3953,2.3766,2.4049,2.4663,2.4244,2.4269,2.4596,2.4364,2.3861,2.3191,2.3217,0.0,0.0,0.0,2.4601,2.5415,2.5997,2.6657,2.737,2.7984,2.8384,2.8513,2.8434,2.838,2.838,2.8272,2.7387,2.5836,0.0,2.5732,2.5354,2.6845,2.7543,2.7434,2.8595,2.8884,2.8207,2.7905,2.728,2.6267,2.5556,2.4971,2.4569,2.4503,2.4284,2.3978,2.3583,2.3111,0.0,0.0,0.0,0.0,0.0,0.0,0.0,0.0,0.0,0.0,0.0,2.4365,2.4089,0.0,0.0,0.0,2.5463,2.6007,2.6849,2.7681,0.0,0.0,0.0,0.0,0.0,0.0,0.0,3.8227,3.8844,3.9375,3.9987,4.0248,4.0394,4.0292,3.9827,3.9552,3.9673,0.0,3.9838,3.9294,4.0052,4.0533,4.0095,3.9894,4.0189,4.1411,4.1604,4.1604,4.1604,4.1604,4.1604,4.1604,4.1604,4.1604,4.1604,4.1604,4.1604,4.1604,4.1604,4.1604,4.1604,4.1604,4.1604,2.5935,2.5508,2.5212,2.5213,2.5427,2.5736,2.5314,2.4457,2.5007,2.5355,2.5502,2.5515,2.5215,2.4715,2.4563,0.0,2.5827,2.5979,2.6577,2.7476,2.6857,2.7039,2.789,2.7836,2.8016,2.8458,2.9225,2.9561,2.9529,3.0353,3.0429,2.9676,2.7814,2.6703,2.6481,2.7068,2.7226,2.6916,2.7832,2.8159,2.7946,2.7306,2.6536,2.5632,2.5647,2.5295,2.4456,2.5018,2.5136,2.4606,2.4509,2.3933,2.2826,0.0,0.0,0.0,0.0,0.0,0.0,0.0,0.0,0.0,0.0,0.0,0.0,0.0,0.0,2.6767,2.8046,0.0,3.0085,3.1903,0.0,0.0,0.0,3.4948,3.6747,3.8204,3.9071,3.9021,0.0,0.0,4.0831,4.135,4.1784,4.1692,4.0475,3.9733,4.0147,3.9687,3.9252,3.915,3.9231,3.9329,3.9417,3.9954,4.0643,4.1306,4.1569,4.1604,4.1604,4.1604,4.1604,4.1604,4.1604,4.1604,4.1604,4.1604,4.1604,4.1604,4.1604,4.1604,4.1604,4.1593,4.1571,2.5603,2.5814,2.5991,2.6162,2.6246,2.5896,2.5909,2.6145,2.585,2.6004,2.6482,2.6593,2.6873,2.7298,2.727,2.7371,2.757,2.7513,2.784,2.8389,2.7573,2.7458,2.7948,2.7859,2.8057,2.8574,2.9253,2.9835,3.0307,3.0653,3.0738,3.0645,3.0153,2.9395,2.8399,2.8889,2.8958,2.8545,2.8769,2.8738,2.8436,2.8358,2.789,2.7027,2.6688,2.637,2.6021,2.5577,2.5275,2.5184,2.4504,2.4047,2.3883,2.2927,0.0,0.0,0.0,0.0,0.0,0.0,0.0,0.0,0.0,2.6041,2.4439,0.0,2.7322,0.0,2.9663,3.1075,3.2437,3.3067,0.0,0.0,3.7517,3.8133,4.0487,4.0693,4.0731,4.0913,4.158,4.1906,4.1537,4.175,4.1661,4.0929,4.0546,4.0109,3.9511,3.9343,3.9312,3.9217,3.9203,3.9312,3.9329,3.9982,4.0509,4.0731,4.12,4.1604,4.1604,4.1604,4.1604,4.1604,4.1604,4.1604,4.1604,4.1604,4.1604,4.1604,4.1604,4.1604,4.1604,4.1509,4.1431,2.5266,2.5508,2.5694,2.6015,2.6436,2.6467,2.6581,2.6708,2.675,2.6722,2.6722,2.6792,2.7215,2.7923,2.8264,2.8518,2.8685,2.806,2.8079,2.8569,2.7696,2.7562,2.8057,2.8153,2.8481,2.8968,2.9364,3.0048,3.0924,3.112,3.1462,3.1924,3.1999,3.1524,3.0571,2.9843,2.9049,2.8187,2.8501,2.8604,2.8441,2.8827,2.8484,2.737,2.7294,2.6778,2.5751,2.5546,2.5368,2.5139,2.4635,2.4496,2.4748,2.3964,2.3654,0.0,0.0,0.0,0.0,0.0,0.0,0.0,0.0,0.0,0.0,0.0,2.9151,3.0521,3.2005,3.3602,3.5377,3.6464,3.7935,3.9977,4.0093,4.06,4.2029,4.1836,4.1675,4.1796,4.1905,4.1916,4.1812,4.1808,4.1331,4.0069,3.9958,3.9666,3.8758,3.8643,3.86,3.8257,3.8246,3.8409,3.8697,3.9129,3.9561,3.9954,4.0597,4.1124,4.1124,4.1394,4.1604,4.1604,4.1604,4.1604,4.1604,4.1604,4.1604,4.1593,4.1549,4.1538,4.1593,4.123,4.0925,2.5113,2.5113,2.5194,2.5648,2.634,2.73,2.7336,2.6833,2.7311,2.7197,2.6705,2.676,2.7122,2.775,2.8519,2.9066,2.9315,2.8245,2.8021,2.8493,2.7626,2.7527,2.8138,2.844,2.885,2.931,2.9449,3.0144,3.1357,3.1605,3.216,3.3016,3.3176,3.2961,3.2317,3.0318,2.8608,2.726,2.7927,2.8235,2.8178,2.8905,2.8613,2.7288,2.7622,2.692,2.4984,2.5415,2.5467,2.497,2.4971,2.52,2.5583,2.5321,2.5352,0.0,2.5611,0.0,0.0,0.0,0.0,0.0,0.0,0.0,0.0,3.0099,3.1303,3.3054,3.4627,3.6404,3.8474,4.0429,4.1591,4.1566,4.2,4.2308,4.2277,4.2166,4.2093,4.2061,4.1956,4.1859,4.178,4.167,4.0981,3.9518,3.9273,3.8912,3.791,3.7804,3.7638,3.6909,3.6928,3.7366,3.7848,3.8066,3.8399,3.9066,3.9814,4.0379,4.052,4.1036,4.1453,4.1569,4.1604,4.1604,4.1604,4.1582,4.1571,4.1542,4.1366,4.1216,4.1281,4.0801,4.0246,2.5739,2.5779,2.6252,2.6552,2.6778,2.8077,2.8349,2.7812,2.6497,2.6395,2.7211,2.768,2.8249,2.8834,2.9519,2.9677,2.9402,2.9042,2.9072,2.9316,2.7932,2.7607,2.8146,2.8099,2.8329,2.8835,2.9298,3.0099,3.1251,3.156,3.2048,3.2689,3.2897,3.2565,3.1768,0.0,0.0,0.0,2.8611,2.845,2.8007,2.8826,2.8745,2.7637,2.7625,0.0,2.6346,2.5983,2.5696,2.5561,2.5888,0.0,0.0,0.0,0.0,0.0,0.0,0.0,0.0,0.0,0.0,0.0,2.9838,3.0245,3.0888,3.3195,3.4854,3.5317,3.6949,3.885,4.0818,4.136,4.1807,4.2313,4.2372,4.232,4.2156,4.2103,4.204,4.1877,4.1834,4.1769,4.1659,4.1615,4.0964,3.9402,3.9122,3.8535,3.72,3.7134,3.7143,3.6995,3.697,3.7042,3.7173,3.7707,3.8066,3.8417,3.8996,3.9708,4.0309,4.0555,4.0966,4.1429,4.1604,4.1587,4.1593,4.1515,4.1448,4.1437,4.0869,4.04,4.0517,4.0222,3.9798,2.6172,2.5929,2.624,2.6199,0.0,2.735,2.8111,2.8396,2.7655,2.7439,2.7631,2.7334,2.7877,2.9017,2.946,2.9509,2.9261,2.9441,2.9662,2.9766,2.8633,2.84,2.9002,2.888,2.8912,2.9113,2.9379,3.015,3.1289,3.1174,3.168,3.2732,3.2841,3.2737,3.2415,3.1283,3.0015,2.8604,2.8676,2.8548,2.828,2.8705,2.8537,2.7708,2.7881,0.0,0.0,0.0,0.0,0.0,0.0,0.0,0.0,0.0,0.0,2.9036,2.9052,2.9129,2.9356,3.0092,3.0954,3.1948,3.3307,3.3828,3.3164,3.5357,3.7017,3.7569,3.8933,4.0287,4.1491,4.1563,4.1459,4.133,4.1073,4.0915,4.0903,4.0728,4.079,4.1168,4.1214,4.13,4.1553,4.1604,4.095,3.9483,3.9193,3.865,3.7259,3.6908,3.6911,3.698,3.698,3.698,3.7015,3.7261,3.7549,3.7637,3.8199,3.8796,3.9234,3.9649,4.0158,4.086,4.1053,4.1119,4.1445,4.1448,4.1392,4.1237,4.0606,3.9889,3.9632,3.9161,3.8703,2.6672,2.6226,2.6349,2.6022,2.5564,2.672,2.7655,2.8407,2.8886,0.0,0.0,2.685,2.737,2.9164,2.9356,2.9356,2.9267,2.9768,2.9988,2.9886,2.9186,2.9138,2.9623,2.9716,2.9773,2.9799,2.9591,3.0253,3.1584,3.0866,3.1277,3.2691,3.2885,3.2967,3.3017,3.1672,3.0207,2.8772,2.8613,2.8561,2.8577,2.8733,2.8519,2.7926,2.8417,2.8141,2.7007,2.7489,2.7508,2.688,2.7072,2.7767,2.9052,2.9038,2.9786,3.151,3.172,3.1909,3.2348,3.3178,3.3955,3.4619,3.6289,3.67,3.5304,3.6783,3.8176,3.9127,3.9954,4.0644,4.125,4.1168,4.0815,4.0126,3.9803,3.9756,3.9994,3.9747,4.0029,4.0599,4.0843,4.0978,4.1509,4.1604,4.1102,3.9884,3.9575,3.8954,3.7567,3.7006,3.6881,3.6987,3.698,3.698,3.7007,3.7025,3.698,3.7067,3.7542,3.7918,3.8153,3.8645,3.9399,4.0432,4.0502,4.0771,4.1245,4.138,4.1318,4.1197,4.0371,3.9501,3.886,3.8075,3.7503,2.7513,2.7486,2.8019,2.7881,2.7385,2.8141,2.7949,2.7258,2.8295,2.8713,2.8509,2.7278,2.8027,3.0289,3.0304,3.009,2.9735,3.0235,3.0046,2.9247,2.8882,2.88,2.896,2.9345,3.0036,3.0836,2.9976,3.0459,3.197,3.1072,3.1174,3.2356,3.2759,3.2763,3.2401,3.1802,3.0937,2.9865,2.8931,2.8436,2.8436,2.9198,2.9474,2.92,2.9587,2.9599,2.8996,2.9215,2.9255,2.8996,2.9745,3.0398,3.0805,3.1005,3.139,3.195,3.3047,3.3734,3.3813,3.5059,3.6141,3.6775,3.7147,3.7024,3.6459,3.719,3.8037,3.8778,3.8757,3.8978,4.0013,4.0024,4.0019,4.0222,4.0412,4.07,4.1019,4.1024,4.1017,4.1213,4.1453,4.1402,4.1542,4.1604,4.1288,4.0544,4.0123,3.9701,3.8304,3.7381,3.7023,3.698,3.698,3.698,3.698,3.698,3.7015,3.698,3.7148,3.7532,3.8091,3.8346,3.8971,4.0256,4.0492,4.0736,4.1251,4.1306,4.1215,4.1048,3.9968,3.8927,3.8656,3.7569,3.6591,2.799,2.773,2.799,2.7773,2.7303,2.8265,2.8384,2.7892,2.8097,2.8412,2.8526,2.7013,2.7862,3.0333,2.9818,2.9405,2.9184,3.013,3.01,2.9317,2.9205,2.9157,2.9235,2.9766,3.0123,3.0259,3.0124,3.0672,3.1718,3.0955,3.1233,3.2594,3.2843,3.2808,3.2572,3.1878,3.131,3.0905,3.003,2.9438,2.9105,2.9418,2.9702,2.9925,2.9815,2.98,2.994,3.0024,3.0037,2.9953,3.0359,3.097,3.1799,3.1977,3.2505,3.3525,3.4346,3.4859,3.5018,3.616,3.7161,3.7827,3.7892,3.7802,3.7614,3.8242,3.8711,3.8821,3.9126,3.9421,3.9606,3.9448,3.9236,3.8956,3.8828,3.8765,3.88,3.9025,3.9352,3.985,4.0348,4.0873,4.152,4.1604,4.1323,4.0643,4.0193,3.9533,3.8873,3.8469,3.7918,3.719,3.698,3.698,3.6997,3.698,3.7153,3.7479,3.7589,3.7887,3.8495,3.8691,3.9224,4.0211,4.0492,4.0714,4.1201,4.1318,4.1203,4.0908,4.0158,3.9277,3.8611,3.7381,3.6404,2.8345,2.7922,2.7908,2.7554,2.7084,2.789,2.8256,2.8214,2.7768,2.8009,2.8412,2.6865,2.7738,3.0244,2.9375,2.8849,2.8953,2.9964,3.0071,2.9376,2.9426,2.9426,2.9437,3.0307,3.0337,2.9701,3.0368,3.1043,3.1379,3.0822,3.132,3.2763,3.3026,3.3051,3.3016,3.2315,3.193,3.18,3.136,3.0731,2.9978,3.0058,3.0325,3.0591,3.0296,3.0334,3.0834,3.0832,3.0922,3.1076,3.1158,3.1722,3.2848,3.3053,3.3687,3.4911,3.5507,3.5977,3.6371,3.7104,3.7809,3.8343,3.8391,3.8391,3.8448,3.892,3.9105,3.8878,3.9307,3.9501,3.9005,3.8748,3.8357,3.7663,3.7371,3.7337,3.704,3.7263,3.7797,3.8719,3.9526,4.0449,4.1186,4.1538,4.1376,4.0843,4.02,3.9803,3.9628,3.9568,3.8971,3.7963,3.7384,3.7296,3.7261,3.7278,3.7492,3.7965,3.8191,3.8482,3.894,3.9154,3.9518,4.0188,4.0416,4.0622,4.1046,4.1238,4.1186,4.0925,4.0268,3.9548,3.8731,3.7795,3.668,2.856,2.8519,2.8508,2.818,2.761,2.721,2.7079,2.7038,2.6927,2.7594,2.8466,2.7304,2.8112,3.0184,2.9726,2.9355,2.9409,3.0163,2.984,2.8833,2.9251,2.9204,2.8949,3.0708,3.0924,2.9878,3.1015,3.1723,3.1658,3.0955,3.135,3.2796,3.3381,3.3556,3.3475,3.3558,3.3251,3.2522,3.2644,3.2046,3.0858,3.1812,3.2114,3.1511,3.1903,3.2158,3.2167,3.2228,3.2505,3.3074,3.3372,3.3884,3.4567,3.4986,3.5272,3.5461,3.6372,3.7277,3.803,3.8264,3.8296,3.8391,3.8391,3.8391,3.8391,3.8462,3.85,3.8446,3.8196,3.8084,3.7838,3.7622,3.7435,3.7337,3.7346,3.7738,3.8066,3.8518,3.89,3.9741,4.0058,4.0754,4.0825,4.1169,4.1463,4.1294,4.1108,4.0872,4.0492,4.0379,4.013,3.9234,3.8522,3.8066,3.8023,3.7995,3.8113,3.815,3.8611,3.9048,3.9272,3.926,3.9251,4.0296,4.0328,4.0513,4.0891,4.1128,4.1088,4.0884,4.0285,3.9497,3.8801,3.8381,3.7812,2.8587,2.8587,2.8587,2.8481,2.8193,2.7963,2.7649,2.7352,2.7323,2.7629,2.8009,2.7542,2.8301,2.9858,2.9249,2.8962,2.8994,2.9277,2.9105,2.8635,2.8865,2.8846,2.8851,3.0794,3.1432,3.1028,3.2391,3.3229,3.3365,3.291,3.2967,3.3509,3.3449,3.3554,3.3902,3.354,3.316,3.2935,3.338,3.3166,3.2382,3.2226,3.2232,3.2228,3.2462,3.2728,3.3016,3.3397,3.3781,3.4028,3.4189,3.4556,3.5222,3.5487,3.5777,3.6094,3.6688,3.7353,3.8059,3.8103,3.8191,3.8377,3.8391,3.8391,3.8391,3.8391,3.8391,3.8373,3.8214,3.8107,3.8045,3.7538,3.712,3.704,3.7014,3.6798,3.6133,3.741,3.8223,3.8053,3.8964,3.9834,4.0007,4.0201,4.0535,4.0867,4.1001,4.0937,4.1049,4.1159,4.1025,4.0674,4.0007,3.935,3.8954,3.8803,3.8944,3.9279,3.9597,3.9859,4.0208,4.0285,4.0437,4.0772,4.0698,4.074,4.1013,4.1117,4.11,4.0839,4.0296,3.9589,3.9313,3.8899,3.8295,2.8587,2.8587,2.8587,2.8587,2.8587,2.8587,2.8343,2.799,2.7963,2.7949,2.7965,2.7963,2.8422,2.9113,2.8785,2.8587,2.8587,2.8587,2.8587,2.8603,2.8649,2.8651,2.8867,3.0699,3.1535,3.1553,3.2736,3.3768,3.4262,3.4201,3.4164,3.4343,3.4097,3.4195,3.4566,3.4091,3.3879,3.3792,3.4258,3.4311,3.3844,3.3215,3.2898,3.3017,3.3164,3.3415,3.3749,3.4242,3.4597,3.4767,3.4782,3.509,3.5722,3.5905,3.6197,3.6662,3.6999,3.7389,3.7871,3.7972,3.8146,3.8349,3.8391,3.8391,3.8391,3.8391,3.8391,3.8391,3.8391,3.8375,3.8329,3.7812,3.7315,3.6996,3.6747,3.6098,3.5413,3.6658,3.7361,3.7013,3.8226,3.9062,3.94,3.954,3.9737,4.0127,4.0184,4.0434,4.103,4.1145,4.1157,4.152,4.1034,4.0433,3.9792,3.9638,3.9918,4.0119,4.0326,4.0672,4.1105,4.114,4.114,4.092,4.1076,4.1094,4.1024,4.107,4.11,4.0861,4.0446,4.0037,4.0055,3.9554,3.9347,2.8587,2.8587,2.8587,2.8587,2.8587,2.8587,2.8573,2.8492,2.8519,2.8532,2.8505,2.8519,2.8576,2.8683,2.866,2.8614,2.8614,2.8641,2.8668,2.8711,2.8814,2.8821,2.8901,3.0498,3.0976,3.0776,3.2152,3.2959,3.3278,3.3732,3.4403,3.5312,3.5657,3.5793,3.5637,3.5987,3.6042,3.5235,3.53,3.5389,3.5264,3.5194,3.4768,3.4185,3.4388,3.4603,3.4633,3.4563,3.4813,3.5429,3.546,3.5768,3.6369,3.6569,3.6784,3.7134,3.7449,3.7685,3.7871,3.8118,3.8321,3.8394,3.8394,3.8391,3.8391,3.8406,3.8406,3.8391,3.8391,3.8391,3.8349,3.8072,3.7711,3.7154,3.6789,3.6611,3.666,3.6598,3.7041,3.753,3.8137,3.8695,3.9292,3.9397,3.9226,3.9275,3.9202,3.9404,4.0138,4.0214,4.057,4.1175,4.1241,4.0998,4.0549,4.0439,4.0403,4.0526,4.0863,4.1127,4.1088,4.1088,4.1059,4.1029,4.1,4.0965,4.0947,4.0935,4.093,4.086,4.086,4.067,4.0549,4.0756,4.0538,2.8276,2.8308,2.8522,2.8587,2.8587,2.8587,2.8587,2.8587,2.8587,2.8587,2.8587,2.86,2.8587,2.863,2.901,2.9173,2.919,2.9173,2.939,2.973,2.9938,3.0021,3.0179,3.1718,3.2633,3.2914,3.4179,3.5046,3.5305,3.5592,3.5957,3.6262,3.6015,3.5985,3.6288,3.6035,3.5702,3.544,3.5463,3.5449,3.5487,3.5807,3.5857,3.561,3.5629,3.5565,3.5329,3.5703,3.5983,3.6138,3.6138,3.6292,3.66,3.68,3.6984,3.7164,3.7104,3.7209,3.7505,3.7594,3.7772,3.8064,3.8278,3.8391,3.8406,3.8462,3.8532,3.852,3.845,3.8335,3.8051,3.7733,3.7375,3.7124,3.6803,3.6448,3.6229,3.6584,3.702,3.6837,3.7189,3.7695,3.791,3.7852,3.8009,3.8367,3.8407,3.8717,3.9313,3.9732,4.0103,4.0514,4.0819,4.0961,4.0822,4.1046,4.1168,4.1125,4.1257,4.1237,4.1197,4.1018,4.0953,4.1018,4.0971,4.0923,4.0912,4.0912,4.0894,4.0894,4.0894,4.0894,4.0894,4.0894,4.0894,2.8112,2.8128,2.8341,2.8455,2.8455,2.8568,2.8614,2.8695,2.8771,2.8833,2.8912,2.9022,2.9088,2.9158,2.9588,2.992,3.0059,2.996,3.0065,3.0395,3.0716,3.0821,3.0974,3.2048,3.2981,3.3673,3.4799,3.5781,3.6496,3.6391,3.6675,3.7259,3.6573,3.6533,3.6997,3.652,3.617,3.6101,3.6172,3.6186,3.618,3.6502,3.677,3.6755,3.6667,3.6475,3.6191,3.6521,3.6693,3.6662,3.66,3.6647,3.6785,3.6923,3.7029,3.7104,3.7013,3.7043,3.7358,3.7418,3.7582,3.7876,3.8207,3.8379,3.8264,3.842,3.8476,3.8424,3.8551,3.8439,3.802,3.7794,3.7584,3.7278,3.6953,3.6575,3.6095,3.6748,3.6866,3.656,3.6764,3.6998,3.6984,3.6969,3.7164,3.7528,3.7559,3.7803,3.8504,3.8875,3.9486,3.9885,4.0245,4.0573,4.0714,4.1007,4.1121,4.1099,4.1082,4.114,4.1169,4.0977,4.0912,4.0982,4.0982,4.0935,4.0894,4.0894,4.0894,4.0894,4.0894,4.0894,4.0894,4.0894,4.0894,2.8135,2.8169,2.8122,2.8245,2.8318,2.8548,2.8731,2.8922,2.9097,2.9263,2.9415,2.9839,2.9935,3.0056,3.0251,3.0703,3.0975,3.0849,3.0685,3.0667,3.1074,3.1195,3.1139,3.1621,3.2231,3.2794,3.3249,3.4576,3.6384,3.6092,3.6504,3.7627,3.7556,3.7477,3.7883,3.7682,3.7585,3.7423,3.7491,3.76,3.7508,3.7415,3.7384,3.7431,3.7416,3.731,3.7147,3.6876,3.6816,3.6923,3.68,3.6785,3.6969,3.7014,3.7014,3.7075,3.7224,3.7358,3.7417,3.7639,3.7759,3.789,3.8194,3.8235,3.8048,3.8286,3.8391,3.8287,3.8634,3.8766,3.8274,3.8529,3.847,3.7587,3.7277,3.714,3.7098,3.7027,3.6984,3.6906,3.6938,3.6984,3.6938,3.6816,3.6785,3.68,3.6769,3.6936,3.7617,3.7807,3.8306,3.9285,3.968,3.9774,4.0336,4.0871,4.0871,4.0842,4.0818,4.084,4.0942,4.0847,4.0864,4.0912,4.0947,4.0894,4.0894,4.0894,4.0894,4.0894,4.0894,4.0894,4.0894,4.0894,4.0894,2.8766,2.8934,2.9046,2.9055,2.9068,2.9024,2.9056,2.9114,2.9332,2.9438,2.9566,2.9929,3.0019,3.0105,3.0659,3.1053,3.1154,3.1587,3.1834,3.1824,3.2089,3.2236,3.2354,3.2587,3.3067,3.3829,3.4898,3.5845,3.6591,3.6921,3.7564,3.8057,3.7902,3.7829,3.7797,3.7728,3.7568,3.7525,3.7583,3.7583,3.751,3.751,3.751,3.751,3.7583,3.7553,3.7405,3.718,3.7029,3.7014,3.6938,3.6984,3.7119,3.7255,3.7346,3.7331,3.7269,3.7329,3.7434,3.7418,3.7508,3.7641,3.7903,3.7988,3.7995,3.8541,3.8856,3.8836,3.9324,3.9475,3.9165,3.9183,3.888,3.784,3.7626,3.7528,3.7409,3.7076,3.6816,3.677,3.6693,3.6662,3.6677,3.6631,3.6708,3.6677,3.66,3.677,3.6907,3.7286,3.7446,3.8123,3.8432,3.8968,3.9555,4.0024,4.015,4.0353,4.0497,4.0612,4.0709,4.0757,4.0769,4.084,4.0876,4.0894,4.0894,4.0894,4.0894,4.0894,4.0906,4.0906,4.0894,4.0918,4.0942,2.914,2.9328,2.9381,2.9416,2.9434,2.9407,2.9468,2.9549,2.9736,2.9885,3.002,3.037,3.0463,3.0543,3.1254,3.1541,3.1523,3.2136,3.2489,3.2614,3.2739,3.2899,3.3023,3.3192,3.3652,3.4259,3.4944,3.577,3.6677,3.6631,3.692,3.7446,3.7192,3.6935,3.6996,3.7058,3.7013,3.6831,3.721,3.7376,3.7195,3.7376,3.751,3.7525,3.7568,3.7584,3.7495,3.7374,3.7285,3.7211,3.7197,3.7241,3.7315,3.7435,3.751,3.748,3.7405,3.739,3.748,3.742,3.7359,3.7524,3.7742,3.7987,3.8198,3.8767,3.9095,3.936,3.986,4.0023,3.9629,3.9787,3.9438,3.8591,3.8362,3.8178,3.7994,3.7779,3.7655,3.7685,3.7529,3.7372,3.7357,3.7277,3.7262,3.723,3.723,3.7061,3.7063,3.7204,3.734,3.7454,3.7767,3.8294,3.8797,3.9122,3.9391,3.9773,4.0133,4.035,4.0539,4.0539,4.0539,4.0745,4.084,4.0883,4.0894,4.0894,4.0894,4.0906,4.0965,4.1,4.1024,4.103,4.1065,2.9371,2.9397,2.9379,2.9457,2.9493,2.9711,2.9911,3.0106,3.0304,3.0474,3.068,3.1021,3.1204,3.1368,3.1751,3.1965,3.2137,3.2187,3.2489,3.2757,3.2864,3.2878,3.3055,3.3224,3.3597,3.4019,3.3825,3.4526,3.5977,3.5305,3.5027,3.6259,3.5913,3.548,3.5722,3.6071,3.6117,3.5941,3.6739,3.6953,3.6616,3.7028,3.7465,3.7495,3.7525,3.7524,3.7495,3.748,3.7495,3.7495,3.7465,3.7465,3.7495,3.751,3.751,3.7525,3.7525,3.7539,3.7525,3.7525,3.7588,3.7697,3.789,3.8107,3.8566,3.9019,3.9352,3.966,4.0293,4.0435,4.0024,4.0261,4.0261,3.974,3.9267,3.903,3.9091,3.9013,3.8856,3.8903,3.8915,3.8771,3.86,3.8486,3.8404,3.8371,3.8309,3.8,3.7693,3.7574,3.7468,3.7466,3.7488,3.7651,3.8155,3.8698,3.9001,3.9484,3.9863,4.0201,4.0362,4.0379,4.0429,4.0624,4.0781,4.0852,4.0883,4.0883,4.0953,4.1047,4.1094,4.114,4.1134,4.1146,4.1128,3.0163,3.0529,3.0394,3.0351,3.0319,3.0288,3.0265,3.0358,3.0527,3.0642,3.0798,3.1123,3.1198,3.1155,3.154,3.1688,3.1675,3.1767,3.2082,3.2453,3.2282,3.2624,3.3104,3.3259,3.3368,3.3597,3.3828,3.4295,3.4846,3.4944,3.5222,3.5641,3.5432,3.5351,3.5464,3.5545,3.5778,3.585,3.5844,3.6443,3.6971,3.677,3.6968,3.748,3.7553,3.7538,3.751,3.751,3.751,3.751,3.751,3.751,3.751,3.751,3.7539,3.7598,3.7642,3.7702,3.7744,3.7718,3.7895,3.8324,3.8357,3.8599,3.9202,3.9818,4.0135,4.0419,4.0925,4.1241,4.1083,4.1178,4.1162,4.0972,4.0118,3.9487,3.9456,3.9298,3.925,3.925,3.9169,3.9136,3.9118,3.8973,3.8844,3.8811,3.8713,3.8522,3.8277,3.7908,3.7806,3.7372,3.7266,3.7275,3.7533,3.8153,3.8684,3.9216,3.9653,4.0096,4.0226,4.0275,4.0375,4.0522,4.0648,4.0716,4.084,4.09,4.1012,4.107,4.1152,4.1163,4.118,4.1175,4.1175,3.0356,3.1005,3.0874,3.083,3.0798,3.0691,3.0653,3.0685,3.0761,3.083,3.0874,3.1061,3.1118,3.1043,3.1416,3.1545,3.1458,3.1651,3.195,3.2218,3.23,3.257,3.2998,3.3188,3.3294,3.3329,3.3687,3.4019,3.4276,3.4478,3.466,3.4828,3.4658,3.4524,3.4474,3.4811,3.4885,3.5017,3.5302,3.5868,3.5701,3.6142,3.6553,3.6877,3.6906,3.6769,3.6983,3.7028,3.7165,3.7405,3.751,3.751,3.751,3.751,3.7524,3.7612,3.7656,3.7744,3.7852,3.7983,3.8289,3.864,3.8773,3.9266,3.9835,4.0388,4.064,4.1035,4.1399,4.1541,4.1588,4.1588,4.1588,4.143,4.0862,4.0372,4.0372,4.0355,4.0275,4.0227,4.0129,4.0015,4.0015,3.9787,3.9655,3.9651,3.9594,3.9294,3.8953,3.8522,3.8138,3.783,3.7631,3.7763,3.8008,3.8543,3.8936,3.9386,3.9755,4.0142,4.0188,4.0238,4.03,4.0424,4.051,4.0624,4.0733,4.0817,4.0852,4.0918,4.107,4.114,4.1111,4.1169,4.1163,3.0171,3.0861,3.0955,3.0949,3.0836,3.0842,3.0729,3.0823,3.0766,3.0785,3.0804,3.093,3.0898,3.0911,3.1203,3.1463,3.1339,3.1545,3.179,3.2069,3.2327,3.265,3.2721,3.3122,3.3276,3.3312,3.3294,3.3632,3.3897,3.3615,3.3687,3.3999,3.3664,3.3399,3.3615,3.3951,3.3859,3.3862,3.4798,3.481,3.428,3.5027,3.5888,3.6195,3.5897,3.5912,3.6196,3.6321,3.6585,3.7345,3.7435,3.751,3.751,3.751,3.7604,3.7697,3.7864,3.7938,3.808,3.8605,3.8893,3.9101,3.9454,3.9929,4.053,4.0798,4.0988,4.1431,4.1573,4.1588,4.1588,4.1588,4.1588,4.1557,4.1509,4.1557,4.1588,4.1588,4.1588,4.1588,4.1392,4.1341,4.124,4.1072,4.0805,4.0356,4.0282,3.9993,3.9617,3.9214,3.8891,3.8599,3.8477,3.8433,3.8732,3.9071,3.9361,3.9703,4.0021,4.029,4.0247,4.0275,4.0275,4.0342,4.0436,4.0522,4.0624,4.0673,4.0721,4.084,4.1012,4.0989,4.0953,4.103,4.1088,2.98,3.0043,3.071,3.0583,3.0024,2.9986,2.9986,2.9973,2.9986,2.9986,3.012,3.0678,3.0583,3.0063,3.0722,3.0791,3.0444,3.0936,3.1272,3.1537,3.2182,3.2435,3.2596,3.2984,3.3273,3.3308,3.3294,3.3399,3.3437,3.3437,3.335,3.3455,3.3452,3.3294,3.3347,3.3455,3.3472,3.3396,3.379,3.3831,3.3643,3.4165,3.5001,3.5464,3.5416,3.5463,3.5561,3.5594,3.5944,3.6585,3.7119,3.733,3.7405,3.7512,3.7778,3.8171,3.842,3.8763,3.9333,3.948,3.98,4.0166,4.0293,4.0656,4.1288,4.1336,4.1415,4.1605,4.1588,4.1588,4.1588,4.1588,4.1588,4.1588,4.1588,4.1588,4.1588,4.1588,4.1588,4.1588,4.1555,4.1539,4.1522,4.1323,4.1138,4.1035,4.0834,4.0602,4.0271,3.9881,3.9651,3.9392,3.9273,3.9231,3.9353,3.9675,3.9945,4.0187,4.046,4.0666,4.0599,4.0622,4.0754,4.0601,4.0387,4.0473,4.0588,4.0648,4.0721,4.0852,4.0923,4.0864,4.0823,4.093,4.0948,2.8755,2.9147,2.9607,2.9517,2.9128,2.9089,2.9108,2.9089,2.9096,2.9108,2.9284,3.0005,3.0114,2.9762,3.0177,3.0273,3.0438,3.0748,3.1118,3.1402,3.1905,3.2209,3.2377,3.2771,3.31,3.3241,3.3294,3.3294,3.3294,3.3294,3.3294,3.3294,3.3294,3.3294,3.3294,3.3294,3.3312,3.3294,3.3294,3.3304,3.3388,3.3628,3.3934,3.4442,3.471,3.4894,3.4879,3.4863,3.5271,3.5818,3.6305,3.6693,3.7138,3.7584,3.8037,3.8121,3.8946,3.9322,3.9782,4.0149,4.0404,4.0785,4.0942,4.1242,4.1509,4.1588,4.1588,4.1588,4.1588,4.1588,4.1588,4.1588,4.1588,4.1588,4.1588,4.1588,4.1588,4.1588,4.1588,4.1588,4.1588,4.1588,4.1539,4.1423,4.1323,4.1171,4.0933,4.0718,4.0817,4.0472,4.0408,4.0225,4.0092,4.0035,4.0089,4.0277,4.0539,4.0803,4.105,4.1201,4.1237,4.1294,4.1378,4.1075,4.0768,4.0515,4.0612,4.0673,4.0781,4.0658,4.0671,4.0666,4.0695,4.0763,4.0748,2.7516,2.8148,2.8267,2.8235,2.8128,2.8108,2.8148,2.8207,2.8207,2.8239,2.8398,2.9147,2.9374,2.9316,2.9433,2.9967,3.0451,3.0842,3.0923,3.1172,3.1711,3.2059,3.2282,3.2574,3.2842,3.3188,3.3224,3.3224,3.3188,3.3276,3.3329,3.3329,3.3294,3.3329,3.3329,3.3294,3.3343,3.3378,3.3333,3.3385,3.3427,3.349,3.3528,3.3716,3.4031,3.4291,3.4308,3.4358,3.4612,3.527,3.5318,3.5669,3.6408,3.7484,3.845,3.801,3.933,3.9976,4.0309,4.0642,4.0944,4.0976,4.1291,4.1591,4.1671,4.1687,4.167,4.1654,4.1637,4.1588,4.1588,4.1588,4.1588,4.1588,4.1588,4.1588,4.1588,4.1588,4.1588,4.1588,4.1588,4.1588,4.1555,4.1474,4.139,4.1273,4.1053,4.0901,4.1,4.1001,4.0859,4.0829,4.0663,4.0703,4.0773,4.0762,4.1034,4.1128,4.1425,4.1633,4.1756,4.1794,4.1733,4.1496,4.1209,4.1121,4.1197,4.1462,4.1349,4.0799,4.0787,4.115,4.1015,4.0681,4.0872,2.6833,2.6883,2.7602,2.7481,2.6862,2.6821,2.7049,2.7377,2.7377,2.7397,2.7519,2.8239,2.8279,2.8031,2.8398,2.8846,2.9367,2.9947,3.0469,3.0784,3.1389,3.1932,3.2141,3.2377,3.2574,3.2793,3.2949,3.2966,3.2966,3.3122,3.3347,3.3466,3.3413,3.3396,3.3466,3.3413,3.3431,3.3553,3.3444,3.3514,3.3709,3.3681,3.3615,3.3689,3.3911,3.3974,3.3994,3.4031,3.4281,3.489,3.4975,3.525,3.5913,3.7025,3.8223,3.934,4.0037,4.0513,4.0923,4.1273,4.1545,4.1657,4.1656,4.1769,4.1899,4.1915,4.185,4.1817,4.1735,4.1652,4.1588,4.1795,4.1667,4.1652,4.1683,4.1683,4.1667,4.1604,4.1604,4.1588,4.1588,4.1588,4.1555,4.1523,4.1473,4.139,4.1223,4.1121,4.1153,4.1152,4.1053,4.1088,4.1141,4.1277,4.1411,4.1382,4.1422,4.1352,4.1574,4.1931,4.2046,4.2136,4.2087,4.2394,4.243,4.2385,4.2454,4.2382,4.2268,4.197,4.1885,4.1818,4.1818,4.184,4.2328,2.5757,2.5704,2.5975,2.585,2.5558,2.5725,2.5945,2.6164,2.6415,2.6539,2.6807,2.7458,2.7742,2.756,2.7819,2.8159,2.8478,2.9238,2.9691,2.9999,3.0765,3.1302,3.1621,3.1982,3.2214,3.2341,3.2525,3.2761,3.2864,3.3037,3.3312,3.3567,3.3588,3.3689,3.3724,3.3675,3.3654,3.3727,3.3681,3.3701,3.3911,3.3836,3.3764,3.3665,3.3864,3.3935,3.3824,3.4115,3.4343,3.4633,3.4676,3.5214,3.5954,3.6679,3.7562,3.8795,3.9904,4.0665,4.1078,4.1307,4.1638,4.1703,4.1735,4.1817,4.1964,4.1996,4.206,4.2059,4.2295,4.2275,4.2307,4.2476,4.2663,4.2616,4.2411,4.219,4.2079,4.1826,4.1763,4.1731,4.1699,4.1699,4.1588,4.1572,4.1555,4.1473,4.1373,4.1339,4.1321,4.1271,4.1221,4.1304,4.1372,4.1439,4.1588,4.1589,4.1591,4.1566,4.1703,4.2025,4.2506,4.2702,4.3427,4.4086,4.3993,4.3382,4.3122,4.2878,4.3,4.3116,4.2847,4.2689,4.2881,4.3148,4.3643,2.485,2.4743,2.453,2.4402,2.4434,2.4744,2.5009,2.52,2.5549,2.5749,2.5895,2.6715,2.7156,2.7226,2.7418,2.7629,2.771,2.8569,2.8983,2.9238,2.9992,3.0437,3.0714,3.127,3.1721,3.1326,3.2087,3.2426,3.2532,3.2818,3.3143,3.3333,3.3623,3.3709,3.3643,3.3504,3.3692,3.3758,3.3884,3.3884,3.381,3.3761,3.3725,3.3526,3.3964,3.409,3.4107,3.439,3.4599,3.4683,3.4766,3.5181,3.6155,3.6409,3.6612,3.7286,3.9089,4.0106,4.0752,4.1074,4.144,4.1523,4.1785,4.1931,4.2124,4.2301,4.2429,4.2524,4.2758,4.3039,4.3051,4.3378,4.3562,4.3515,4.3153,4.2868,4.2774,4.2584,4.2363,4.2252,4.2016,4.1809,4.1697,4.1588,4.1572,4.1572,4.1473,4.1473,4.144,4.1439,4.1422,4.1505,4.1539,4.1539,4.1588,4.1588,4.1606,4.1578,4.1789,4.2088,4.2752,4.337,4.4074,4.4487,4.4323,4.3728,4.3533,4.3682,4.4109,4.4195,4.3726,4.4009,4.4984,4.5019,4.5063,2.4658,2.4292,2.4239,2.41,2.3927,2.3992,2.4369,2.4914,2.5031,2.5115,2.538,2.5843,2.6156,2.6322,2.6807,2.7003,2.7339,2.7995,2.8482,2.8633,2.9355,2.9781,2.9916,3.0651,3.0866,3.0678,3.1471,3.1724,3.1897,3.2357,3.2846,3.3072,3.3072,3.2984,3.3266,3.3196,3.2935,3.3185,3.3642,3.3744,3.3491,3.3462,3.3688,3.401,3.4237,3.4444,3.4715,3.4928,3.5017,3.5031,3.5032,3.5302,3.5716,3.5803,3.6056,3.6876,3.8264,3.9857,4.0516,4.089,4.1058,4.1258,4.1688,4.2142,4.2559,4.2927,4.326,4.3744,4.3736,4.3683,4.3716,4.3739,4.3752,4.3799,4.3752,4.3627,4.3532,4.3067,4.2895,4.2703,4.2449,4.2055,4.1803,4.168,4.1588,4.1588,4.1588,4.1572,4.1556,4.1522,4.1506,4.1572,4.1588,4.1588,4.1588,4.1588,4.1588,4.1588,4.1786,4.2094,4.2678,4.3246,4.3656,4.3956,4.3996,4.447,4.4741,4.5022,4.5417,4.547,4.5275,4.6326,4.7768,4.74,4.6532,2.4497,2.4195,2.4045,2.3905,2.3841,2.4078,2.4368,2.4679,2.4946,2.5105,2.5242,2.5528,2.5749,2.5979,2.6467,2.6663,2.6828,2.7461,2.7756,2.7966,2.8581,2.9015,2.9199,2.9877,3.0235,3.082,3.0868,3.0772,3.1082,3.1888,3.2668,3.2962,3.2988,3.3129,3.3065,3.309,3.3111,3.3259,3.3445,3.3628,3.3715,3.381,3.4054,3.451,3.472,3.4964,3.5147,3.5375,3.5432,3.5426,3.5426,3.5497,3.5658,3.58,3.6081,3.7185,3.7482,3.8298,3.9182,3.998,4.0361,4.0687,4.1241,4.2059,4.2945,4.3637,4.4036,4.4391,4.4671,4.4692,4.4662,4.4897,4.4932,4.483,4.4466,4.4426,4.425,4.3631,4.3263,4.3069,4.2793,4.2247,4.1919,4.2047,4.1863,4.1581,4.1583,4.1552,4.1571,4.1572,4.1572,4.1588,4.1588,4.1588,4.1588,4.1588,4.1588,4.1588,4.1588,4.1948,4.2412,4.2912,4.3306,4.4037,4.4603,4.5164,4.5776,4.6107,4.6266,4.66,4.6931,4.772,4.8435,4.8535,4.7928,2.4207,2.4239,2.3992,2.3862,2.3841,2.4196,2.4347,2.4475,2.4754,2.4956,2.5094,2.5306,2.5591,2.5916,2.6249,2.6445,2.6455,2.6901,2.7076,2.7371,2.7756,2.8127,2.8422,2.9047,2.9894,3.1091,3.0388,3.0082,3.0371,3.1146,3.2073,3.2793,3.2314,3.2702,3.2941,3.28,3.2705,3.3324,3.3282,3.3588,3.4033,3.4112,3.4404,3.4796,3.5151,3.5379,3.5535,3.571,3.5876,3.5883,3.5815,3.5802,3.5836,3.5809,3.6114,3.6858,3.7028,3.7222,3.8107,3.8851,3.9427,3.9937,4.0895,4.217,4.3411,4.4171,4.4703,4.4995,4.4985,4.5151,4.5365,4.5653,4.5649,4.5482,4.5328,4.5292,4.5049,4.4141,4.3494,4.3256,4.2826,4.2132,4.1996,4.2344,4.2191,4.1695,4.1559,4.153,4.1485,4.1455,4.1455,4.1438,4.1421,4.1439,4.1489,4.1506,4.1539,4.1588,4.1588,4.1703,4.2126,4.2559,4.2977,4.3837,4.4779,4.5398,4.5761,4.6423,4.7083,4.7514,4.7893,4.81,4.8517,4.8789,4.9071,2.3702,2.4454,2.4261,2.4024,2.3819,2.3819,2.4013,2.4261,2.4292,2.4454,2.4658,2.4988,2.5422,2.5801,2.5988,2.6164,2.6206,2.6695,2.688,2.7015,2.7179,2.7391,2.7704,2.8147,2.8482,2.8526,2.9057,2.9485,2.9492,3.0025,3.1235,3.2208,3.1468,3.1672,3.1859,3.1864,3.2265,3.2858,3.3059,3.3584,3.4082,3.4314,3.4435,3.5035,3.5288,3.5527,3.6241,3.6244,3.6212,3.6198,3.6052,3.5972,3.5912,3.5838,3.6131,3.6383,3.6705,3.6881,3.7433,3.8107,3.8594,3.924,4.0322,4.1901,4.2934,4.3836,4.4598,4.5038,4.4726,4.4845,4.5115,4.5502,4.552,4.5316,4.5104,4.5152,4.4841,4.4306,4.3709,4.3427,4.2685,4.1644,4.1209,4.136,4.1923,4.1508,4.1313,4.127,4.1165,4.1137,4.1186,4.1201,4.1185,4.122,4.1322,4.1357,4.1423,4.1522,4.1555,4.1572,4.172,4.2152,4.2555,4.336,4.4221,4.5,4.5865,4.66,4.74,4.8301,4.8807,4.891,4.91,4.9427,4.9617,2.3052,2.3659,2.4164,2.4325,2.4239,2.4229,2.4282,2.4368,2.439,2.4421,2.4507,2.469,2.485,2.5105,2.5432,2.5674,2.5821,2.6238,2.6592,2.685,2.7006,2.7076,2.7362,2.7603,2.7804,2.7801,2.8512,2.8905,2.8834,2.9188,3.0023,3.0604,3.0484,3.0674,3.0851,3.096,3.1491,3.2218,3.268,3.315,3.4413,3.4642,3.4885,3.5642,3.5763,3.5945,3.6304,3.6252,3.6246,3.6172,3.6012,3.5952,3.5952,3.5898,3.6052,3.6246,3.6549,3.6772,3.6998,3.7644,3.8084,3.8563,3.9491,4.0598,4.1716,4.2083,4.2691,4.3211,4.382,4.3917,4.4433,4.4665,4.4699,4.4552,4.4555,4.4637,4.4395,4.381,4.3096,4.2477,4.1509,4.0446,4.0222,4.013,4.0797,4.1283,4.1148,4.1003,4.0887,4.0881,4.0932,4.0999,4.0999,4.1049,4.1153,4.1239,4.1307,4.1374,4.1489,4.1456,4.144,4.1637,4.2117,4.2897,4.3775,4.4721,4.5696,4.6732,4.7568,4.821,4.8968,4.9617,4.9824,4.9979,4.9996,2.207,2.2955,2.3767,2.425,2.4475,2.4507,2.4507,2.4507,2.4507,2.4507,2.4507,2.4507,2.4507,2.4625,2.4988,2.5274,2.558,2.5978,2.6343,2.6644,2.6891,2.7053,2.7264,2.7495,2.7788,2.78,2.8016,2.8331,2.8542,2.8518,2.9112,2.9677,2.9877,2.9939,3.0413,3.0222,3.0637,3.1544,3.1958,3.2462,3.3806,3.4338,3.4678,3.5451,3.5747,3.6171,3.6312,3.6305,3.6246,3.6166,3.6012,3.5858,3.5898,3.5998,3.6192,3.6385,3.6603,3.6772,3.7012,3.7173,3.7547,3.7977,3.8639,3.9374,3.989,4.0453,4.1339,4.2083,4.2506,4.2798,4.332,4.3548,4.3642,4.3509,4.3553,4.3601,4.3405,4.2927,4.2115,4.1361,4.0421,3.9723,3.9756,3.9719,4.0096,4.0733,4.09,4.0728,4.0528,4.0572,4.0744,4.0796,4.0831,4.0915,4.1,4.1037,4.1072,4.1088,4.1156,4.1156,4.1189,4.1387,4.1824,4.2676,4.3584,4.4498,4.5315,4.6105,4.7044,4.7978,4.8709,4.9425,4.991,4.9996,4.9996,2.0679,2.24,2.2923,2.3637,2.4325,2.4475,2.4444,2.4507,2.4507,2.4518,2.454,2.4518,2.454,2.4647,2.5009,2.52,2.5444,2.5939,2.6297,2.6507,2.7007,2.7224,2.7415,2.7663,2.7854,2.8107,2.818,2.8247,2.8514,2.8506,2.869,2.8722,2.8968,2.9271,3.0349,2.9792,3.0076,3.1034,3.1209,3.1705,3.25,3.3396,3.3913,3.4607,3.5311,3.5821,3.6252,3.6305,3.6266,3.6232,3.6052,3.5952,3.5992,3.6086,3.6226,3.6391,3.6609,3.6792,3.6959,3.6831,3.704,3.7368,3.7976,3.8499,3.9199,3.9684,3.9993,4.0366,4.0813,4.1137,4.1715,4.2292,4.2405,4.2425,4.2416,4.2355,4.2132,4.1804,4.097,4.0527,3.9889,3.9312,3.9396,3.9482,3.9661,4.0047,4.0453,4.0447,4.0178,4.0329,4.0555,4.0624,4.066,4.0729,4.0797,4.0831,4.085,4.085,4.0901,4.0986,4.1061,4.1202,4.1767,4.2499,4.3157,4.389,4.4588,4.5327,4.6279,4.7223,4.8189,4.8943,4.9543,4.9996,4.9996,1.9267,2.0598,2.2025,2.2802,2.3127,2.3464,2.3907,2.4433,2.4518,2.4604,2.4679,2.4604,2.4711,2.4914,2.4988,2.52,2.5561,2.598,2.6333,2.6738,2.7268,2.7592,2.7732,2.7713,2.7877,2.8062,2.811,2.8191,2.8498,2.849,2.851,2.851,2.8522,2.8722,2.9026,2.8948,2.9408,3.0373,3.0689,3.1075,3.1992,3.2497,3.3084,3.386,3.4533,3.5297,3.6045,3.6092,3.6192,3.6172,3.5992,3.5878,3.5938,3.6052,3.6325,3.647,3.6674,3.6915,3.6978,3.6929,3.6881,3.7017,3.7075,3.7349,3.7284,3.7137,3.7623,3.8438,3.9134,3.9601,4.0323,4.0941,4.1139,4.1028,4.0986,4.0923,4.0703,4.0289,3.9772,3.9711,3.9283,3.878,3.8628,3.89,3.9123,3.9187,3.9523,3.9832,3.9703,4.0097,4.0399,4.0433,4.047,4.0524,4.0593,4.0679,4.0713,4.073,4.0848,4.0984,4.1039,4.1005,4.1285,4.1792,4.2497,4.3207,4.4009,4.4796,4.5532,4.6435,4.7457,4.8269,4.8789,4.9436,4.9996,1.8234,1.9237,2.0648,2.1627,2.2243,2.3171,2.3993,2.4572,2.4636,2.4786,2.4924,2.4828,2.4892,2.5115,2.5211,2.5392,2.585,2.6206,2.6628,2.7051,2.7545,2.7689,2.7697,2.7719,2.7755,2.7911,2.797,2.8062,2.8263,2.8431,2.849,2.851,2.851,2.8574,2.8594,2.869,2.885,2.9516,2.9657,2.9908,3.0623,3.1233,3.1849,3.2722,3.3618,3.456,3.5305,3.5737,3.5938,3.5878,3.5784,3.569,3.5824,3.6078,3.6365,3.651,3.6752,3.694,3.6978,3.6978,3.6923,3.6906,3.6484,3.6266,3.6132,3.6262,3.6436,3.6989,3.7606,3.8367,3.9179,3.9764,3.9943,3.9834,4.0006,3.9976,3.9889,3.9508,3.9395,3.93,3.893,3.8401,3.7955,3.8241,3.8519,3.8538,3.8561,3.889,3.9287,3.9751,4.0084,4.0089,4.0314,4.0487,4.0541,4.0593,4.0627,4.0626,4.0712,4.0831,4.0641,4.0539,4.0806,4.1107,4.1779,4.2529,4.3485,4.431,4.5123,4.5917,4.6797,4.7506,4.8045,4.8649,4.9316,1.7512,1.838,1.8879,2.0079,2.1702,2.3236,2.4305,2.4744,2.4765,2.4903,2.52,2.5137,2.5179,2.5274,2.5497,2.5872,2.6314,2.6563,2.6911,2.7294,2.7712,2.7646,2.7567,2.7568,2.7526,2.7533,2.7621,2.7809,2.7941,2.8331,2.849,2.851,2.851,2.851,2.851,2.8542,2.8638,2.8822,2.8886,2.9027,2.9404,2.9927,3.0684,3.1592,3.2626,3.3681,3.4436,3.4943,3.5332,3.5474,3.5507,3.5588,3.5804,3.6118,3.6272,3.651,3.6811,3.6934,3.6978,3.6978,3.6978,3.6915,3.6792,3.651,3.6246,3.6086,3.6177,3.6355,3.69,3.7567,3.824,3.8588,3.8945,3.9133,3.9419,3.9424,3.9424,3.93,3.9259,3.9043,3.858,3.8106,3.7633,3.7721,3.8053,3.8071,3.8116,3.8251,3.8698,3.9399,3.9634,3.9633,3.9932,4.042,4.0524,4.0558,4.0541,4.0541,4.0487,4.0505,4.0281,4.0191,4.0416,4.0754,4.114,4.1933,4.3168,4.4058,4.4781,4.5549,4.62,4.6745,4.729,4.7638,4.8175,1.7012,1.7466,1.8272,1.891,1.955,2.1078,2.2419,2.3509,2.3649,2.4145,2.5221,2.5052,2.5264,2.5707,2.5979,2.6249,2.6704,2.714,2.7315,2.7568,2.7744,2.7612,2.7393,2.7149,2.7143,2.7237,2.7371,2.7534,2.7889,2.8271,2.8471,2.851,2.853,2.853,2.853,2.851,2.851,2.851,2.851,2.851,2.8623,2.9258,3.0012,3.1013,3.1722,3.2756,3.3554,3.3914,3.4304,3.4696,3.4241,3.4353,3.5723,3.5474,3.5399,3.6549,3.685,3.6978,3.6978,3.6978,3.6978,3.6978,3.6934,3.6713,3.6431,3.6213,3.6121,3.6191,3.6375,3.7026,3.7683,3.8103,3.8578,3.9061,3.9278,3.9305,3.9292,3.9169,3.9074,3.8415,3.7981,3.7634,3.719,3.7377,3.7659,3.7662,3.7725,3.7827,3.8107,3.8798,3.9361,3.9346,3.9829,4.042,4.0489,4.0524,4.0489,4.0455,4.0418,4.0383,4.0331,4.0257,4.0226,4.0456,4.0973,4.1937,4.313,4.3912,4.4632,4.4908,4.5507,4.6003,4.6483,4.6848,4.7256,1.6855,1.7073,1.7598,1.8102,1.865,1.9399,2.0683,2.2155,2.2911,2.3812,2.4627,2.5031,2.5401,2.5739,2.6021,2.6378,2.6922,2.7075,2.7348,2.7741,2.7653,2.7359,2.702,2.6769,2.6668,2.6808,2.693,2.7042,2.7548,2.8022,2.8271,2.851,2.855,2.8598,2.8618,2.8637,2.8637,2.8598,2.8558,2.851,2.8675,2.8946,2.9697,3.0488,3.1022,3.1944,3.2691,3.2925,3.342,3.3784,3.3301,3.3543,3.4607,3.4408,3.4855,3.5891,3.6276,3.6375,3.6455,3.6828,3.692,3.6978,3.6978,3.6772,3.6549,3.6305,3.6046,3.594,3.6164,3.653,3.7208,3.7873,3.8524,3.9197,3.9251,3.9305,3.9197,3.9047,3.8483,3.7778,3.7357,3.7046,3.6956,3.7155,3.7234,3.7232,3.7339,3.7551,3.7747,3.816,3.8867,3.9244,3.9864,4.0489,4.0489,4.0489,4.0489,4.0472,4.0472,4.0436,4.0383,4.0277,4.0197,4.0476,4.087,4.1807,4.2707,4.3769,4.4492,4.4758,4.5074,4.558,4.5947,4.6054,4.6499,1.7026,1.7003,1.7003,1.7613,1.8519,1.845,1.9262,2.0778,2.2344,2.3424,2.3941,2.5009,2.5496,2.5666,2.5913,2.6421,2.6813,2.7009,2.7239,2.7849,2.7391,2.7053,2.6867,2.6659,2.6755,2.6444,2.6616,2.7381,2.7197,2.7772,2.8433,2.8551,2.8697,2.8784,2.8803,2.8823,2.8803,2.8705,2.8637,2.857,2.8651,2.8848,2.9228,2.9863,3.0669,3.1503,3.1952,3.2401,3.2852,3.2873,3.2787,3.2744,3.3045,3.3556,3.4337,3.495,3.5467,3.577,3.6044,3.6494,3.6881,3.6978,3.6978,3.6792,3.6589,3.6391,3.6138,3.5824,3.5981,3.6375,3.6964,3.7303,3.7818,3.8374,3.8632,3.8659,3.8605,3.8307,3.7745,3.7113,3.6734,3.649,3.6639,3.6826,3.7136,3.6962,3.6931,3.718,3.7505,3.7779,3.8233,3.8961,3.9867,4.0437,4.0489,4.0489,4.0489,4.0489,4.0489,4.0489,4.0453,4.0314,4.0172,4.0463,4.0809,4.1334,4.216,4.3278,4.4247,4.4648,4.4983,4.5318,4.5502,4.5578,4.585,1.7136,1.7003,1.7003,1.7066,1.7209,1.7667,1.8079,1.8688,2.0854,2.241,2.3531,2.452,2.5211,2.5412,2.5915,2.639,2.6596,2.6824,2.7009,2.7042,2.6835,2.6889,2.6886,2.6874,2.707,2.7615,2.796,2.8089,2.8249,2.8524,2.8741,2.9019,2.9016,2.8942,2.9039,2.9039,2.8993,2.8911,2.8819,2.8691,2.8622,2.9339,2.9951,3.0259,3.0822,3.1177,3.1439,3.1395,3.1725,3.1823,3.1381,3.148,3.1899,3.2852,3.345,3.3893,3.4643,3.4999,3.5555,3.6123,3.6646,3.692,3.6973,3.6831,3.6688,3.651,3.6238,3.5904,3.5859,3.6266,3.6632,3.6863,3.7148,3.7623,3.803,3.8043,3.803,3.7535,3.7006,3.6599,3.6185,3.6178,3.632,3.6584,3.6903,3.693,3.6761,3.69,3.7285,3.757,3.7629,3.8409,3.9761,4.0333,4.0437,4.0489,4.0489,4.0489,4.0489,4.0489,4.0489,4.0366,4.0237,4.0421,4.0743,4.1244,4.1949,4.3068,4.3888,4.4381,4.4723,4.5021,4.5281,4.5395,4.5539,1.7246,1.7136,1.7129,1.6988,1.6878,1.7207,1.7402,1.7714,1.9268,2.0747,2.2233,2.3855,2.4775,2.4861,2.5498,2.5937,2.6098,2.6455,2.6628,2.6584,2.6452,2.6646,2.6796,2.7057,2.7453,2.8014,2.8256,2.8501,2.8891,2.8904,2.8883,2.9244,2.9181,2.9201,2.9318,2.933,2.929,2.922,2.9095,2.8935,2.8804,2.9469,3.0169,3.0474,3.0815,3.108,3.1017,3.0905,3.0859,3.0992,3.0746,3.1293,3.1745,3.2193,3.2596,3.3057,3.3627,3.4223,3.4877,3.5595,3.6369,3.6705,3.6978,3.6889,3.6688,3.651,3.6325,3.5978,3.5743,3.6049,3.6469,3.6754,3.715,3.7614,3.7792,3.7848,3.7651,3.7262,3.6777,3.6354,3.6048,3.5913,3.6103,3.6442,3.6652,3.6401,3.632,3.6395,3.6819,3.7237,3.7335,3.7772,3.9081,4.0126,4.0455,4.0489,4.0489,4.0489,4.0489,4.0489,4.0487,4.0366,4.0316,4.0413,4.064,4.1058,4.1878,4.2753,4.3527,4.4055,4.4366,4.4663,4.4911,4.5136,4.5262,1.7309,1.7309,1.7309,1.72,1.7043,1.7043,1.7097,1.7293,1.8141,1.9062,2.0314,2.3033,2.3596,2.3951,2.4508,2.4928,2.5302,2.5594,2.5926,2.6278,2.6103,2.6459,2.6872,2.7189,2.7783,2.8283,2.8595,2.854,2.8556,2.8821,2.9199,2.9395,2.9535,2.9678,2.9677,2.9699,2.9666,2.9534,2.9408,2.9256,2.9359,2.9557,3.015,3.0622,3.0987,3.1061,3.0983,3.0826,3.0589,3.0397,3.0465,3.1015,3.145,3.1671,3.1847,3.2273,3.2683,3.3288,3.3972,3.4938,3.5816,3.648,3.6789,3.6895,3.6693,3.6549,3.6365,3.6132,3.5884,3.5845,3.6266,3.6544,3.6974,3.7324,3.7414,3.749,3.7215,3.6941,3.6537,3.6127,3.5959,3.5771,3.6049,3.6375,3.6293,3.6029,3.5954,3.5988,3.617,3.6589,3.687,3.7342,3.8252,3.9205,4.0058,4.0231,4.0128,4.0489,4.0489,4.0489,4.0487,4.0418,4.0342,4.0271,4.0528,4.1071,4.1449,4.211,4.287,4.3598,4.3807,4.404,4.4492,4.4704,4.4855,1.7309,1.7309,1.7309,1.7286,1.7239,1.7239,1.7364,1.7691,1.8488,1.8941,1.9307,2.0643,2.1991,2.3074,2.3562,2.3986,2.4383,2.4722,2.537,2.5877,2.6037,2.6447,2.7013,2.764,2.8416,2.8942,2.9338,2.9484,2.9055,2.9323,2.9679,2.9895,2.9685,2.9791,2.9918,2.9911,2.9837,2.9709,2.9507,2.9351,2.9687,2.9898,3.0186,3.0658,3.1133,3.1245,3.1284,3.1217,3.0792,3.042,3.0261,3.0668,3.0994,3.1184,3.1352,3.1584,3.1955,3.2584,3.3395,3.4332,3.523,3.605,3.6401,3.6881,3.6752,3.6727,3.6524,3.6325,3.6078,3.5784,3.5981,3.5981,3.6266,3.6538,3.6707,3.6788,3.6696,3.6507,3.6269,3.6046,3.5891,3.5967,3.6252,3.6429,3.6415,3.6218,3.6205,3.6205,3.6054,3.6246,3.6455,3.697,3.7567,3.8368,3.9247,3.9514,3.9603,4.0093,4.0455,4.037,4.037,4.0489,4.0412,4.0314,4.0702,4.1264,4.1614,4.1592,4.2188,4.2857,4.3057,4.3358,4.3895,4.4281,4.4419]}]]